[[{"header":{"parameterUnit":"m.s-1","parameterCategory":1,"la1":30.6,"la2":28.766,"lo1":-90.7593,"lo2":-88.6598,"dy":0.0162,"dx":0.0183,"nx":116,"ny":114,"refTime":"2023-04-12T12:00:00:Z","depth":0,"parameterNumber":2,"parameterNumberName":"U-component_of_WINDS"},"data":[0.0,0.0,0.0,0.0,0.0,0.0,0.0,0.0,0.0,0.0,0.0,0.0,0.0,0.0,0.0,0.0,0.0,0.0,0.0,0.0,0.0,0.0,0.0,0.0,0.0,0.0,0.0,0.0,0.0,0.0,0.0,0.0,0.0,0.0,0.0,0.0,0.0,0.0,0.0,0.0,0.0,0.0,0.0,0.0,0.0,0.0,0.0,0.0,0.0,0.0,0.0,0.0,0.0,0.0,0.0,0.0,0.0,0.0,0.0,0.0,0.0,0.0,0.0,0.0,0.0,0.0,0.0,0.0,0.0,0.0,0.0,0.0,0.0,0.0,0.0,0.0,0.0,0.0,0.0,0.0,0.0,0.0,0.0,0.0,0.0,0.0,0.0,0.0,0.0,0.0,0.0,0.0,0.0,0.0,0.0,0.0,0.0,0.0,0.0,0.0,0.0,0.0,0.0,0.0,0.0,0.0,0.0,0.0,0.0,0.0,0.0,0.0,0.0,0.0,0.0,0.0,0.0,0.0,0.0,0.0,0.0,0.0,0.0,0.0,0.0,0.0,0.0,0.0,0.0,0.0,0.0,0.0,0.0,0.0,0.0,0.0,0.0,0.0,0.0,0.0,0.0,0.0,0.0,0.0,0.0,0.0,0.0,0.0,0.0,0.0,0.0,0.0,0.0,0.0,0.0,0.0,0.0,0.0,0.0,0.0,0.0,0.0,0.0,0.0,0.0,0.0,0.0,0.0,0.0,0.0,0.0,0.0,0.0,0.0,0.0,0.0,0.0,0.0,0.0,0.0,0.0,0.0,0.0,0.0,0.0,0.0,0.0,0.0,0.0,0.0,0.0,0.0,0.0,0.0,0.0,0.0,0.0,0.0,0.0,0.0,0.0,0.0,0.0,0.0,0.0,0.0,0.0,0.0,0.0,0.0,0.0,0.0,0.0,0.0,0.0,0.0,0.0,0.0,0.0,0.0,0.0,0.0,0.0,0.0,0.0,0.0,0.0,0.0,0.0,0.0,0.0,0.0,0.0,0.0,0.0,0.0,0.0,0.0,0.0,0.0,0.0,0.0,0.0,0.0,0.0,0.0,0.0,0.0,0.0,0.0,0.0,0.0,0.0,0.0,0.0,0.0,0.0,0.0,0.0,0.0,0.0,0.0,0.0,0.0,0.0,0.0,0.0,0.0,0.0,0.0,0.0,0.0,0.0,0.0,0.0,0.0,0.0,0.0,0.0,0.0,0.0,0.0,0.0,0.0,0.0,0.0,0.0,0.0,0.0,0.0,0.0,0.0,0.0,0.0,0.0,0.0,0.0,0.0,0.0,0.0,0.0,0.0,0.0,0.0,0.0,0.0,0.0,0.0,0.0,0.0,0.0,0.0,0.0,0.0,0.0,0.0,0.0,0.0,0.0,0.0,0.0,0.0,0.0,0.0,0.0,0.0,0.0,0.0,0.0,0.0,0.0,0.0,0.0,0.0,0.0,0.0,0.0,0.0,0.0,0.0,0.0,0.0,0.0,0.0,0.0,0.0,0.0,0.0,0.0,0.0,0.0,0.0,0.0,0.0,0.0,0.0,0.0,0.0,0.0,0.0,0.0,0.0,0.0,0.0,0.0,0.0,0.0,0.0,0.0,0.0,0.0,0.0,0.0,0.0,0.0,0.0,0.0,0.0,0.0,0.0,0.0,0.0,0.0,0.0,0.0,0.0,0.0,0.0,0.0,0.0,0.0,0.0,0.0,0.0,0.0,0.0,0.0,0.0,0.0,0.0,0.0,0.0,0.0,0.0,0.0,0.0,0.0,0.0,0.0,0.0,0.0,0.0,0.0,0.0,0.0,0.0,0.0,0.0,0.0,0.0,0.0,0.0,0.0,0.0,0.0,0.0,0.0,0.0,0.0,0.0,0.0,0.0,0.0,0.0,0.0,0.0,0.0,0.0,0.0,0.0,0.0,0.0,0.0,0.0,0.0,0.0,0.0,0.0,0.0,0.0,0.0,0.0,0.0,0.0,0.0,0.0,0.0,0.0,0.0,0.0,0.0,0.0,0.0,0.0,0.0,0.0,0.0,0.0,0.0,0.0,0.0,0.0,0.0,0.0,0.0,0.0,0.0,0.0,0.0,0.0,0.0,0.0,0.0,0.0,0.0,0.0,0.0,0.0,0.0,0.0,0.0,0.0,0.0,0.0,0.0,0.0,0.0,0.0,0.0,0.0,0.0,0.0,0.0,0.0,0.0,0.0,0.0,0.0,0.0,0.0,0.0,0.0,0.0,0.0,0.0,0.0,0.0,0.0,0.0,0.0,0.0,0.0,0.0,0.0,0.0,0.0,0.0,0.0,0.0,0.0,0.0,0.0,0.0,0.0,0.0,0.0,0.0,0.0,0.0,0.0,0.0,0.0,0.0,0.0,0.0,0.0,0.0,0.0,0.0,0.0,0.0,0.0,0.0,0.0,0.0,0.0,0.0,0.0,0.0,0.0,0.0,0.0,0.0,0.0,0.0,0.0,0.0,0.0,0.0,0.0,0.0,0.0,0.0,0.0,0.0,0.0,0.0,0.0,0.0,0.0,0.0,0.0,0.0,0.0,0.0,0.0,0.0,0.0,0.0,0.0,0.0,0.0,0.0,0.0,0.0,0.0,0.0,0.0,0.0,0.0,0.0,0.0,0.0,0.0,0.0,0.0,0.0,0.0,0.0,0.0,0.0,0.0,0.0,0.0,0.0,0.0,0.0,0.0,0.0,0.0,0.0,0.0,0.0,0.0,0.0,0.0,0.0,0.0,0.0,0.0,0.0,0.0,0.0,0.0,0.0,0.0,0.0,0.0,0.0,0.0,0.0,0.0,0.0,0.0,0.0,0.0,0.0,0.0,0.0,0.0,0.0,0.0,0.0,0.0,0.0,0.0,0.0,0.0,0.0,0.0,0.0,0.0,0.0,0.0,0.0,0.0,0.0,0.0,0.0,0.0,0.0,0.0,0.0,0.0,0.0,0.0,0.0,0.0,0.0,0.0,0.0,0.0,0.0,0.0,0.0,0.0,0.0,0.0,0.0,0.0,0.0,0.0,0.0,0.0,0.0,0.0,0.0,0.0,0.0,0.0,0.0,0.0,0.0,0.0,0.0,0.0,0.0,0.0,0.0,0.0,0.0,0.0,0.0,0.0,0.0,0.0,0.0,0.0,0.0,0.0,0.0,0.0,0.0,0.0,0.0,0.0,0.0,0.0,0.0,0.0,0.0,0.0,0.0,0.0,0.0,0.0,0.0,0.0,0.0,0.0,0.0,0.0,0.0,0.0,0.0,0.0,0.0,0.0,0.0,0.0,0.0,0.0,0.0,0.0,0.0,0.0,0.0,0.0,0.0,0.0,0.0,0.0,0.0,0.0,0.0,0.0,0.0,0.0,0.0,0.0,0.0,0.0,0.0,0.0,0.0,0.0,0.0,0.0,0.0,0.0,0.0,0.0,0.0,0.0,0.0,0.0,0.0,0.0,0.0,0.0,0.0,0.0,0.0,0.0,0.0,0.0,0.0,0.0,0.0,0.0,0.0,0.0,0.0,0.0,0.0,0.0,0.0,0.0,0.0,0.0,0.0,0.0,0.0,0.0,0.0,0.0,0.0,0.0,0.0,0.0,0.0,0.0,0.0,0.0,0.0,0.0,0.0,0.0,0.0,0.0,0.0,0.0,0.0,0.0,0.0,0.0,0.0,0.0,0.0,0.0,0.0,0.0,0.0,0.0,0.0,0.0,0.0,0.0,0.0,0.0,0.0,0.0,0.0,0.0,0.0,0.0,0.0,0.0,0.0,0.0,0.0,0.0,0.0,0.0,0.0,0.0,0.0,0.0,0.0,0.0,0.0,0.0,0.0,0.0,0.0,0.0,0.0,0.0,0.0,0.0,0.0,0.0,0.0,0.0,0.0,0.0,0.0,0.0,0.0,0.0,0.0,0.0,0.0,0.0,0.0,0.0,0.0,0.0,0.0,0.0,0.0,0.0,0.0,0.0,0.0,0.0,0.0,0.0,0.0,0.0,0.0,0.0,0.0,0.0,0.0,0.0,0.0,0.0,0.0,0.0,0.0,0.0,0.0,0.0,0.0,0.0,0.0,0.0,0.0,0.0,0.0,0.0,0.0,0.0,0.0,0.0,0.0,0.0,0.0,0.0,0.0,0.0,0.0,0.0,0.0,0.0,0.0,0.0,0.0,0.0,0.0,0.0,0.0,0.0,0.0,0.0,0.0,0.0,0.0,0.0,0.0,0.0,0.0,0.0,0.0,0.0,0.0,0.0,0.0,0.0,0.0,0.0,0.0,0.0,0.0,0.0,0.0,0.0,0.0,0.0,0.0,0.0,0.0,0.0,0.0,0.0,0.0,0.0,0.0,0.0,0.0,0.0,0.0,0.0,0.0,0.0,0.0,0.0,0.0,0.0,0.0,0.0,0.0,0.0,0.0,0.0,0.0,0.0,0.0,0.0,0.0,0.0,0.0,0.0,0.0,0.0,0.0,0.0,0.0,0.0,0.0,0.0,0.0,0.0,0.0,0.0,0.0,0.0,0.0,0.0,0.0,0.0,0.0,0.0,0.0,0.0,0.0,0.0,0.0,0.0,0.0,0.0,0.0,0.0,0.0,0.0,0.0,0.0,0.0,0.0,0.0,0.0,0.0,0.0,0.0,0.0,0.0,0.0,0.0,0.0,0.0,0.0,0.0,0.0,0.0,0.0,0.0,0.0,0.0,0.0,0.0,0.0,0.0,0.0,0.0,0.0,0.0,0.0,0.0,0.0,0.0,0.0,0.0,0.0,0.0,0.0,0.0,0.0,0.0,0.0,0.0,0.0,0.0,0.0,0.0,0.0,0.0,0.0,0.0,0.0,0.0,0.0,0.0,0.0,0.0,0.0,0.0,0.0,0.0,0.0,0.0,0.0,0.0,0.0,0.0,0.0,0.0,0.0,0.0,0.0,0.0,0.0,0.0,0.0,0.0,0.0,0.0,0.0,0.0,0.0,0.0,0.0,0.0,0.0,0.0,0.0,0.0,0.0,0.0,0.0,0.0,0.0,0.0,0.0,0.0,0.0,0.0,0.0,0.0,0.0,0.0,0.0,0.0,0.0,0.0,0.0,0.0,0.0,0.0,0.0,0.0,0.0,0.0,0.0,0.0,0.0,0.0,0.0,0.0,0.0,0.0,0.0,0.0,0.0,0.0,0.0,0.0,0.0,0.0,0.0,0.0,0.0,0.0,0.0,0.0,0.0,0.0,0.0,0.0,0.0,0.0,0.0,0.0,0.0,0.0,0.0,0.0,0.0,0.0,0.0,0.0,0.0,0.0,0.0,0.0,0.0,0.0,0.0,0.0,0.0,0.0,0.0,0.0,0.0,0.0,0.0,0.0,0.0,0.0,0.0,0.0,0.0,0.0,0.0,0.0,0.0,0.0,0.0,0.0,0.0,0.0,0.0,0.0,0.0,0.0,0.0,0.0,0.0,0.0,0.0,0.0,0.0,0.0,0.0,0.0,0.0,0.0,0.0,0.0,0.0,0.0,0.0,0.0,0.0,0.0,0.0,0.0,0.0,0.0,0.0,0.0,0.0,0.0,0.0,0.0,0.0,0.0,0.0,0.0,0.0,0.0,0.0,0.0,0.0,0.0,0.0,0.0,0.0,0.0,0.0,0.0,0.0,0.0,0.0,0.0,0.0,0.0,0.0,0.0,0.0,0.0,0.0,0.0,0.0,0.0,0.0,0.0,0.0,0.0,0.0,0.0,0.0,0.0,0.0,0.0,0.0,0.0,0.0,0.0,0.0,0.0,0.0,0.0,0.0,0.0,0.0,0.0,0.0,0.0,0.0,0.0,0.0,0.0,0.0,0.0,0.0,0.0,0.0,0.0,0.0,0.0,0.0,0.0,0.0,0.0,0.0,0.0,0.0,0.0,0.0,0.0,0.0,0.0,0.0,0.0,0.0,0.0,0.0,0.0,0.0,0.0,0.0,0.0,0.0,0.0,0.0,0.0,0.0,0.0,0.0,0.0,0.0,0.0,0.0,0.0,0.0,0.0,0.0,0.0,0.0,0.0,0.0,0.0,0.0,0.0,0.0,0.0,0.0,0.0,0.0,-1.9829,-1.937,0.0,0.0,0.0,0.0,0.0,0.0,0.0,0.0,0.0,0.0,0.0,0.0,0.0,0.0,0.0,0.0,0.0,0.0,0.0,0.0,0.0,0.0,0.0,-0.7216,-0.7279,-0.7288,-0.7604,0.0,0.0,0.0,0.0,0.0,0.0,0.0,-0.8112,-0.8242,-0.8565,-0.8952,-0.9709,-1.0358,-1.0955,-1.0171,-0.9932,-1.0194,0.0,0.0,0.0,0.0,0.0,0.0,0.0,0.0,0.0,0.0,0.0,0.0,0.0,0.0,0.0,0.0,0.0,0.0,0.0,0.0,0.0,0.0,0.0,0.0,0.0,0.0,0.0,0.0,0.0,0.0,0.0,0.0,0.0,0.0,0.0,0.0,0.0,0.0,0.0,0.0,0.0,0.0,0.0,0.0,0.0,0.0,0.0,0.0,0.0,0.0,0.0,0.0,0.0,0.0,0.0,0.0,0.0,0.0,0.0,0.0,0.0,0.0,0.0,0.0,0.0,0.0,0.0,0.0,0.0,0.0,-2.0967,-2.0613,0.0,0.0,0.0,0.0,0.0,0.0,0.0,0.0,0.0,0.0,0.0,0.0,0.0,0.0,0.0,0.0,0.0,0.0,0.0,0.0,0.0,-0.6992,-0.7197,-0.7399,-0.7407,-0.733,-0.7775,-0.804,-0.786,-0.795,-0.8117,-0.8242,-0.8117,-0.8177,-0.8425,-0.8571,-0.904,-0.9835,-1.1066,-1.2019,-1.2676,-1.1813,-1.1362,-1.1355,-1.0899,0.0,0.0,0.0,0.0,0.0,0.0,0.0,0.0,0.0,0.0,0.0,0.0,0.0,0.0,0.0,0.0,0.0,0.0,0.0,0.0,0.0,0.0,0.0,0.0,0.0,0.0,0.0,0.0,0.0,0.0,0.0,0.0,0.0,0.0,0.0,0.0,0.0,0.0,0.0,0.0,0.0,0.0,0.0,0.0,0.0,0.0,0.0,0.0,0.0,0.0,0.0,0.0,0.0,0.0,0.0,0.0,0.0,0.0,0.0,0.0,0.0,0.0,0.0,-2.1674,-2.1787,-2.1797,-2.2074,-2.2342,-2.2573,-2.1949,-2.1719,-2.1736,-2.14,0.0,0.0,0.0,0.0,0.0,0.0,0.0,0.0,0.0,0.0,0.0,0.0,0.0,0.0,0.0,0.0,0.0,0.0,0.0,-0.7345,-0.7442,-0.7716,-0.7902,-0.8068,-0.8275,-0.8436,-0.8404,-0.8226,-0.8431,-0.9081,-0.87,-0.87,-0.9326,-0.9268,-0.982,-1.1149,-1.2269,-1.3271,-1.4211,-1.3618,-1.3675,-1.4214,-1.2111,-1.1323,-1.1575,0.0,0.0,0.0,0.0,0.0,0.0,0.0,0.0,0.0,0.0,0.0,0.0,0.0,0.0,0.0,0.0,0.0,0.0,0.0,0.0,0.0,0.0,0.0,0.0,0.0,0.0,0.0,0.0,0.0,0.0,0.0,0.0,0.0,0.0,0.0,0.0,0.0,0.0,0.0,0.0,0.0,-1.674,-1.7317,0.0,0.0,0.0,0.0,0.0,0.0,0.0,0.0,0.0,0.0,0.0,0.0,0.0,-2.1323,-2.1314,-2.253,-2.3188,-2.3188,-2.3725,-2.3991,-2.3971,-2.367,-2.3728,-2.4049,-2.3631,0.0,-2.2659,-2.2936,0.0,0.0,0.0,0.0,0.0,0.0,0.0,0.0,0.0,0.0,0.0,0.0,0.0,0.0,0.0,0.0,0.0,0.0,0.0,0.0,0.0,-0.8404,-0.8723,-0.8887,-0.9162,-0.9294,-0.9162,-0.915,-0.9198,-0.9396,-0.921,-0.9274,-0.9664,-0.9687,-1.0804,-1.3132,-1.385,-1.4726,-1.5687,-1.4877,-1.4736,-1.5005,-1.393,-1.3093,-1.2498,-1.2425,0.0,0.0,0.0,0.0,0.0,0.0,0.0,0.0,0.0,0.0,0.0,0.0,0.0,0.0,0.0,0.0,0.0,0.0,0.0,0.0,0.0,0.0,0.0,0.0,0.0,0.0,0.0,0.0,0.0,0.0,0.0,0.0,0.0,0.0,0.0,0.0,0.0,0.0,0.0,-1.5707,-1.6693,-1.7488,-1.7465,-1.7217,0.0,0.0,0.0,0.0,0.0,0.0,0.0,0.0,0.0,-2.2755,-2.2949,-2.3047,-2.3127,-2.4016,-2.4419,-2.4419,-2.4351,-2.4414,-2.4414,-2.4482,-2.4609,-2.4785,-2.4853,-2.44,-2.3677,-2.3438,-2.3079,-2.2422,0.0,0.0,0.0,0.0,-2.1494,-2.141,0.0,0.0,0.0,0.0,0.0,0.0,0.0,0.0,0.0,0.0,0.0,0.0,-0.8788,-0.9219,-0.9562,-0.9755,-1.0031,-1.0122,-1.0055,-0.9999,-0.997,-1.0028,-0.9901,-0.9913,-1.0117,-1.0712,-1.2267,-1.4883,-1.5334,-1.6014,-1.6922,-1.6009,-1.5658,-1.5948,-1.5948,-1.4942,-1.3222,-1.3222,-1.2572,-1.1558,0.0,0.0,0.0,0.0,0.0,0.0,0.0,0.0,0.0,0.0,0.0,0.0,0.0,0.0,0.0,0.0,0.0,0.0,0.0,0.0,0.0,0.0,0.0,0.0,0.0,0.0,0.0,0.0,0.0,0.0,0.0,0.0,0.0,0.0,0.0,0.0,0.0,-1.6863,-1.7473,-1.8259,-1.862,-1.8621,0.0,0.0,0.0,0.0,0.0,0.0,-2.4145,-2.4345,-2.4775,-2.548,-2.5665,-2.5621,-2.5455,-2.5794,-2.5773,-2.54,-2.4961,-2.4756,-2.4766,-2.4971,-2.5127,-2.5254,-2.5469,-2.5127,-2.4394,-2.389,-2.3355,-2.2775,-2.2284,-2.1987,-2.1987,-2.2073,-2.1874,-2.1759,0.0,0.0,0.0,0.0,0.0,0.0,0.0,0.0,0.0,0.0,0.0,-0.9108,-0.9608,-0.9922,-1.0306,-1.0642,-1.0558,-1.0599,-1.0923,-1.0528,-1.0618,-1.1435,-1.0996,-1.0807,-1.0996,-1.2856,-1.4488,-1.5829,-1.6282,-1.6982,-1.794,-1.7001,-1.7001,-1.7872,-1.7872,-1.6298,-1.3673,-1.3448,-1.2872,-1.1929,-1.1558,0.0,0.0,0.0,0.0,0.0,0.0,0.0,0.0,0.0,0.0,0.0,0.0,0.0,0.0,0.0,0.0,0.0,0.0,0.0,0.0,0.0,0.0,0.0,0.0,0.0,0.0,0.0,0.0,0.0,0.0,0.0,0.0,0.0,0.0,0.0,0.0,0.0,0.0,-2.068,-2.1453,0.0,0.0,0.0,0.0,-2.5095,-2.4061,-2.4196,-2.6303,-2.7294,-2.77,-2.7545,-2.9173,-2.9448,-2.8166,-2.8198,-2.7539,-2.6318,-2.5879,-2.5664,-2.5654,-2.5254,-2.5303,-2.5684,-2.5273,-2.4844,-2.4414,-2.4394,-2.3716,-2.2803,-2.2775,-2.2589,-2.2403,-2.2677,-2.2755,-2.2746,0.0,0.0,0.0,0.0,0.0,0.0,-0.835,-0.8376,-0.8506,-0.8894,-0.9081,-0.9374,-0.9971,-1.0423,-1.0778,-1.1018,-1.154,-1.185,-1.1638,-1.1706,-1.1841,-1.2035,-1.1553,-1.168,-1.24,-1.371,-1.4862,-1.5896,-1.6412,-1.6843,-1.7187,-1.6843,-1.6986,-1.7607,-1.7607,-1.6487,-1.4665,-1.4593,-1.3585,-1.2003,-1.1855,-1.1632,0.0,0.0,0.0,0.0,0.0,0.0,0.0,0.0,0.0,0.0,0.0,0.0,0.0,0.0,0.0,0.0,0.0,0.0,0.0,0.0,0.0,0.0,0.0,0.0,0.0,0.0,0.0,0.0,0.0,0.0,0.0,0.0,0.0,0.0,0.0,0.0,0.0,-2.1351,-2.2213,0.0,-2.2726,-2.3487,-2.4187,-2.4659,-2.7108,-2.862,-2.8859,-2.9999,-3.0399,-2.9756,-2.9862,-2.9341,-2.7995,-2.7613,-2.7272,-2.6787,-2.6074,-2.5742,-2.5732,-2.5566,-2.5586,-2.5723,-2.5566,-2.5244,-2.4814,-2.4531,-2.3826,-2.2969,-2.2969,-2.2969,-2.2882,-2.2969,-2.2969,-2.2969,0.0,0.0,0.0,0.0,0.0,-0.8505,-0.8747,-0.8779,-0.8958,-0.9215,-0.9408,-0.9703,-1.0302,-1.0699,-1.1051,-1.1217,-1.181,-1.2123,-1.2028,-1.2148,-1.2282,-1.2405,-1.2166,-1.2609,-1.3875,-1.4423,-1.5178,-1.6187,-1.6536,-1.6665,-1.6665,-1.6665,-1.6747,-1.6749,-1.6749,-1.595,-1.456,-1.456,-1.3633,-1.2077,-1.2003,-1.1855,-1.1558,0.0,0.0,0.0,0.0,0.0,0.0,0.0,0.0,0.0,0.0,0.0,0.0,0.0,0.0,0.0,0.0,0.0,0.0,0.0,0.0,0.0,0.0,0.0,0.0,0.0,0.0,0.0,0.0,0.0,0.0,0.0,0.0,0.0,0.0,-2.0739,-2.2054,-2.1977,-2.3379,-2.4253,-2.4026,-2.5235,-2.6042,-2.6062,-2.909,-3.0686,-3.002,-3.2066,-3.25,-3.0767,-3.1108,-3.0376,-2.8575,-2.8144,-2.7729,-2.7226,-2.6514,-2.6094,-2.5957,-2.5957,-2.5879,-2.5742,-2.5742,-2.54,-2.4824,-2.4531,-2.3916,-2.3135,-2.3135,-2.3135,-2.3135,-2.3135,-2.3135,-2.3135,0.0,0.0,0.0,0.0,0.0,-0.9114,-0.9266,-0.9412,-0.9582,-0.9798,-0.9804,-1.0032,-1.0633,-1.0857,-1.1102,-1.1383,-1.1156,-1.1311,-1.1956,-1.1799,-1.1934,-1.256,-1.2781,-1.3673,-1.5383,-1.5056,-1.5498,-1.6646,-1.6636,-1.6626,-1.6563,-1.6563,-1.6163,-1.5432,-1.5432,-1.4662,-1.3314,-1.3314,-1.287,-1.2291,-1.2077,-1.2003,-1.1929,0.0,0.0,0.0,0.0,0.0,0.0,0.0,0.0,0.0,0.0,0.0,0.0,0.0,0.0,0.0,0.0,0.0,0.0,0.0,0.0,0.0,0.0,0.0,0.0,0.0,0.0,0.0,0.0,0.0,0.0,0.0,0.0,0.0,-2.1112,-2.203,-2.2931,-2.295,-2.4987,-2.6457,-2.6412,-2.6483,-2.7466,-2.9613,-3.0097,-3.0053,-2.9502,-3.3302,-3.3827,-3.04,-3.2855,-3.2955,-3.0214,-2.9877,-2.8952,-2.7656,-2.7207,-2.6787,-2.6387,-2.6377,-2.6143,-2.5742,-2.5742,-2.5254,-2.4453,-2.4424,-2.3926,-2.3174,-2.3154,-2.3135,-2.3135,-2.3047,-2.3047,-2.296,0.0,0.0,0.0,0.0,0.0,-0.886,-0.9449,-0.9266,-0.925,-0.9894,-0.9926,-1.0155,-1.0626,-1.0857,-1.1022,-1.1102,-1.1608,-1.1968,-1.218,-1.239,-1.2658,-1.3094,-1.3803,-1.4541,-1.5383,-1.5324,-1.5311,-1.5417,-1.5059,-1.4608,-1.3987,-1.3987,-1.4072,-1.4132,-1.4132,-1.3697,-1.2976,-1.2976,-1.2618,-1.2004,-1.2145,-1.2157,-1.2003,0.0,0.0,0.0,0.0,0.0,0.0,0.0,0.0,0.0,0.0,0.0,0.0,0.0,0.0,0.0,0.0,0.0,0.0,0.0,0.0,0.0,0.0,0.0,0.0,0.0,0.0,0.0,0.0,0.0,0.0,0.0,-2.1078,-2.256,-2.2268,-2.3784,-2.5131,-2.5749,-2.6443,-2.6967,-2.734,-2.8238,-2.8685,-2.8289,-3.0456,-3.1251,-3.0108,-3.2029,-3.2297,-3.0307,-3.103,-3.0628,-2.89,-2.8481,-2.8063,-2.7656,-2.6914,-2.6504,-2.6377,-2.6064,-2.585,-2.5742,-2.5742,-2.5596,-2.5322,-2.4678,-2.4277,-2.4004,-2.3379,-2.3135,-2.296,-2.2129,-2.1212,-2.0584,0.0,0.0,0.0,0.0,0.0,-0.8991,-0.9392,-0.9308,-0.9414,-0.9945,-0.9983,-1.0174,-1.0594,-1.0744,-1.0815,-1.0815,-1.1182,-1.1482,-1.167,-1.1973,-1.2405,-1.2834,-1.3373,-1.39,-1.4381,-1.439,-1.4441,-1.4617,-1.3862,-1.3431,-1.3313,-1.2865,-1.2543,-1.2498,-1.2589,-1.2357,-1.1927,-1.2056,-1.1955,-1.171,-1.2004,-1.2118,-1.215,-1.2003,-1.2123,-1.2293,-1.2037,-1.219,-1.2546,-1.2145,0.0,0.0,0.0,0.0,0.0,0.0,0.0,0.0,0.0,0.0,0.0,0.0,0.0,0.0,0.0,0.0,0.0,0.0,0.0,0.0,0.0,0.0,0.0,0.0,-2.2022,-2.3716,-2.4765,-2.5702,-2.6523,-2.7207,-2.7598,-2.791,-2.8164,-2.8896,-2.8991,-2.829,-3.0276,-3.0927,-2.9513,-3.1224,-3.1429,-2.9503,-3.0016,-2.9608,-2.8291,-2.8047,-2.793,-2.792,-2.7246,-2.6826,-2.6641,-2.6211,-2.5908,-2.5742,-2.5742,-2.5635,-2.54,-2.4707,-2.4316,-2.4082,0.0,0.0,0.0,0.0,-2.0124,-1.9579,0.0,0.0,0.0,-0.9361,-0.9321,-0.9279,-0.9247,-0.9392,-0.9604,-0.9964,-1.0028,-1.0174,-1.0561,-1.0598,-1.0571,-1.0571,-1.0388,-1.0395,-1.08,-1.1178,-1.1663,-1.2266,-1.2328,-1.2573,-1.3009,-1.2967,-1.3245,-1.3895,-1.2873,-1.2753,-1.3327,-1.2301,-1.1471,-1.0808,-1.1033,-1.0938,-1.0591,-1.0788,-1.1082,-1.1403,-1.1663,-1.1964,-1.2258,-1.2063,-1.2273,-1.2459,-1.2197,-1.2245,-1.2523,-1.2252,0.0,0.0,0.0,0.0,0.0,0.0,0.0,0.0,0.0,0.0,0.0,0.0,0.0,0.0,0.0,0.0,0.0,0.0,0.0,0.0,0.0,0.0,0.0,0.0,-2.2309,-2.4899,-2.7247,-2.7263,-2.7166,-2.7764,-2.8428,-2.8848,-2.8848,-2.8848,-2.8848,-2.8848,-2.9632,-2.9503,-2.8398,-3.0514,0.0,0.0,0.0,-2.9513,-2.8291,-2.8291,-2.8271,-2.8223,-2.7793,-2.7363,-2.6934,-2.6504,-2.6103,-2.5742,-2.5742,-2.5508,-2.5107,-2.4472,-2.3924,-2.3371,-2.3036,-2.212,-2.0755,-1.9852,-1.9306,-1.9123,0.0,0.0,0.0,-0.9316,-0.9155,-0.9086,-0.9265,-0.9042,-0.9207,-1.0045,-1.0101,-1.0174,-1.0561,-1.0347,-1.02,-1.02,-1.0085,-1.0184,-1.0787,-1.16,-1.2151,-1.2266,-1.2634,-1.2887,-1.3009,-1.2788,-1.2394,-1.1838,-1.1445,-1.1005,-1.0502,-1.0271,-1.0077,-0.9911,-0.9966,-1.0105,-1.0207,-1.0261,-1.0588,-1.1082,-1.1136,-1.1476,-1.1977,-1.2138,-1.2417,-1.2566,-1.1476,-1.1462,-1.1846,-1.0416,-1.0258,-1.074,-1.0475,-1.0362,0.0,0.0,0.0,0.0,0.0,0.0,0.0,0.0,0.0,0.0,0.0,0.0,0.0,0.0,0.0,0.0,0.0,0.0,0.0,-1.9626,-2.1762,-2.4105,-2.6435,-2.6591,-2.7131,-2.8554,-2.8525,-2.8418,-2.8418,-2.8418,-2.8418,-2.8418,-2.8534,-2.8601,-2.8291,-2.8804,-2.8794,-2.8291,-2.8601,-2.8601,-2.8291,-2.8291,-2.8125,-2.7783,-2.7353,0.0,-2.6494,-2.6064,-2.582,-2.5742,-2.5742,-2.5684,-2.547,-2.3932,-2.2262,-2.0737,-2.1365,-2.0305,-1.8503,-1.9222,-1.8211,-1.6655,0.0,0.0,0.0,0.0,-0.8896,-0.8731,-0.8799,-0.8626,-0.8802,-0.9691,-0.9748,-0.9825,-1.0288,-1.0053,-0.9884,-0.9884,-0.9823,-0.9942,-1.021,-1.0899,-1.1351,-1.1413,-1.1663,-1.1787,-1.1787,-1.1526,-1.1346,-1.1271,-1.0451,-1.0059,-1.0115,-0.9528,-0.9245,-0.9252,-0.9399,-0.9382,-0.9232,-0.9363,-0.9468,-0.9521,-0.9651,-0.9858,-1.0206,-1.1037,-1.1297,-1.1165,-1.0494,-1.0603,-1.1006,-1.0145,-1.0074,-1.0362,-1.0295,-1.0134,-1.0022,0.0,0.0,0.0,0.0,0.0,0.0,0.0,0.0,0.0,0.0,0.0,0.0,0.0,0.0,-1.4699,-1.5454,0.0,-1.7936,-1.9953,-2.1455,-2.3079,-2.5206,-2.609,-2.7151,-2.8406,-2.8799,-2.8935,-2.8935,-2.9121,-2.9248,-2.9248,-2.8848,-2.8603,-2.8603,-2.8408,-2.8291,-2.8291,-2.8291,-2.8291,-2.8291,-2.8086,-2.7871,-2.7656,-2.7012,-2.6592,-2.6377,-2.521,-2.4716,-2.4609,-2.3998,-2.3692,-2.3647,-2.2355,-2.0612,-1.8832,-1.9296,-1.8772,-1.7692,-1.7669,-1.6835,-1.592,0.0,0.0,0.0,0.0,0.0,-0.8391,-0.8238,-0.8255,-0.8555,-0.916,-0.9259,-0.9444,-0.98,-0.9646,-0.9541,-0.9481,-0.9592,-0.965,-0.9707,-1.0089,-1.0434,-1.0561,-1.0624,-1.0624,-1.0624,-1.0214,-1.032,-1.1005,-0.9714,-0.9473,-1.0156,-0.9224,-0.8699,-0.8599,-0.8828,-0.8627,-0.8183,-0.8429,-0.8307,-0.7976,-0.82,-0.825,-0.8258,-0.9319,-0.969,-0.9576,-0.9393,-0.9572,-0.9902,-0.9697,-0.9795,-0.9956,-1.0079,-0.9935,-0.9713,-0.9444,-0.9387,0.0,0.0,0.0,0.0,0.0,0.0,0.0,0.0,0.0,-1.4103,-1.4888,-1.5036,-1.5395,-1.6347,-1.678,-1.7799,-2.0019,-2.092,-2.2002,-2.3755,-2.5057,-2.6163,-2.7333,-2.8626,-2.9473,-2.956,-2.9873,-3.0078,-3.0078,-2.9355,-2.8916,-2.8916,-2.8525,-2.8291,-2.8291,-2.8291,-2.8291,-2.8291,-2.7881,-2.7513,-2.7197,-2.6323,-2.581,-2.5415,-2.3936,-2.324,-2.3161,-2.197,-2.1377,-2.1192,-2.0476,-1.9098,-1.7406,-1.734,-1.7318,-1.7225,-1.6204,-1.5832,-1.5832,0.0,0.0,0.0,0.0,0.0,-0.8427,-0.7991,-0.8141,-0.8365,-0.8651,-0.8926,-0.9147,-0.9355,-0.9106,-0.8883,-0.8714,-0.924,-0.9557,-0.9695,-1.0214,-1.0561,-1.0624,-1.0624,-1.0624,-1.0624,-1.0013,-0.9791,-0.9901,-0.9193,-0.8904,-0.901,-0.8871,-0.8427,-0.783,-0.786,-0.7631,-0.725,-0.741,-0.7572,-0.7736,-0.797,-0.765,-0.7078,-0.7254,-0.808,-0.9059,-0.8282,-0.8095,-0.8133,-0.7409,-0.7247,-0.7517,-0.7677,-0.7919,-0.8087,-0.7989,-0.8022,-0.8177,-0.8294,-0.8872,-0.9867,-1.1743,-1.2166,-1.2751,0.0,0.0,-1.5488,-1.6009,-1.6281,-1.6567,-1.7034,-1.7549,-1.813,-1.8989,-1.9591,-2.0559,-2.2064,-2.2412,-2.2973,-2.4197,-2.7114,-2.9141,-2.9531,-2.9609,-2.9639,-2.9639,-2.9189,-2.8916,-2.8916,-2.8525,-2.8291,-2.8291,-2.8291,-2.8291,-2.8291,-2.7881,-2.6921,-2.5249,-2.4793,-2.3675,-2.2215,-2.1971,-2.177,-2.1444,-2.102,-2.0385,-1.9444,-1.8776,-1.7705,-1.6386,-1.6123,-1.6015,-1.6015,-1.5825,-1.5832,-1.5832,0.0,0.0,0.0,0.0,0.0,-0.8719,-0.8239,-0.8093,-0.8172,-0.8379,-0.8494,-0.8685,-0.8955,-0.8669,-0.8447,-0.8184,-0.8903,-0.9382,-0.9439,-1.0177,-1.0624,-1.0624,-1.0624,-1.0624,-1.0624,-0.9987,-0.9505,-0.9084,-0.8477,-0.7937,-0.7509,-0.7509,-0.7343,-0.7074,-0.7074,-0.6834,-0.647,-0.6492,-0.6458,-0.6359,-0.6437,-0.632,-0.6071,-0.6194,-0.6631,-0.7138,-0.6585,-0.6521,0.0,-0.6354,-0.6376,-0.657,-0.6977,-0.7019,-0.6911,-0.67,-0.6731,-0.7079,-0.8215,-0.9076,-0.9797,-1.0977,-1.1384,-1.2005,-1.3708,-1.4039,-1.4589,-1.619,-1.662,-1.6901,-1.7555,-1.8009,-1.843,0.0,-1.9279,-1.9773,-2.0452,-2.1227,-2.2032,-2.2764,-2.4947,-2.6367,-2.6641,-2.716,-2.7463,-2.724,-2.6857,-2.6521,-2.6521,-2.6056,-2.5717,-2.5717,-2.5717,-2.5611,-2.5496,-2.4996,-2.4289,-2.3375,-2.298,-2.241,-2.1643,-2.0837,-1.9842,-1.8817,-1.8592,-1.8036,-1.7492,-1.7232,-1.6642,-1.6005,-1.5879,-1.5832,-1.5832,-1.5832,-1.5832,-1.5832,0.0,0.0,0.0,0.0,0.0,0.0,0.0,0.0,-0.7967,-0.8159,-0.8183,-0.8255,-0.8441,-0.8297,-0.8105,-0.7919,-0.8646,-0.9183,-0.9318,-0.9971,-1.0474,-1.0618,-1.0364,-1.0238,-1.0238,-0.9503,-0.8836,-0.8295,-0.7807,-0.7268,-0.6713,-0.6713,-0.6602,-0.6435,-0.6435,-0.6147,-0.5699,-0.5742,-0.5598,-0.5304,-0.5389,-0.5423,-0.5454,-0.5705,-0.5704,-0.5487,-0.5486,-0.5552,-0.5581,-0.5707,-0.5734,-0.5921,-0.6395,-0.6379,-0.6058,-0.5761,-0.5731,-0.6003,-0.7535,-0.839,-0.9148,-0.9987,-1.0561,-1.1139,-1.2273,-1.2707,-1.3476,-1.5636,-1.6199,-1.6612,-1.7569,-1.811,-1.8437,-1.8644,-1.8998,-1.9245,-1.9245,-2.0123,-2.1016,-2.1329,-2.2398,-2.3095,-2.3095,-2.4756,-2.5691,-2.5434,-2.5078,-2.4754,-2.4754,-2.416,-2.3822,-2.3822,-2.3822,-2.3648,-2.3402,-2.293,-2.2356,-2.1788,-2.132,-2.0939,-2.0531,-1.9338,-1.8175,-1.7121,-1.666,-1.6393,-1.6266,-1.6186,-1.6025,-1.5832,-1.5832,-1.5832,-1.5832,-1.5832,-1.5832,-1.5832,0.0,0.0,0.0,0.0,0.0,0.0,0.0,0.0,0.0,-0.7913,-0.7913,-0.7919,-0.7925,-0.7919,-0.7913,-0.7901,-0.8367,-0.8808,-0.9247,-0.9661,-1.0137,-1.0548,-0.9786,-0.9338,-0.9338,-0.8179,-0.7556,-0.7556,-0.727,-0.7101,-0.7101,-0.7101,-0.669,-0.6036,-0.6036,-0.5627,-0.4928,-0.5064,-0.5128,-0.5165,-0.5464,-0.5583,-0.5599,-0.5745,-0.5432,-0.488,-0.5412,-0.5634,-0.5578,-0.5308,-0.5189,-0.5294,-0.5504,-0.5622,-0.5604,-0.5236,-0.5037,-0.5045,-0.5567,-0.6178,-0.7017,-0.8784,-0.9619,-1.0378,-1.1643,-1.22,-1.2762,-1.4068,-1.4886,-1.5677,-1.6962,-1.7662,-1.8063,-1.807,-1.8557,-1.8938,-1.8938,-1.8938,-1.9159,-1.9455,-1.9495,-1.9604,0.0,-2.2898,-2.5161,-2.5153,-2.4696,-2.4497,-2.4497,-2.4028,-2.3822,-2.3822,-2.3822,-2.3648,-2.3402,-2.293,-2.1932,-2.0325,-1.9889,-1.902,-1.766,-1.7089,-1.6988,-1.7101,-1.6233,-1.6012,-1.6253,-1.5965,-1.5838,-1.5832,-1.5832,-1.5832,-1.5832,-1.5832,-1.5832,-1.5832,0.0,0.0,0.0,0.0,0.0,0.0,0.0,0.0,0.0,0.0,0.0,0.0,0.0,0.0,0.0,0.0,-0.8404,-0.8608,-0.8707,-0.8844,-0.8908,-0.8987,-0.8533,-0.8242,-0.8242,-0.7726,-0.7255,-0.676,-0.6502,-0.6172,-0.5794,-0.5794,-0.5735,-0.5592,-0.5467,-0.5336,-0.5236,-0.5061,-0.5073,-0.5306,-0.5401,-0.5574,-0.5672,-0.5012,-0.461,-0.4428,0.0,-0.3981,-0.4172,-0.4199,-0.4257,-0.4431,-0.4696,-0.4836,-0.4791,-0.4424,-0.467,-0.5106,-0.5529,0.0,-0.7006,-0.7937,-0.831,-0.8878,-1.036,-1.0735,-1.1213,-1.2741,-1.2977,-1.3125,-1.378,-1.5056,-1.6057,-1.6057,-1.7559,-1.8637,-1.8637,-1.8804,-1.8891,-1.8798,-1.8958,0.0,0.0,0.0,0.0,-2.1575,-2.1466,-2.1401,-2.1401,-2.1104,-2.0931,-2.0931,-2.0931,-2.0685,-2.0149,-2.004,-1.9391,-1.8555,-1.8352,-1.7991,-1.7281,-1.6887,-1.6653,-1.654,-1.6039,-1.5885,-1.5972,-1.5872,-1.5832,-1.5832,-1.5832,-1.5832,-1.5832,-1.5832,-1.5832,-1.5832,0.0,0.0,0.0,0.0,0.0,0.0,0.0,0.0,0.0,0.0,0.0,0.0,0.0,0.0,0.0,0.0,0.0,-0.8502,-0.8549,-0.8322,-0.8166,-0.8187,-0.7563,-0.715,-0.7012,-0.6656,-0.616,-0.5542,-0.556,-0.5339,-0.4944,-0.5117,-0.5286,-0.5383,-0.5378,-0.5032,-0.4393,-0.4186,-0.4046,-0.3885,-0.3867,-0.4065,-0.4239,-0.3625,-0.33,0.0,-0.274,-0.2462,-0.2423,-0.3097,-0.3505,-0.3672,-0.3838,-0.3966,-0.4084,-0.4071,-0.4508,-0.505,-0.5633,-0.6313,-0.7031,-0.7399,-0.7665,-0.8028,-0.9002,-0.9268,-0.9739,-1.1241,-1.1255,-1.1296,-1.1929,-1.3159,-1.4111,-1.423,-1.571,-1.7124,-1.757,-1.7818,-1.8125,-1.8484,-1.8657,-1.8738,0.0,0.0,0.0,-1.9352,-1.9526,-1.9599,-1.9492,-1.9312,-1.9205,-1.9205,-1.9105,-1.8824,-1.8337,-1.833,-1.8029,-1.7428,-1.7428,-1.7275,-1.6981,-1.6687,-1.6446,-1.6259,-1.5959,-1.5832,-1.5832,-1.5832,-1.5832,-1.5832,-1.5832,-1.5832,-1.5832,-1.5832,-1.5832,-1.5832,0.0,0.0,0.0,0.0,0.0,0.0,0.0,0.0,0.0,0.0,0.0,0.0,0.0,0.0,0.0,0.0,0.0,0.0,-0.8709,-0.8069,-0.7744,-0.8024,-0.68,-0.596,-0.5735,-0.4987,-0.4426,-0.4008,-0.4499,-0.4695,-0.4653,-0.5122,-0.5325,-0.5338,-0.5561,-0.452,-0.2613,-0.2537,-0.1929,-0.0981,-0.093,-0.1157,-0.1525,-0.178,-0.1499,-0.1129,-0.1578,-0.1113,-0.0657,-0.2115,-0.2775,-0.3011,-0.3085,0.0,0.0,0.0,-0.4613,-0.4944,-0.5859,-0.6402,-0.68,-0.7265,-0.7584,-0.7801,-0.7811,-0.7929,-0.8333,-0.9596,-0.9776,-1.0053,0.0,-1.1781,-1.2162,-1.2446,-1.3297,-1.4404,-1.5792,-1.6132,-1.6719,0.0,0.0,0.0,0.0,0.0,0.0,-1.8464,-1.8991,-1.9199,-1.8918,-1.8905,-1.8905,-1.8905,-1.8637,-1.8343,-1.805,-1.8029,-1.7729,-1.7148,-1.7148,-1.6987,-1.6673,-1.64,-1.6266,-1.6239,-1.5952,-1.5832,-1.5832,-1.5832,-1.5832,-1.5832,-1.5832,-1.5832,-1.5832,-1.5832,-1.5832,-1.5832,0.0,0.0,0.0,0.0,0.0,0.0,0.0,0.0,0.0,0.0,0.0,0.0,0.0,0.0,0.0,0.0,0.0,0.0,-0.8165,-0.7343,-0.6695,-0.6267,-0.5413,-0.4775,-0.4448,-0.4378,-0.4233,-0.4135,-0.4132,-0.4169,-0.4308,-0.4166,-0.4167,-0.4242,-0.3555,-0.2691,-0.1669,-0.0427,0.0288,0.0591,0.1121,0.1422,0.1489,0.0636,0.0503,0.0752,-0.0,-0.0365,-0.06,-0.135,0.0,0.0,0.0,-0.4441,-0.4465,0.0,0.0,-0.5638,-0.5882,-0.636,-0.689,-0.7084,-0.7428,-0.7682,-0.7787,-0.7929,-0.8007,-0.8087,-0.7876,-0.7665,-0.7736,-0.8973,-1.0069,-1.0249,-1.1851,0.0,-1.388,-1.4089,0.0,-1.6042,0.0,-1.697,-1.7828,-1.8136,0.0,0.0,-1.837,-1.8677,-1.8604,-1.8604,-1.8604,-1.8604,-1.8531,-1.8343,-1.805,-1.7816,-1.7515,-1.7148,-1.7148,-1.6881,-1.638,-1.6306,-1.6152,-1.5939,-1.5865,-1.5832,-1.5832,-1.5832,-1.5832,-1.5832,-1.5832,-1.5832,-1.5832,-1.5832,-1.5832,-1.5832,0.0,0.0,0.0,0.0,0.0,0.0,0.0,0.0,0.0,0.0,0.0,0.0,0.0,0.0,0.0,0.0,0.0,0.0,0.0,-0.7217,-0.6437,-0.5732,-0.5057,-0.4423,-0.3906,-0.3901,-0.3853,-0.3643,-0.3707,-0.3748,-0.3774,-0.3577,-0.3453,-0.343,-0.2316,-0.1382,-0.0436,0.1004,0.1586,0.0,0.0,0.2325,0.2409,0.1813,0.1633,0.1635,0.073,-0.0223,-0.1155,0.0,0.0,-0.3463,-0.4466,-0.4735,-0.4779,-0.5165,0.0,-0.591,-0.6151,-0.6483,-0.6865,-0.701,-0.7224,-0.7346,-0.7302,-0.7446,-0.7527,-0.7158,-0.6847,-0.6548,-0.6382,-0.7366,-0.8281,0.0,0.0,0.0,-1.2142,-1.2353,-1.2965,0.0,-1.4562,0.0,-1.6617,-1.6876,-1.7173,0.0,-1.8223,-1.8437,-1.8303,-1.8297,-1.8297,-1.8297,-1.8043,-1.7762,-1.7462,-1.7281,-1.7048,-1.6767,-1.6767,-1.6526,-1.6079,-1.6079,-1.5985,-1.5832,-1.5832,-1.5832,-1.5832,-1.5832,-1.5439,-1.4949,-1.4949,-1.4561,-1.4082,-1.4082,-1.4082,-1.4082,0.0,0.0,0.0,0.0,0.0,0.0,0.0,0.0,0.0,0.0,0.0,-0.9205,-0.918,-0.9397,0.0,0.0,0.0,0.0,0.0,0.0,-0.6689,-0.5922,-0.5315,-0.464,-0.3937,-0.3729,-0.3447,-0.3031,-0.3292,-0.3376,-0.3184,-0.31,-0.2995,-0.2788,-0.1642,-0.0577,0.0505,0.1587,0.2066,0.2092,0.2163,0.2163,0.2163,0.0,0.2057,0.1822,0.0749,-0.0615,-0.2043,-0.264,-0.3528,-0.44,-0.472,-0.4862,-0.5012,-0.5559,-0.5795,-0.6045,-0.6364,-0.6556,-0.6709,-0.6861,-0.7021,-0.7002,-0.6788,-0.6926,-0.702,-0.6529,-0.6351,-0.6273,-0.6256,-0.6542,-0.6976,-0.726,0.0,-0.911,-1.0362,-1.0689,-1.1249,-1.2377,-1.2774,-1.3509,-1.514,-1.5269,-1.5922,-1.7518,-1.7889,-1.8031,-1.7996,-1.7989,-1.7969,-1.7929,-1.7382,-1.6967,-1.6707,-1.6707,-1.656,-1.6273,-1.6273,-1.6119,-1.5825,-1.5635,-1.5635,-1.5737,-1.5439,-1.5439,-1.5825,-1.5635,-1.4854,-1.3878,-1.3878,-1.3108,-1.1945,-1.1945,-1.1945,-1.1945,0.0,0.0,0.0,0.0,0.0,0.0,0.0,0.0,0.0,0.0,-0.9843,-0.9771,0.0,0.0,0.0,0.0,0.0,0.0,0.0,0.0,0.0,-0.6473,-0.5784,-0.5092,-0.442,-0.396,-0.3764,-0.371,-0.3255,-0.306,-0.3181,-0.276,-0.2441,-0.2306,-0.1839,-0.1023,0.0136,0.0682,0.1225,0.1694,0.1898,0.2034,0.217,0.1626,0.0,0.0,0.0074,-0.1152,-0.2348,-0.3458,-0.4066,-0.4595,-0.5798,-0.6097,-0.6025,-0.6183,-0.62,-0.622,-0.6298,-0.6403,-0.6549,-0.6702,-0.6943,-0.7002,-0.6788,-0.6926,0.0,-0.6138,-0.6196,-0.6156,-0.5871,-0.6133,-0.6554,-0.7031,0.0,0.0,0.0,0.0,-0.9335,0.0,0.0,0.0,-1.3277,-1.3404,0.0,0.0,-1.5857,-1.6404,-1.7556,-1.7662,-1.7555,-1.7315,-1.6967,-1.676,-1.6707,-1.6707,-1.656,-1.6273,-1.6273,-1.6119,-1.573,-1.4752,-1.4752,-1.5635,-1.3494,-1.3788,-1.573,-1.4657,-1.407,-1.3878,-1.3878,-1.3108,-1.1945,-1.1945,-1.1945,-1.1945,0.0,0.0,0.0,0.0,0.0,0.0,0.0,-1.0908,-1.0825,-1.0794,-1.0691,-1.0349,-0.9663,-0.9875,-0.9926,0.0,0.0,0.0,0.0,0.0,0.0,-0.7216,-0.6657,-0.6007,-0.5151,-0.4753,-0.4335,-0.3958,0.0,-0.3374,-0.3289,-0.2939,-0.2758,-0.2622,-0.2353,-0.1613,-0.0538,-0.0202,0.0538,0.148,0.1681,0.1614,0.1412,0.1143,0.0,0.0,-0.0216,-0.133,-0.2725,-0.3181,-0.3919,-0.4919,-0.6051,-0.6315,-0.6338,-0.6338,-0.6338,-0.6338,-0.6338,-0.6312,-0.6417,-0.6644,-0.6807,-0.6777,-0.6225,0.0,-0.6409,-0.5565,-0.5592,-0.5798,-0.5744,-0.6012,-0.6409,-0.6623,0.0,0.0,0.0,0.0,0.0,0.0,0.0,0.0,0.0,-1.1662,-1.2309,-1.4011,-1.4041,-1.5141,-1.7457,-1.7442,-1.7221,-1.6927,-1.6633,-1.6406,-1.6253,-1.6246,-1.6179,-1.6046,-1.6046,-1.5569,-1.4758,-1.4166,-1.3878,-1.3692,-1.2431,-1.2624,-1.3692,-1.3108,-1.2425,-1.1843,-1.1843,-1.1068,-0.9899,-0.9899,-0.9899,-0.9899,0.0,0.0,0.0,0.0,0.0,0.0,0.0,-1.1124,-1.1154,-1.1462,-1.1399,-1.0967,-0.9935,-1.0118,-1.018,0.0,0.0,0.0,0.0,0.0,0.0,0.0,-0.7521,-0.6917,-0.5984,0.0,0.0,-0.4385,-0.4172,0.0,0.0,0.0,0.0,0.0,-0.2889,-0.2284,-0.1276,-0.1075,-0.0269,0.0,0.0,0.0807,0.047,0.0,0.0,0.0,0.0,-0.1637,-0.2931,-0.2892,-0.3676,-0.4823,-0.5632,-0.5934,-0.6013,-0.6046,-0.6079,-0.619,-0.6298,-0.6329,-0.642,-0.6681,-0.6749,-0.6528,-0.5786,-0.5818,-0.5871,-0.5058,-0.5207,-0.5463,-0.5644,-0.5989,-0.6156,-0.6273,-0.682,-0.7267,0.0,0.0,0.0,0.0,0.0,0.0,-0.9855,-0.9973,0.0,-1.2406,-1.2698,-1.4001,-1.6834,-1.7071,-1.6921,-1.662,-1.6326,-1.5963,-1.5439,-1.5439,-1.5439,-1.5439,-1.5146,-1.4561,-1.3878,-1.3295,-1.2619,-1.1853,-1.1263,-1.1361,-1.1853,-1.1658,-1.0877,-0.9998,-0.9998,-0.9217,-0.8038,-0.8038,-0.8038,-0.8038,0.0,0.0,0.0,0.0,0.0,0.0,0.0,-1.1469,-1.1473,-1.1576,-1.1707,-1.1687,-1.1345,-1.078,-1.0421,0.0,0.0,0.0,0.0,0.0,0.0,0.0,0.0,0.0,0.0,0.0,0.0,-0.5712,-0.5074,0.0,0.0,0.0,0.0,0.0,0.0,-0.2753,-0.2013,-0.1814,0.0,0.0,0.0,0.0,0.0,0.0,0.0,0.0,0.0,-0.242,-0.2767,0.0,0.0,-0.3783,-0.4458,-0.4899,-0.514,-0.5262,0.0,0.0,-0.6337,-0.6556,-0.6702,-0.6865,-0.6909,-0.6655,-0.5809,-0.5818,-0.5871,-0.5058,-0.5207,-0.5463,-0.5644,-0.5744,-0.5874,-0.6259,-0.6388,-0.6671,-0.7395,0.0,0.0,0.0,0.0,0.0,-0.8456,-0.847,-0.9145,-1.0755,-1.2098,-1.3443,-1.5023,-1.6137,-1.6613,-1.6326,-1.6025,-1.5267,-1.407,-1.407,-1.407,-1.407,-1.2813,-1.2813,-1.3776,-1.1453,-1.0872,-1.175,-0.941,-0.9702,-1.1848,-1.0681,-1.0096,-0.9998,-0.9998,-0.9217,-0.8038,-0.8038,-0.8038,-0.8038,0.0,0.0,0.0,0.0,0.0,0.0,-1.1728,-1.1528,-1.1464,-1.1684,-1.1602,-1.155,-1.167,-1.1063,-1.0646,-1.0584,0.0,0.0,0.0,0.0,0.0,0.0,0.0,0.0,0.0,0.0,-0.6676,-0.6207,-0.5841,0.0,0.0,0.0,0.0,0.0,0.0,-0.3426,-0.3023,-0.2891,0.0,0.0,0.0,0.0,0.0,0.0,0.0,0.0,0.0,0.0,-0.286,-0.3169,0.0,0.0,-0.3464,-0.379,0.0,0.0,-0.5375,-0.5665,-0.6354,-0.6583,-0.6736,-0.6892,-0.6691,-0.6285,-0.5698,-0.5451,-0.5241,-0.4874,-0.4983,-0.528,-0.5644,-0.5733,-0.5749,-0.5888,-0.6318,-0.6676,-0.6973,0.0,0.0,0.0,0.0,0.0,0.0,0.0,-0.8352,-0.9008,-1.0621,-1.1671,-1.1919,-1.3336,-1.4377,-1.5066,-1.4799,-1.4364,-1.3878,-1.3878,-1.3488,-1.2716,-1.2139,-1.175,-1.1551,-1.0485,-0.9801,-0.9509,-0.8428,-0.8627,-0.9505,-0.9019,-0.8825,-0.8825,-0.8825,-0.8432,-0.8038,-0.8038,-0.8038,-0.8038,0.0,0.0,0.0,0.0,0.0,-1.1927,-1.1877,-1.1619,-1.1566,-1.179,-1.1522,-1.1448,-1.1799,-1.1374,-1.0995,-1.0927,-1.0417,0.0,0.0,0.0,0.0,0.0,0.0,0.0,0.0,0.0,-0.7279,-0.6776,-0.6582,-0.6169,0.0,0.0,-0.5153,-0.4631,0.0,0.0,0.0,0.0,0.0,0.0,0.0,0.0,0.0,0.0,0.0,0.0,0.0,0.0,0.0,0.0,0.0,0.0,0.0,0.0,-0.3603,0.0,-0.5008,-0.5506,-0.6112,-0.6565,-0.6858,-0.6963,-0.6537,-0.6002,-0.563,-0.5212,-0.4832,-0.4725,-0.4865,-0.5188,-0.573,-0.5822,-0.5819,-0.5908,-0.6337,-0.6681,-0.6995,-0.7546,0.0,0.0,0.0,-0.8412,0.0,-0.8989,-0.9114,-0.9114,-1.0335,-1.0768,-1.0015,-1.1109,-1.2277,-1.3554,-1.3385,-1.3102,-1.2711,-1.2716,-1.2231,-1.1361,-1.0974,-1.0485,-0.9998,-0.9608,-0.8924,-0.8038,-0.8038,-0.8038,-0.8038,-0.8038,-0.8038,-0.8038,-0.8038,-0.8038,-0.8038,-0.8038,-0.8038,-0.8038,0.0,0.0,0.0,0.0,0.0,0.0,-1.1728,-1.1819,-1.1861,-1.179,-1.1682,-1.1718,-1.1967,-1.172,-1.1382,-1.1115,-1.0308,0.0,0.0,0.0,0.0,0.0,0.0,0.0,0.0,0.0,-0.7738,-0.7601,-0.7399,-0.699,-0.6396,-0.6396,-0.6009,-0.5362,0.0,0.0,0.0,0.0,0.0,0.0,0.0,0.0,-0.3904,0.0,0.0,0.0,0.0,0.0,0.0,0.0,0.0,0.0,0.0,-0.358,-0.3244,-0.3611,-0.4284,-0.5029,-0.5713,-0.646,-0.7136,-0.7139,-0.6682,-0.612,-0.565,-0.5212,-0.4832,-0.4725,-0.4865,-0.5188,-0.5994,-0.6083,-0.6171,-0.6343,-0.6432,-0.6748,-0.7524,-0.7909,0.0,0.0,0.0,-0.9251,-0.9979,-1.1139,-1.1848,-1.1848,-1.1853,-1.137,-1.0096,-0.9998,-1.0587,-1.1853,-1.195,-1.1361,-1.0096,-0.9998,-0.9998,-0.9998,-0.8627,-0.8726,-0.9998,-0.8627,-0.8038,-0.8038,-0.8038,-0.8038,-0.8038,-0.8038,-0.8038,-0.8038,-0.8038,-0.8038,-0.8038,-0.8038,-0.8038,-0.8038,0.0,0.0,0.0,0.0,0.0,0.0,0.0,-1.2126,-1.1922,-1.1643,-1.1405,-1.1241,-1.1096,-1.0999,-1.0841,-1.0584,-1.0498,0.0,0.0,0.0,0.0,0.0,0.0,0.0,0.0,0.0,-0.7988,-0.8161,-0.7923,-0.767,-0.7521,-0.7381,-0.699,-0.6404,-0.6067,-0.5741,0.0,0.0,0.0,0.0,0.0,-0.4715,-0.4745,0.0,0.0,0.0,0.0,0.0,0.0,0.0,0.0,0.0,0.0,0.0,0.0,-0.3944,-0.4164,-0.4579,-0.5162,-0.5612,-0.5877,-0.5969,-0.556,-0.5131,-0.5096,-0.4707,-0.4493,-0.4858,-0.5152,-0.5455,-0.5977,-0.6169,-0.652,-0.7048,-0.7397,-0.7852,-0.8613,0.0,0.0,0.0,-1.1014,-1.1356,0.0,0.0,-1.1945,-1.1945,-1.1945,-1.1365,-1.0096,-0.9998,-1.0194,-1.0583,-1.0583,-1.0386,-0.9998,-0.9998,-0.9509,-0.8627,-0.8237,-0.8233,-0.863,-0.8237,-0.8038,-0.8038,-0.8038,-0.8038,-0.8038,-0.8038,-0.8038,-0.8038,-0.8038,-0.8038,-0.8038,-0.8038,-0.8038,-0.8038,0.0,0.0,0.0,0.0,0.0,0.0,0.0,-1.248,-1.2224,-1.1778,-1.1578,-1.1326,-1.0972,-1.0871,-1.0718,-1.047,-1.0646,0.0,0.0,0.0,0.0,0.0,0.0,0.0,0.0,-0.8321,-0.8322,-0.8569,-0.844,-0.8309,-0.8312,-0.8172,-0.7847,-0.7321,-0.699,-0.6662,0.0,0.0,0.0,0.0,-0.5488,-0.5422,-0.5422,0.0,0.0,0.0,0.0,0.0,0.0,0.0,0.0,0.0,0.0,0.0,0.0,0.0,-0.4974,-0.4986,-0.5092,-0.5331,-0.554,-0.5587,-0.5197,-0.4867,-0.4869,-0.4661,-0.4622,-0.5347,-0.5749,-0.6159,-0.6858,-0.7224,-0.7658,-0.8185,-0.8619,-0.9078,-0.9948,0.0,0.0,0.0,0.0,0.0,0.0,-1.3058,-1.3397,-1.3397,-1.3397,-1.2818,-1.1551,-1.097,-1.0485,-0.9998,-0.9509,-0.9217,-0.9217,-0.9217,-0.8821,-0.8038,-0.8038,-0.8038,-0.8038,-0.8038,-0.8038,-0.8038,-0.8038,-0.8038,0.0,-0.8038,-0.8038,-0.8038,-0.8038,-0.8038,-0.8038,-0.8038,-0.8038,-0.8038,0.0,0.0,0.0,0.0,0.0,0.0,0.0,-1.2871,-1.2725,-1.2175,-1.2126,-1.1927,-1.1368,-1.1226,-1.1023,-1.0769,0.0,0.0,0.0,0.0,0.0,0.0,0.0,0.0,-0.8804,-0.8683,-0.8727,-0.8872,-0.8896,-0.8856,-0.8807,-0.8807,-0.8554,-0.8112,-0.7907,-0.7451,0.0,0.0,0.0,0.0,-0.602,-0.602,0.0,0.0,0.0,0.0,0.0,0.0,0.0,0.0,0.0,0.0,0.0,0.0,0.0,0.0,0.0,0.0,0.0,-0.5553,-0.5913,-0.5803,-0.5586,-0.5267,-0.5111,-0.4951,0.0,-0.6019,-0.6563,-0.7278,-0.8345,-0.8965,-0.9318,-0.9666,-0.9836,-1.0348,-1.1373,-1.1815,0.0,0.0,-1.3662,0.0,-1.405,-1.5055,-1.5798,-1.5798,-1.5798,-1.5203,-1.3915,-1.27,-1.1356,-0.9976,-0.8817,-0.8137,-0.8038,-0.8038,-0.8038,-0.8038,-0.8038,-0.8038,-0.8038,-0.8038,-0.8038,-0.8038,-0.8038,-0.8031,-0.8024,-0.8024,-0.8024,-0.8024,-0.8024,-0.8031,-0.8038,-0.8038,-0.8038,-0.8038,0.0,0.0,0.0,0.0,0.0,0.0,0.0,0.0,0.0,0.0,-1.2431,-1.2175,-1.1528,-1.1427,-1.1326,0.0,0.0,0.0,0.0,0.0,0.0,0.0,0.0,0.0,-0.8956,-0.9024,-0.8984,-0.8827,-0.894,-0.8992,-0.9036,-0.9036,-0.9023,-0.9017,-0.8753,-0.8366,0.0,0.0,0.0,0.0,-0.7335,-0.7269,0.0,0.0,0.0,0.0,-0.7184,-0.7197,0.0,0.0,0.0,0.0,0.0,0.0,0.0,0.0,-0.6832,-0.6814,-0.6721,0.0,-0.6083,-0.6074,-0.6165,-0.6218,0.0,-0.6414,-0.6552,-0.7233,0.0,-0.8174,-0.8738,-0.9307,-0.9927,-1.0544,-1.0804,-1.1402,-1.2622,0.0,0.0,0.0,-1.5136,-1.5412,-1.4578,-1.514,-1.5498,-1.5498,-1.5498,-1.483,-1.3297,-1.3377,-1.2245,-0.9694,-0.9535,-0.9019,-0.8038,-0.8038,-0.8038,-0.8038,-0.8038,-0.8038,-0.8038,-0.8038,-0.8038,-0.8038,-0.8038,-0.7974,-0.7865,-0.7865,-0.7865,-0.7865,-0.7865,-0.7936,-0.8038,-0.8038,-0.8038,-0.8038,0.0,0.0,0.0,0.0,0.0,0.0,0.0,0.0,0.0,0.0,0.0,0.0,0.0,0.0,0.0,0.0,0.0,0.0,0.0,0.0,0.0,0.0,0.0,-0.9836,-0.948,-0.951,-0.9505,-0.9342,-0.9415,-0.9464,-0.9537,-0.9537,-0.9509,-0.9543,-0.9157,-0.8823,0.0,0.0,0.0,-0.8252,-0.8122,0.0,0.0,0.0,0.0,0.0,-0.7966,-0.7936,0.0,-0.8108,-0.8074,-0.7989,0.0,0.0,0.0,0.0,-0.809,-0.8173,-0.8286,-0.7356,-0.6408,-0.6496,-0.6637,-0.674,-0.6898,-0.7126,-0.7521,0.0,0.0,-0.9377,-0.9732,-1.066,-1.1408,-1.1459,-1.2135,-1.2897,0.0,0.0,0.0,0.0,-1.4995,-1.5245,0.0,-1.511,-1.5144,-1.5003,-1.5124,-1.4786,-1.3767,-1.3591,-1.2802,-1.118,-1.0161,-0.915,-0.8038,-0.8038,-0.8004,-0.7936,-0.8007,-0.8004,-0.7936,-0.8007,-0.8038,-0.8038,-0.8038,-0.7991,-0.7916,-0.7916,-0.7916,-0.7909,-0.7838,-0.7906,-0.8031,-0.796,-0.798,-0.8038,0.0,0.0,0.0,0.0,0.0,0.0,0.0,0.0,0.0,0.0,0.0,0.0,0.0,0.0,0.0,0.0,0.0,0.0,0.0,0.0,0.0,0.0,0.0,-1.0419,-1.0102,-1.012,-1.01,-0.9984,-1.0023,-0.9995,-0.9987,-0.9985,-0.9964,-0.9888,-0.9427,-0.921,0.0,0.0,-0.8826,-0.8826,-0.8761,0.0,0.0,0.0,0.0,0.0,0.0,0.0,0.0,-0.8446,-0.8656,-0.9014,-0.9062,0.0,0.0,0.0,0.0,0.0,-0.9695,-0.8489,-0.7275,-0.7315,-0.7382,-0.7405,-0.7403,0.0,0.0,0.0,0.0,0.0,0.0,-1.2157,0.0,-1.2266,-1.3324,0.0,0.0,0.0,0.0,-1.4415,-1.4381,0.0,-1.481,-1.487,-1.479,-1.4536,-1.4716,-1.4723,-1.4469,-1.364,-1.314,-1.296,-1.0982,-0.9304,-0.816,-0.8089,-0.7929,-0.778,-0.7957,-0.7946,-0.7784,-0.7936,-0.8004,-0.8004,-0.8004,-0.8004,-0.8004,-0.8004,-0.7991,-0.7963,-0.7851,-0.7889,-0.7991,-0.7885,-0.7913,-0.8004,0.0,0.0,0.0,0.0,0.0,0.0,0.0,0.0,0.0,0.0,0.0,0.0,0.0,0.0,0.0,0.0,0.0,0.0,0.0,0.0,0.0,-1.1843,-1.1182,-1.0769,-1.0616,-1.0716,-1.0534,-0.9993,-0.9986,-0.9945,-0.9847,-1.0002,-1.0139,-1.0242,-1.0401,-1.0238,-0.9682,-0.9896,-1.012,-1.0377,-0.9868,0.0,0.0,0.0,0.0,0.0,0.0,0.0,0.0,-0.9072,-0.9237,-0.9507,-0.941,0.0,0.0,0.0,0.0,0.0,-1.0143,-0.9865,-0.965,-0.9471,-0.9576,-0.9694,-0.973,-0.9761,0.0,0.0,0.0,0.0,0.0,0.0,0.0,0.0,0.0,-1.4211,0.0,0.0,-1.4933,-1.4313,0.0,-1.4628,-1.4005,-1.4356,-1.4569,-1.4522,-1.4335,-1.4202,-1.4155,-1.4249,-1.3774,-1.2697,-1.2536,-1.1395,-0.9149,-0.8257,-0.7773,-0.7634,-0.7909,-0.7896,-0.7638,-0.778,-0.7845,-0.7845,-0.7845,-0.7845,-0.7845,-0.7845,-0.7777,-0.7678,-0.7773,-0.7824,-0.7858,-0.7967,-0.7936,-0.7845,0.0,0.0,0.0,0.0,0.0,0.0,0.0,0.0,0.0,0.0,0.0,0.0,0.0,0.0,0.0,0.0,0.0,0.0,0.0,0.0,0.0,-1.2307,-1.1887,-1.1439,-1.1032,-1.1074,-1.0964,-1.0694,-1.0651,-1.0673,-1.0763,-1.0838,-1.0826,-1.0807,-1.0913,-1.0737,-1.0441,-1.0797,-1.1048,-1.12,0.0,0.0,0.0,0.0,0.0,0.0,0.0,0.0,0.0,0.0,-0.9606,-0.9974,-0.9708,0.0,0.0,0.0,0.0,0.0,-1.0513,-1.0582,-1.0672,-1.0708,-1.0501,-1.0408,-1.075,-1.0962,0.0,0.0,0.0,0.0,0.0,0.0,0.0,0.0,0.0,-1.4317,-1.4916,-1.4711,-1.4414,0.0,0.0,-1.421,-1.403,-1.4123,-1.4222,-1.4062,-1.4068,-1.4015,-1.3854,-1.3975,-1.3854,-1.3397,-1.2146,-1.0973,-1.0023,-0.8409,-0.7539,-0.7478,-0.7699,-0.7689,-0.7485,-0.7709,-0.777,-0.7706,-0.7865,-0.7845,-0.7709,-0.7868,-0.7801,-0.7614,-0.7756,-0.7763,-0.7706,-0.7777,-0.7756,-0.7695,0.0,0.0,0.0,0.0,0.0,0.0,0.0,0.0,0.0,0.0,0.0,0.0,0.0,0.0,0.0,0.0,0.0,0.0,0.0,0.0,-1.3286,-1.3019,-1.2715,-1.2228,-1.1575,-1.1506,-1.1558,-1.1696,-1.1541,-1.1633,-1.1906,-1.1773,-1.1644,-1.1436,-1.1497,-1.1401,-1.1361,-1.1761,-1.2072,-1.2225,0.0,0.0,0.0,0.0,0.0,0.0,0.0,0.0,0.0,0.0,0.0,0.0,0.0,0.0,0.0,-1.0645,-1.0738,-1.0887,-1.0887,-1.1037,-1.1248,-1.1329,-1.0943,-1.0718,-1.1395,-1.1698,0.0,0.0,0.0,0.0,0.0,0.0,0.0,0.0,-1.4731,-1.4379,-1.501,-1.4469,-1.4018,-1.4188,-1.3959,-1.3919,-1.4088,-1.4088,-1.3988,-1.3768,-1.3895,-1.3915,-1.3754,-1.3681,-1.3748,-1.3975,-1.1865,-1.0668,-1.053,-0.8653,-0.7587,-0.7319,-0.7543,-0.7553,-0.738,-0.7641,-0.7702,-0.7611,-0.7801,-0.7777,-0.7617,-0.7845,-0.7784,-0.7563,-0.7743,-0.7743,-0.7648,-0.7648,-0.7648,-0.7645,0.0,0.0,0.0,0.0,0.0,0.0,0.0,0.0,0.0,0.0,0.0,0.0,0.0,0.0,0.0,0.0,0.0,0.0,0.0,0.0,-1.4494,-1.4465,-1.3662,-1.2905,-1.2245,-1.2245,-1.2414,-1.2768,-1.2659,-1.2629,-1.2729,-1.2539,-1.2254,-1.195,-1.2597,-1.2664,-1.2337,-1.2742,-1.3413,-1.4114,-1.3237,0.0,0.0,0.0,0.0,0.0,0.0,0.0,0.0,0.0,0.0,0.0,0.0,0.0,-1.0725,-1.0965,-1.1037,-1.1111,-1.1111,-1.1335,-1.1569,-1.1389,-1.1019,-1.0937,-1.1948,-1.179,0.0,-1.2431,0.0,0.0,0.0,0.0,0.0,-1.4202,-1.421,-1.4451,-1.5284,0.0,-1.4489,-1.4489,-1.4249,-1.4088,-1.4088,-1.4088,-1.4082,-1.4055,-1.3821,-1.3788,-1.4041,-1.3794,-1.3572,-1.3674,-1.2704,-1.1516,-1.0223,-0.9243,-0.8208,-0.7163,-0.759,-0.7648,-0.7377,-0.7539,-0.7607,-0.7594,-0.7472,-0.7489,-0.76,-0.7624,-0.7536,-0.7414,-0.7699,-0.7804,-0.7794,-0.7794,-0.7794,-0.7777,0.0,0.0,0.0,0.0,0.0,0.0,0.0,0.0,0.0,0.0,0.0,0.0,0.0,0.0,0.0,0.0,0.0,0.0,0.0,-1.5461,-1.5276,-1.5074,-1.4463,-1.3978,-1.3763,-1.3195,-1.2987,-1.3132,-1.3191,-1.3169,-1.3046,-1.3211,-1.3142,-1.2842,-1.3147,-1.3161,-1.3016,-1.3721,-1.4189,-1.4488,-1.4174,-1.4151,0.0,0.0,0.0,0.0,0.0,0.0,0.0,0.0,-1.2296,-1.236,-1.2013,-1.1935,-1.1917,-1.1844,-1.1855,-1.1781,-1.1558,-1.1558,-1.1717,-1.1859,-1.1647,0.0,0.0,-1.2306,-1.229,-1.2253,-1.2778,0.0,0.0,0.0,-1.4482,-1.4389,-1.4515,-1.4781,-1.5097,-1.4937,-1.473,-1.4543,-1.4262,-1.4088,-1.4088,-1.3921,-1.3888,-1.4075,-1.3981,-1.3968,-1.4082,-1.3808,-1.3385,-1.2782,-1.1618,-1.0447,-0.9279,-0.8273,-0.753,-0.701,-0.7272,-0.7336,-0.7231,-0.7387,-0.7407,-0.7322,-0.7455,-0.7438,-0.7329,-0.7519,-0.7455,-0.7248,-0.7458,-0.7597,-0.7678,-0.7678,-0.7678,-0.7672,0.0,0.0,0.0,0.0,0.0,0.0,0.0,0.0,0.0,0.0,0.0,0.0,0.0,0.0,0.0,0.0,0.0,0.0,-1.6351,-1.6269,-1.6028,-1.572,-1.5263,-1.5037,-1.5037,-1.4307,-1.3895,-1.3681,-1.3766,-1.3727,-1.3579,-1.3767,-1.37,-1.345,-1.358,-1.364,-1.3672,-1.4367,-1.4767,-1.4921,-1.5002,-1.5031,0.0,0.0,0.0,0.0,0.0,0.0,0.0,0.0,-1.3286,-1.3212,-1.3048,-1.2863,-1.2699,-1.2649,-1.2451,-1.2164,-1.1872,-1.1866,-1.2005,-1.1932,-1.2124,0.0,-1.2143,-1.268,-1.3021,-1.2609,-1.2975,-1.3428,-1.3513,0.0,0.0,0.0,-1.4556,-1.4689,-1.4689,-1.4522,-1.4335,-1.4128,-1.3935,-1.3808,-1.3808,-1.3627,-1.3594,-1.3794,-1.3895,-1.3948,-1.3948,-1.3496,-1.2881,-1.2204,-1.0611,-0.9331,-0.8518,-0.7457,-0.6953,-0.6858,-0.6956,-0.7075,-0.7217,-0.7322,-0.7312,-0.7221,-0.7383,-0.7336,-0.7156,-0.7366,-0.736,-0.7227,-0.7383,-0.7506,-0.7611,-0.7702,-0.7709,-0.7665,0.0,0.0,0.0,0.0,0.0,0.0,0.0,0.0,0.0,0.0,0.0,0.0,0.0,0.0,0.0,0.0,0.0,0.0,-1.7523,-1.7088,-1.6751,-1.6627,-1.6161,-1.5931,-1.5931,-1.5584,-1.5128,-1.4515,-1.4387,-1.4336,-1.4267,-1.4079,-1.395,-1.383,-1.395,-1.4101,-1.4299,-1.4737,-1.5178,-1.5698,-1.5739,-1.5903,-1.6061,0.0,0.0,0.0,0.0,0.0,0.0,0.0,-1.466,-1.3932,-1.4007,-1.36,-1.3116,-1.3216,-1.2741,-1.2161,-1.2013,-1.2283,-1.2473,-1.1358,-1.2047,0.0,-1.2077,-1.2972,-1.3897,-1.3627,-1.3552,-1.3721,-1.4021,-1.4075,0.0,-1.4075,-1.4075,-1.4082,-1.4082,-1.3574,-1.3213,-1.3213,-1.3206,-1.3206,-1.3213,-1.3206,-1.3206,-1.3213,-1.348,-1.3559,-1.3559,-1.2788,-1.212,-1.1869,-0.9774,-0.8518,-0.8164,-0.7188,-0.6702,-0.6698,-0.6702,-0.6932,-0.7363,-0.7363,-0.7363,-0.7356,-0.7204,-0.7139,-0.7139,-0.7139,-0.7231,-0.7383,-0.7539,-0.7597,-0.7634,-0.7926,-0.794,-0.7811,0.0,0.0,0.0,0.0,0.0,0.0,0.0,0.0,0.0,0.0,0.0,0.0,0.0,0.0,0.0,0.0,0.0,0.0,-1.7656,-1.7479,-1.7368,-1.7245,-1.6797,-1.6513,-1.64,-1.5989,-1.541,-1.4666,-1.4834,-1.4784,-1.4455,-1.4387,-1.4267,-1.4148,-1.4267,-1.433,-1.4344,-1.4853,-1.5314,-1.5695,-1.59,-1.6094,-1.6202,0.0,0.0,0.0,0.0,0.0,0.0,0.0,0.0,0.0,-1.5283,-1.5018,-1.4734,-1.4656,-1.4474,-1.4253,-1.3882,-1.3353,0.0,-1.3001,-1.2814,0.0,0.0,-1.3084,0.0,0.0,-1.2999,-1.2792,-1.3086,-1.3327,0.0,-1.318,-1.3327,-1.3474,-1.3474,-1.332,-1.3213,-1.3213,-1.3019,-1.2973,-1.3186,-1.3013,-1.2973,-1.3193,-1.3287,-1.3013,-1.2271,-1.2093,-1.1272,-0.9471,-0.895,-0.8122,-0.702,-0.6808,-0.6647,-0.6539,-0.6651,-0.677,-0.6898,-0.6898,-0.6898,-0.6902,-0.6963,-0.6993,-0.7,-0.7099,-0.7166,-0.7224,-0.738,-0.7441,-0.7461,-0.7658,-0.7702,-0.7678,0.0,0.0,0.0,0.0,0.0,0.0,0.0,0.0,0.0,0.0,0.0,0.0,0.0,0.0,0.0,0.0,0.0,0.0,0.0,-1.7931,-1.781,-1.7634,-1.7312,-1.7032,-1.674,-1.6616,-1.6104,-1.5235,-1.5235,-1.4951,-1.4515,-1.4565,-1.4616,-1.4666,-1.4793,-1.4902,-1.493,-1.5224,-1.5635,-1.5974,-1.6072,-1.6269,-1.6551,0.0,0.0,0.0,0.0,0.0,0.0,0.0,0.0,0.0,-1.6114,-1.5965,-1.5774,-1.5632,-1.5278,-1.4861,-1.4854,-1.4348,0.0,-1.4114,-1.4029,-1.4029,-1.4383,0.0,0.0,0.0,-1.3943,-1.3264,-1.3334,-1.3201,0.0,-1.2856,-1.2806,-1.2852,-1.2852,-1.2752,-1.2632,-1.2512,-1.2338,-1.2298,-1.2485,-1.2438,-1.2472,-1.2665,-1.2893,-1.2622,-1.1587,-1.1249,-1.0285,-0.8599,-0.8073,-0.7417,-0.6563,-0.6539,-0.6478,-0.639,-0.6481,-0.6525,-0.6529,-0.6647,-0.6702,-0.6705,-0.68,-0.6871,-0.6936,-0.7021,-0.7088,-0.7156,-0.7312,-0.737,-0.739,-0.7543,-0.76,-0.7611,0.0,0.0,0.0,0.0,0.0,0.0,0.0,0.0,0.0,0.0,0.0,0.0,0.0,0.0,0.0,0.0,0.0,0.0,0.0,0.0,-1.8084,-1.7963,-1.781,-1.7534,-1.7067,-1.7357,-1.7078,-1.6171,-1.5584,-1.5069,-1.4625,-1.4775,-1.4942,-1.5284,-1.541,-1.5584,-1.5904,-1.584,-1.6094,-1.6485,-1.6431,-1.6649,-1.6968,-1.6751,0.0,0.0,0.0,0.0,0.0,0.0,0.0,0.0,-1.6542,-1.6473,-1.6342,-1.6342,-1.5556,-1.4737,-1.5358,-1.53,0.0,0.0,-1.5618,0.0,-1.5404,-1.5505,-1.5965,-1.656,0.0,-1.434,-1.4022,-1.3222,-1.2701,-1.2701,-1.2398,-1.2225,-1.2225,-1.1997,-1.173,-1.1456,-1.1423,-1.1423,-1.1423,-1.167,-1.183,-1.1759,-1.2244,-1.2094,-1.0887,-1.0163,-0.9327,-0.8527,-0.7171,-0.6532,-0.6661,-0.6393,-0.6338,-0.6338,-0.6338,-0.6338,-0.6271,-0.6539,-0.6668,-0.6681,-0.6695,-0.6787,-0.6929,-0.6943,-0.7024,-0.7153,-0.7295,-0.735,-0.7366,-0.7506,-0.7556,-0.756,0.0,0.0,0.0,0.0,0.0,0.0,0.0,0.0,0.0,0.0,0.0,0.0,0.0,0.0,0.0,0.0,0.0,0.0,0.0,0.0,-1.841,-1.8313,-1.8084,-1.792,-1.7733,-1.7799,-1.7457,-1.6786,-1.6446,-1.6056,-1.5584,-1.5642,-1.57,-1.5758,-1.5758,-1.5816,-1.5884,-1.5858,-1.6287,-1.7014,-1.6987,-1.7229,-1.7501,-1.7501,-1.7235,0.0,0.0,0.0,0.0,0.0,0.0,0.0,-1.683,-1.683,-1.676,-1.676,-1.6702,-1.6642,-1.6734,-1.6256,0.0,0.0,-1.6235,-1.6417,-1.589,-1.6391,-1.6464,-1.4517,-1.3805,-1.3263,-1.2179,-1.185,-1.171,-1.171,-1.1657,-1.1617,-1.1617,-1.1563,-1.1496,-1.143,-1.1423,-1.1423,-1.1423,-1.1483,-1.124,-1.0539,-1.0643,-1.0001,-0.8347,-0.825,-0.784,-0.6871,-0.6607,-0.6434,-0.6356,-0.6291,-0.6338,-0.6338,-0.6338,-0.6338,-0.6342,-0.6325,-0.6417,-0.6529,-0.6647,-0.6787,-0.6939,-0.7048,-0.7112,-0.7143,-0.7177,-0.719,-0.7193,-0.7227,-0.7238,-0.7258,0.0,0.0,0.0,0.0,0.0,0.0,0.0,0.0,0.0,0.0,0.0,0.0,0.0,0.0,0.0,0.0,0.0,0.0,0.0,0.0,-1.8625,-1.8518,-1.841,-1.829,-1.8127,-1.8139,-1.7963,-1.7512,-1.7412,-1.6899,-1.6093,-1.6218,-1.6275,-1.6436,-1.6503,-1.6616,-1.6729,-1.6503,-1.6909,-1.7637,-1.7378,-1.7596,-1.8104,-1.8104,-1.791,-1.7638,-1.7579,0.0,0.0,0.0,0.0,0.0,0.0,0.0,-1.7185,-1.7038,-1.6968,-1.6992,-1.7316,0.0,0.0,-1.6986,0.0,-1.7229,-1.6945,-1.6816,-1.6211,-1.4201,-1.3703,-1.3323,-1.2128,-1.1484,-1.1223,-1.1223,-1.1223,-1.1223,-1.1223,-1.1223,-1.1169,-1.1029,-1.0672,-1.0406,-1.0406,-1.011,-0.9769,-0.9291,-0.9397,-0.8881,-0.7496,-0.7537,-0.7235,-0.6335,-0.6332,-0.6369,-0.6363,-0.6295,-0.6224,-0.6149,-0.6149,-0.6149,-0.6152,-0.6227,-0.6302,-0.6376,-0.6458,-0.6573,-0.6715,-0.679,-0.6865,-0.6936,-0.701,-0.7041,-0.7048,-0.7115,-0.7139,-0.7149,0.0,0.0,0.0,0.0,0.0,0.0,0.0,0.0,0.0,0.0,0.0,0.0,0.0,0.0,0.0,0.0,0.0,0.0,0.0,0.0,0.0,-1.8774,-1.8721,-1.8625,-1.8476,-1.8476,-1.8367,-1.8193,-1.8193,-1.7678,0.0,0.0,-1.6965,-1.7179,-1.7301,-1.7534,-1.7767,-1.7445,-1.7694,-1.8323,-1.8029,-1.8235,-1.871,-1.8767,-1.8767,-1.8643,-1.8519,-1.8529,-1.8452,-1.8046,0.0,0.0,0.0,0.0,-1.7529,-1.7304,-1.7069,-1.6949,-1.7483,0.0,-1.7178,-1.7852,-1.8008,0.0,-1.792,-1.693,-1.5623,-1.4459,-1.3991,-1.3427,-1.2322,-1.143,-1.0915,-1.0915,-1.0875,-1.0842,-1.0842,-1.0842,-1.0755,-1.0514,-0.9952,-0.9466,-0.9338,-0.886,-0.8436,-0.8096,-0.8328,-0.8031,-0.7024,-0.7101,-0.6904,-0.6252,-0.6183,-0.6237,-0.6356,-0.624,-0.6118,-0.5989,-0.5989,-0.5989,-0.5996,-0.6152,-0.6237,-0.6264,-0.6288,-0.6363,-0.6474,-0.6502,-0.6586,-0.6712,-0.6841,-0.6905,-0.6943,-0.7061,-0.7119,-0.7139,0.0,0.0,0.0,0.0,0.0,0.0,0.0,0.0,0.0,0.0,0.0,0.0,0.0,0.0,0.0,0.0,0.0,0.0,0.0,0.0,0.0,-1.946,-1.9146,-1.8893,-1.8744,-1.8744,-1.8691,-1.8506,-1.8506,0.0,0.0,0.0,0.0,-1.7975,0.0,-1.7975,-1.8064,0.0,0.0,-1.9261,-1.9677,-1.9742,-1.9639,-1.9944,-1.9683,-1.9233,-1.9288,-1.9344,-1.9278,-1.8834,-1.8633,0.0,0.0,0.0,-1.7647,-1.7638,-1.7599,-1.7571,-1.751,0.0,-1.7648,0.0,-1.8008,-1.791,0.0,0.0,-1.5221,0.0,-1.3108,-1.2243,-1.1044,-1.0742,-1.0678,-1.0678,-1.0401,-1.0234,-1.0234,-1.0234,-1.0221,-1.018,-1.0338,-1.011,-0.9402,-0.9239,-0.8528,-0.7016,-0.6977,-0.6672,-0.5883,-0.5842,-0.5853,-0.5857,-0.5864,-0.5871,-0.5891,-0.5871,-0.5854,-0.583,-0.583,-0.583,-0.5837,-0.5989,-0.6135,-0.6268,-0.639,-0.6454,-0.6481,-0.6614,-0.6681,-0.6702,-0.6722,-0.6814,-0.6929,-0.6949,-0.7034,-0.7139,0.0,0.0,0.0,0.0,0.0,0.0,0.0,0.0,0.0,0.0,0.0,0.0,0.0,0.0,0.0,0.0,0.0,0.0,0.0,0.0,0.0,-1.9708,-1.9552,-1.9356,-1.917,-1.917,-1.9105,-1.904,0.0,0.0,0.0,-1.8881,-1.8679,0.0,0.0,0.0,0.0,0.0,0.0,0.0,0.0,0.0,-2.0295,-2.064,-2.0508,-2.0042,-2.0245,-2.0161,-1.9911,-1.9452,-1.9121,-1.8854,-1.8337,0.0,0.0,0.0,-1.7862,-1.7862,-1.7657,-1.7725,-1.7862,0.0,-1.8008,-1.7959,-1.7773,0.0,-1.4863,-1.4305,-1.2848,-1.1416,-1.0742,-1.0624,-1.0624,-1.0624,-1.0448,-1.0367,-1.0367,-1.0221,-1.0114,-1.0114,-0.9346,-0.8726,-0.8348,-0.7569,-0.6793,-0.6009,-0.5943,-0.5848,-0.5525,-0.5542,-0.5616,-0.5681,-0.5759,-0.58,-0.58,-0.58,-0.5762,-0.5684,-0.5684,-0.5684,-0.5691,-0.5925,-0.6067,-0.6139,-0.6288,-0.6356,-0.6359,-0.6427,-0.6454,-0.6461,-0.6542,-0.6664,-0.681,-0.6898,-0.7017,-0.7139,0.0,0.0,0.0,0.0,0.0,0.0,0.0,0.0,0.0,0.0,0.0,0.0,0.0,0.0,0.0,0.0,0.0,0.0,0.0,0.0,0.0,-2.0055,-1.9901,-1.9708,-1.9512,-1.942,-1.942,0.0,0.0,0.0,-1.942,-1.942,-1.9198,0.0,-1.8905,0.0,0.0,0.0,0.0,0.0,0.0,0.0,0.0,-2.1046,-2.0967,-2.0686,-2.1028,-2.0963,-2.0669,-2.0333,-1.9911,-1.9518,-1.8931,-1.8731,0.0,0.0,0.0,-1.794,-1.7784,-1.7862,-1.794,-1.8008,-1.8008,-1.8008,0.0,0.0,-1.4653,0.0,-1.2661,-1.0902,-1.0678,-1.0624,-1.0624,-1.0624,-1.0557,-1.0448,-1.0448,-1.0063,-0.9743,-0.9743,-0.8488,-0.7525,-0.7332,-0.6323,-0.5624,-0.5425,-0.5428,-0.5428,-0.5428,-0.5471,-0.5532,-0.5532,-0.5633,-0.5691,-0.5694,-0.5698,-0.5644,-0.5542,-0.5542,-0.5542,-0.5549,-0.5734,-0.5855,-0.5942,-0.6162,-0.6338,-0.6338,-0.6338,-0.6338,-0.6271,-0.6376,-0.6512,-0.6661,-0.6814,-0.6963,-0.7092,0.0,0.0,0.0,0.0,0.0,0.0,0.0,0.0,0.0,0.0,0.0,0.0,0.0,0.0,-2.1996,-2.1949,0.0,0.0,0.0,0.0,0.0,-2.0746,-2.0144,0.0,-1.9798,-1.9512,-1.942,0.0,0.0,0.0,-1.942,-1.9512,-1.9512,-1.9368,-1.9368,-1.9662,-2.0147,0.0,0.0,0.0,0.0,0.0,0.0,0.0,-2.0933,-2.0867,-2.1518,-2.1761,-2.1715,-2.1773,-2.1439,-2.0869,-2.0226,-1.9584,-1.9008,0.0,0.0,0.0,-1.8008,-1.7862,-1.7784,-1.794,-1.8008,-1.8008,0.0,0.0,-1.4655,-1.438,-1.257,-1.0902,-1.0678,-1.0624,-1.0624,-1.0624,-1.0321,-1.014,-1.014,-0.9431,-0.8857,-0.8857,-0.8318,-0.7683,-0.6833,-0.665,-0.6268,-0.5491,-0.5428,-0.5428,-0.5428,-0.5435,-0.5439,-0.5439,-0.5449,-0.5389,-0.5399,-0.5413,-0.5413,-0.5406,-0.5406,-0.5406,-0.5413,-0.5431,-0.5574,-0.5814,-0.616,-0.6338,-0.6338,-0.6338,-0.6338,-0.6338,-0.6271,-0.6359,-0.6502,-0.6658,-0.681,-0.6959,0.0,0.0,0.0,0.0,0.0,0.0,0.0,0.0,0.0,0.0,0.0,0.0,0.0,-2.2324,-2.2184,-2.2044,-2.1888,0.0,0.0,0.0,0.0,-2.1068,-2.0925,-2.0656,-2.008,-2.0175,0.0,0.0,0.0,-2.0204,-2.027,-2.0619,-2.0969,-2.1225,-2.0474,-2.0353,-2.0716,-2.1223,0.0,0.0,0.0,0.0,0.0,0.0,0.0,0.0,0.0,0.0,0.0,-2.1675,-2.1277,-2.0973,-1.9954,-1.933,-1.9075,-1.8875,-1.8549,-1.8279,-1.8212,-1.8066,-1.7862,-1.7784,-1.8065,-1.8122,-1.7144,-1.6167,-1.5133,-1.4151,-1.2488,-1.1236,-1.1136,-1.0815,-1.0624,-1.0624,-1.0474,-1.0214,-0.9637,-0.916,-0.8606,-0.8057,-0.7317,-0.6731,-0.6413,-0.6074,-0.5752,-0.5428,-0.5428,-0.5428,-0.5428,-0.5428,-0.5428,-0.5428,-0.5428,-0.5432,-0.5379,-0.5382,-0.484,-0.3689,-0.3689,-0.3689,-0.3692,-0.3659,-0.3704,-0.3855,-0.4104,-0.5055,-0.6301,-0.6287,-0.6266,-0.6281,-0.6268,-0.6352,-0.6414,-0.6539,-0.6712,-0.6936,0.0,0.0,0.0,0.0,0.0,0.0,0.0,0.0,0.0,0.0,0.0,0.0,0.0,0.0,-2.2488,-2.237,-2.2484,-2.2561,-2.2512,-2.2415,-2.2267,-2.2034,-2.2056,-2.1773,-2.1172,-2.1128,0.0,0.0,0.0,0.0,0.0,-2.1317,-2.1681,-2.2008,-2.1356,-2.1207,0.0,0.0,0.0,-2.2431,0.0,0.0,-2.1587,0.0,0.0,0.0,0.0,0.0,0.0,0.0,-2.147,-2.1072,-2.0336,-1.9762,-1.9303,-1.91,-1.8795,-1.8482,-1.8337,-1.8144,-1.794,-1.7774,-1.7987,-1.8052,-1.6996,-1.6139,-1.5202,-1.4205,-1.2747,-1.1516,-1.1316,-1.0962,-1.0675,-1.0638,-1.0364,-0.9983,-0.9402,-0.8598,-0.7855,-0.7293,-0.6472,-0.5905,-0.5905,-0.5625,-0.5428,-0.5428,-0.5428,-0.5428,-0.5428,-0.5428,-0.5428,-0.5432,-0.5376,-0.5382,-0.5389,-0.4167,-0.2952,-0.1811,-0.1811,-0.1811,-0.1812,-0.2418,-0.2715,-0.2696,-0.2985,-0.3944,-0.5244,-0.5199,-0.5657,-0.6227,-0.5541,-0.5692,-0.6278,-0.6394,-0.6535,-0.6723,0.0,0.0,0.0,0.0,0.0,0.0,0.0,0.0,0.0,0.0,0.0,0.0,0.0,0.0,0.0,-2.3118,-2.3752,-2.4067,-2.3914,-2.3914,-2.3863,-2.3695,0.0,0.0,0.0,-2.24,-2.2018,-2.2005,-2.1673,-2.1506,0.0,0.0,-2.1543,-2.1556,-2.2096,-2.2334,-2.2334,0.0,-2.2114,-2.2114,0.0,-2.2205,-2.2246,0.0,0.0,0.0,-2.2433,-2.2591,0.0,-2.2962,0.0,0.0,0.0,-2.085,-1.9779,-1.9561,-1.9039,-1.8502,0.0,0.0,0.0,-1.7774,-1.7716,-1.7725,-1.7638,-1.6254,-1.4893,-1.4709,-1.3189,-1.1703,-1.1116,-1.1002,-1.0902,-1.0672,-0.9913,-0.9338,-0.9274,-0.7827,-0.6719,-0.6654,-0.5947,-0.5428,-0.5428,-0.5432,-0.5432,-0.5428,-0.5432,-0.5432,-0.5428,-0.5428,-0.5432,-0.5379,-0.5326,-0.5336,-0.5406,-0.1883,-0.0135,-0.0,-0.0,-0.0,-0.0067,-0.1805,-0.2635,-0.2639,-0.292,-0.299,-0.2978,-0.2984,-0.4237,-0.5947,-0.3876,-0.4304,-0.6152,-0.6214,-0.6189,-0.6241,0.0,0.0,0.0,0.0,0.0,0.0,0.0,0.0,0.0,0.0,0.0,0.0,0.0,0.0,-2.4355,-2.4134,-2.4269,-2.4369,-2.4319,-2.4219,-2.4118,-2.4016,-2.3992,-2.3755,-2.3241,-2.2889,-2.2515,-2.2156,-2.2122,-2.2083,-2.2096,-2.2498,-2.2686,0.0,-2.2836,-2.2912,-2.2852,-2.2852,0.0,-2.2815,-2.2414,-2.2251,0.0,0.0,0.0,0.0,0.0,-2.2908,-2.3502,0.0,-2.2516,-2.2226,0.0,0.0,0.0,0.0,-1.9469,-1.9099,-1.8562,0.0,0.0,0.0,0.0,0.0,-1.6736,-1.6156,-1.547,-1.4076,-1.2963,-1.2004,-1.141,-1.1136,-1.0902,-1.0672,-1.0428,-0.9779,-0.8549,-0.7962,-0.7181,-0.5881,-0.5557,-0.5428,-0.5428,-0.546,-0.5481,-0.5435,-0.5464,-0.5484,-0.5379,-0.5382,-0.5382,-0.5379,-0.4145,-0.4046,-0.5394,-0.4398,-0.2616,-0.0,-0.0,-0.0,-0.0,-0.0544,-0.0747,-0.0742,-0.0815,-0.089,-0.0829,-0.0866,-0.1201,-0.1865,-0.273,-0.2579,-0.1958,-0.3467,-0.3955,-0.3995,0.0,0.0,0.0,0.0,0.0,0.0,-2.4548,0.0,0.0,0.0,0.0,0.0,0.0,0.0,-2.5749,-2.5177,-2.5373,-2.543,-2.5254,-2.5203,-2.5086,-2.5034,-2.5043,-2.4843,-2.4403,-2.3968,-2.3589,-2.3178,-2.2904,-2.2778,-2.2791,-2.2987,-2.3078,-2.3078,0.0,0.0,0.0,0.0,0.0,0.0,-2.2786,0.0,0.0,-2.2425,-2.2501,0.0,0.0,0.0,-2.3966,-2.3034,-2.2771,0.0,0.0,0.0,0.0,0.0,0.0,-1.9371,-1.8901,-1.8554,-1.8202,-1.7774,0.0,0.0,-1.6927,-1.6501,-1.5886,-1.4464,-1.3417,-1.2506,-1.174,-1.1369,-1.1122,-1.0949,-1.0922,-1.0236,-0.8247,-0.7715,-0.7043,-0.5656,-0.5508,-0.5545,-0.5545,-0.5627,-0.564,-0.5552,-0.5627,-0.562,-0.5549,-0.5416,-0.5393,-0.5396,-0.2905,-0.2098,-0.316,-0.3162,-0.2105,-0.0,-0.0,-0.0,-0.0,-0.0,-0.0,-0.0,-0.0,-0.0,-0.0,-0.0,-0.0,-0.0153,-0.132,-0.1096,-0.0157,-0.133,-0.1832,-0.1796,0.0,0.0,0.0,-2.4601,-2.5095,-2.5438,-2.5509,0.0,0.0,0.0,0.0,0.0,0.0,0.0,0.0,0.0,-2.6718,-2.6864,-2.6486,-2.6433,-2.6394,-2.6394,-2.6233,-2.6111,-2.5948,-2.5216,-2.4765,-2.458,-2.3852,-2.345,-2.3403,-2.321,-2.3138,-2.3078,0.0,0.0,0.0,0.0,0.0,-2.3403,-2.3198,-2.3318,0.0,0.0,-2.3463,-2.3509,-2.339,-2.3659,-2.4014,-2.3315,-2.2898,0.0,0.0,0.0,0.0,0.0,-2.0298,-1.9481,-1.9233,-1.8783,-1.8269,-1.7852,-1.7784,0.0,-1.7706,-1.7038,-1.6211,-1.5463,-1.4316,-1.3208,-1.2232,-1.179,-1.1532,-1.143,-1.145,-1.0659,-0.8422,-0.7534,-0.67,-0.5748,-0.5725,-0.58,-0.58,-0.5817,-0.582,-0.5803,-0.5803,-0.5755,-0.571,-0.5126,-0.5002,-0.5373,-0.1883,-0.0,-0.0,-0.0,-0.0,-0.0,-0.0,-0.0,-0.0,-0.0,-0.0,-0.0,-0.0,-0.0,-0.0,-0.0,-0.0,-0.0,-0.0,-0.0,-0.0,-0.0,-0.0,-0.0,0.0,0.0,0.0,-2.6777,-2.6888,-2.6983,-2.6968,0.0,0.0,0.0,0.0,0.0,0.0,0.0,0.0,0.0,-2.7689,-2.765,-2.76,-2.7357,-2.7078,-2.6855,-2.6712,-2.65,-2.6233,-2.5701,-2.5258,-2.4878,-2.4363,-2.3897,-2.3403,-2.3343,-2.3271,-2.3138,-2.3271,0.0,0.0,0.0,0.0,-2.3403,-2.345,0.0,-2.3463,-2.3403,-2.333,-2.3198,-2.3198,-2.3213,-2.329,-2.3169,-2.2626,-2.2012,0.0,0.0,0.0,-2.0483,0.0,0.0,-1.8975,-1.8812,-1.8674,-1.8405,-1.8337,0.0,-1.7998,-1.7479,-1.6893,-1.6026,-1.5137,-1.4172,-1.3216,-1.2733,-1.234,-1.1744,-1.1839,-1.1224,-0.881,-0.8394,-0.7649,-0.5969,-0.5783,-0.58,-0.58,-0.5911,-0.5935,-0.581,-0.5885,-0.5882,-0.5718,-0.2755,-0.2371,-0.5312,-0.1867,-0.0,-0.0,-0.0,-0.0,-0.0,-0.0,-0.0,-0.0,-0.0,-0.0,-0.0,-0.0,-0.0,-0.0,-0.0,-0.0,-0.0,-0.0,-0.0,-0.0,-0.0,-0.0,-0.0,0.0,0.0,0.0,-2.74,-2.7731,-2.7971,-2.7945,0.0,0.0,0.0,0.0,0.0,0.0,0.0,0.0,0.0,0.0,0.0,0.0,-2.8471,-2.8405,-2.8193,-2.7739,-2.7351,-2.7,-2.6238,-2.5591,-2.5118,-2.4637,-2.4073,-2.3522,-2.3803,-2.3504,-2.2749,-2.3555,0.0,0.0,0.0,-2.37,-2.3641,-2.3509,0.0,-2.3403,-2.3271,-2.3198,-2.3078,-2.3078,-2.3078,-2.3165,-2.3468,-2.3228,0.0,-2.2128,-2.1609,-2.1174,0.0,-2.0083,-1.9492,0.0,-1.9155,-1.8741,-1.8549,-1.8482,0.0,0.0,-1.7879,-1.733,-1.607,-1.5392,-1.4696,-1.3472,-1.2969,-1.2657,-1.2226,-1.2278,-1.1808,-0.9986,-0.9343,-0.83,-0.6359,-0.6203,-0.622,-0.6142,-0.6207,-0.619,-0.604,-0.6112,-0.6094,-0.6036,-0.318,-0.1913,-0.2669,-0.0944,-0.0,-0.0,-0.0,-0.0,-0.0,-0.0,-0.0,-0.0,-0.0,-0.0,-0.0,-0.0,-0.0,-0.0,-0.0,-0.0,-0.0,-0.0,-0.0,-0.0,-0.0,-0.0,-0.0,0.0,0.0,0.0,-2.7943,-2.8495,-2.8882,-2.8785,-2.9371,0.0,0.0,0.0,0.0,0.0,0.0,0.0,0.0,0.0,0.0,0.0,-2.941,-2.9409,-2.9316,-2.8768,-2.8213,-2.7574,-2.6989,-2.6244,-2.5394,-2.5148,-2.4681,-2.4022,-2.4471,-2.4016,-2.2791,-2.3991,0.0,0.0,0.0,0.0,-2.394,0.0,-2.3552,-2.3475,-2.3384,-2.3286,-2.3138,-2.3138,-2.3078,-2.3165,-2.3803,-2.3875,-2.3442,-2.2269,-2.1876,0.0,0.0,0.0,0.0,0.0,-1.9633,-1.8961,-1.8917,-1.873,-1.8622,0.0,0.0,0.0,-1.651,-1.5896,-1.5133,-1.3803,-1.3279,-1.2906,-1.2712,-1.2721,-1.2304,-1.101,-1.0231,-0.9094,-0.7062,-0.6749,-0.6641,-0.6649,-0.6579,-0.6468,-0.6352,-0.6318,-0.6342,-0.6329,-0.4252,-0.2177,-0.0071,-0.0,-0.0,-0.0,-0.0,-0.0,-0.0,-0.0,-0.0,-0.0,-0.0741,-0.101,-0.101,-0.0269,-0.0,-0.0,-0.0,-0.0,-0.0,-0.0,-0.0,-0.0,-0.0,-0.0,-0.0,-2.9858,-2.9901,0.0,0.0,-2.9966,-2.9989,-2.9859,-3.0011,0.0,0.0,0.0,0.0,0.0,0.0,0.0,0.0,0.0,0.0,-3.0291,0.0,-2.9009,-2.8891,-2.9244,-2.8708,-2.712,-2.8075,-2.781,-2.6197,-2.6634,-2.6358,-2.5392,-2.5456,-2.5009,-2.4269,-2.4397,0.0,0.0,0.0,-2.3996,0.0,-2.4249,-2.4077,0.0,-2.4119,-2.3882,-2.333,-2.3138,-2.3078,-2.3165,-2.3803,-2.3501,-2.29,0.0,-2.1965,-2.0445,-2.1156,0.0,0.0,0.0,-2.0058,-1.9779,-2.0102,-1.9906,-1.972,-1.992,0.0,-1.9402,-1.828,0.0,-1.6258,-1.5182,0.0,0.0,-1.2966,-1.3049,-1.2679,-1.1213,-1.0965,-1.0322,-0.8376,-0.7323,-0.6805,-0.7049,-0.6838,-0.6668,-0.6651,-0.6525,-0.6454,-0.6308,-0.4246,-0.2177,-0.0075,-0.0,-0.0,-0.0,-0.0,-0.0,-0.0,-0.0,-0.0,-0.0135,-0.3303,-0.4797,-0.459,-0.1408,-0.0,-0.0,-0.0,-0.0,-0.0,-0.0,-0.0,-0.0,-0.0,-0.0,-0.0,-3.0359,-3.0231,0.0,0.0,-3.0274,-3.0189,-3.0248,0.0,0.0,0.0,0.0,0.0,0.0,0.0,0.0,0.0,0.0,-3.0672,0.0,0.0,0.0,-3.076,-3.0467,-2.9933,-2.9124,-2.8969,-2.8394,-2.7427,-2.7259,-2.6788,-2.5985,-2.6151,-2.5636,-2.4535,-2.4944,0.0,-2.4115,0.0,-2.433,0.0,0.0,-2.469,0.0,-2.4569,-2.4242,-2.3664,-2.3263,-2.3078,-2.3115,-2.3414,-2.3667,-2.3701,-2.2309,-2.1959,0.0,-2.0803,0.0,0.0,0.0,-2.0236,-1.9733,-2.0246,-1.9949,-1.9544,-1.993,-1.9877,-1.9446,-1.8455,0.0,0.0,0.0,0.0,0.0,0.0,-1.3219,-1.2784,-1.1872,-1.1337,-1.0526,-0.9128,-0.825,-0.7598,-0.7108,-0.6909,-0.6759,-0.658,-0.6671,-0.6589,-0.6354,-0.4633,-0.3137,-0.1813,-0.1824,-0.1705,-0.1539,-0.159,-0.1568,-0.1543,-0.1543,-0.1543,-0.161,-0.3157,-0.4375,-0.5333,-0.3763,-0.1942,-0.0,-0.0,-0.0,-0.0,-0.0,-0.0,-0.0,-0.0,-0.0,-0.0,0.0,0.0,0.0,0.0,0.0,0.0,0.0,0.0,0.0,0.0,0.0,0.0,-3.1985,-3.1901,0.0,0.0,-3.1365,-3.1133,0.0,0.0,-3.1152,-3.1241,-3.1167,0.0,-2.9918,-2.967,-2.913,-2.8411,-2.7935,-2.7414,-2.6872,-2.6893,-2.6245,-2.506,0.0,-2.5277,-2.4679,0.0,-2.4653,-2.5049,-2.5371,-2.5333,-2.5192,-2.4911,-2.4569,-2.4155,-2.3577,-2.3215,-2.3103,-2.3314,-2.3916,-2.4213,-2.2163,-2.218,-2.2569,0.0,0.0,0.0,-2.0896,-2.0411,-1.9878,-2.0586,-2.0257,-1.9839,-2.0222,-2.0076,-1.961,-1.8704,-1.823,0.0,0.0,0.0,-1.4872,-1.4207,0.0,-1.2878,-1.2499,-1.1903,-1.1172,-1.0093,-0.9165,-0.8342,-0.7598,-0.724,-0.6967,-0.6699,-0.6837,-0.6776,-0.6495,-0.5394,-0.456,-0.3973,-0.3975,-0.3873,-0.3534,-0.3506,-0.3445,-0.342,-0.342,-0.342,-0.342,-0.3418,-0.4161,-0.5389,-0.5345,-0.3865,-0.1405,-0.0399,-0.0,-0.0,-0.0,-0.0,-0.0,-0.0,-0.0,-0.0,-3.0975,-3.0952,0.0,0.0,0.0,0.0,0.0,0.0,0.0,0.0,0.0,0.0,0.0,0.0,0.0,0.0,0.0,-3.044,-3.0631,0.0,-3.0309,0.0,0.0,-3.0764,0.0,-3.0056,-3.0338,-2.8859,-2.899,-2.8762,-2.8233,-2.7683,-2.7064,-2.6349,-2.5819,-2.5497,-2.5243,-2.463,-2.4976,-2.5838,-2.5851,-2.6114,-2.6332,-2.534,-2.4924,-2.472,-2.4167,-2.3615,-2.3165,-2.3778,-2.4004,-2.3979,-2.3847,-2.2725,-2.1464,-2.1443,-2.0299,-1.9354,-2.0531,-2.0585,-2.0431,-2.1463,-2.1414,-2.1123,-2.1359,-2.0994,-2.0382,-1.9781,-1.8667,-1.7692,-1.7345,-1.598,-1.487,-1.4749,-1.3913,0.0,0.0,-1.2843,-1.2529,-1.1546,-1.0002,-0.8835,-0.8598,-0.7922,-0.7428,-0.7175,-0.7135,-0.701,-0.6812,-0.6622,-0.641,-0.6217,-0.6203,-0.6063,-0.5699,-0.5409,-0.5336,-0.5326,-0.5326,-0.5326,-0.5326,-0.5316,-0.5376,-0.5372,-0.522,-0.5178,-0.4976,-0.1433,-0.0,-0.0,-0.0,-0.0,-0.0,-0.0,-0.0,-0.0,0.0,0.0,0.0,0.0,0.0,0.0,0.0,-3.1875,0.0,0.0,-3.3322,0.0,0.0,-3.3567,-3.3034,0.0,0.0,-3.0464,-3.0569,-3.0404,0.0,0.0,0.0,-3.1283,0.0,-3.0628,-3.0719,-3.0009,-2.9614,-2.9149,-2.861,-2.7973,-2.7432,-2.6958,-2.6271,-2.6089,0.0,0.0,0.0,0.0,0.0,-2.6286,-2.6761,-2.5744,-2.5121,-2.4745,-2.4192,-2.3627,-2.3103,-2.3364,-2.3678,-2.3829,-2.2853,-2.2432,-2.206,-2.0942,-2.0257,-1.9839,-2.0153,-1.9838,-1.9727,-2.0923,-2.0716,-2.05,-2.1187,-2.0853,-2.0321,-1.9918,-1.9163,-1.8485,-1.8276,-1.7473,-1.6564,-1.5439,-1.4554,-1.3733,0.0,-1.2778,-1.2533,-1.2031,-1.0666,-0.9431,-0.883,-0.8268,-0.7703,-0.7115,-0.6997,-0.6959,-0.6865,-0.6763,-0.6661,-0.6566,-0.6464,-0.6271,-0.5973,-0.5745,-0.5547,-0.5372,-0.5372,-0.5321,-0.522,-0.5216,-0.5162,-0.507,-0.502,-0.4967,-0.4829,-0.2697,-0.178,-0.1699,-0.0458,-0.0,-0.0,-0.0,-0.0,-0.0,-3.185,0.0,0.0,0.0,0.0,0.0,0.0,0.0,0.0,0.0,-3.415,0.0,-3.4793,0.0,-3.3288,0.0,-3.144,-3.0493,-3.0615,-3.017,0.0,-2.9561,-3.0622,-3.0729,0.0,0.0,0.0,-3.0234,-2.9799,-2.9275,-2.8675,-2.8105,-2.7523,-2.7027,-2.627,-2.6149,-2.6607,-2.5848,-2.576,0.0,0.0,-2.6396,-2.6718,-2.5946,-2.5338,-2.4861,-2.4255,-2.3627,-2.3078,-2.3078,-2.3389,-2.3504,-2.2616,-2.215,-2.1754,-2.0687,-1.9881,-1.9414,-1.9575,-1.9283,-1.9243,-2.0265,-2.0224,-2.0038,-2.0717,-2.0387,-1.9899,-1.9783,-1.9352,-1.8928,-1.8555,-1.8132,-1.7406,-1.5855,-1.5056,-1.4304,0.0,-1.2739,-1.2378,-1.2234,-1.1197,-1.0169,-0.9597,-0.8883,-0.8094,-0.7527,-0.7143,-0.6963,-0.6773,-0.6776,-0.6709,-0.6549,-0.6549,-0.6386,-0.6034,-0.5878,-0.5681,-0.544,-0.5332,-0.5226,-0.5128,-0.5077,-0.5006,-0.4914,-0.486,-0.4813,-0.4748,-0.3816,-0.3132,-0.264,-0.215,-0.1123,-0.0,-0.0,-0.0,-0.0,-3.1478,0.0,0.0,0.0,-3.3253,0.0,0.0,0.0,-3.4235,0.0,-3.4759,-3.5081,-3.366,-3.3457,-3.3102,-3.2341,-3.1058,-3.0375,-3.0534,-3.0006,0.0,0.0,-2.9388,-2.9342,-2.8322,0.0,0.0,0.0,0.0,-2.9275,-2.8546,-2.8039,-2.7456,-2.6676,-2.5793,0.0,-2.642,-2.5519,-2.563,-2.6533,-2.6533,-2.6533,-2.6458,-2.5787,-2.5431,-2.5167,-2.4318,-2.3627,-2.3078,-2.3078,-2.3078,-2.3078,-2.3078,-2.1928,-2.059,-2.059,-1.9365,-1.8174,-1.8785,-1.8974,-1.9073,-1.9706,-1.9889,-1.9928,-2.0148,-1.9698,-1.9302,-1.9505,-1.9212,-1.8741,-1.8194,-1.8033,-1.7493,-1.5952,-1.541,-1.4669,-1.3457,-1.2666,-1.2195,-1.2282,-1.1564,-1.0976,-1.0907,-0.9759,-0.8761,-0.8325,-0.7639,-0.7021,-0.6498,-0.6759,-0.6722,-0.6295,-0.6549,-0.6481,-0.6044,-0.5881,-0.5732,-0.5586,-0.5287,-0.5135,-0.5114,-0.4982,-0.4911,-0.4891,-0.4745,-0.4706,-0.4789,-0.4789,-0.3998,-0.2961,-0.4713,-0.3282,-0.0134,-0.027,-0.021,-0.0,-3.3457,-3.4404,-3.4665,0.0,-3.2908,-3.2882,-3.3778,-3.3778,0.0,0.0,-3.574,-3.547,-3.5098,-3.4066,-3.3102,-3.2341,-3.1058,0.0,0.0,0.0,0.0,-2.7946,-2.9147,-2.9342,-2.8322,-2.9478,-2.987,-2.9376,0.0,-2.9602,-2.8958,-2.8235,-2.7709,-2.731,0.0,-2.6539,-2.5892,-2.6565,-2.6729,-2.6533,-2.6533,-2.6658,-2.6735,-2.5504,-2.5114,-2.5167,-2.4318,-2.3627,-2.3078,-2.3078,-2.3078,-2.3078,-2.3078,-2.1928,-2.059,-2.059,-1.9365,-1.8037,-1.8213,-1.8242,-1.8419,-1.9053,-1.9233,-1.9343,-1.9637,-1.9265,-1.8945,-1.9081,-1.8699,-1.8385,-1.8714,-1.8739,-1.8217,-1.662,-1.518,-1.3885,-1.2946,-1.2632,-1.2334,-1.1805,-1.1455,-1.1147,-1.0723,-1.0213,-0.935,-0.8141,-0.7857,-0.7433,-0.6716,-0.6878,-0.6867,-0.6593,-0.6552,-0.6424,-0.6203,-0.5935,-0.5732,-0.5589,-0.5396,-0.5186,-0.4972,-0.4935,-0.4796,-0.4575,-0.4594,-0.4545,-0.4585,-0.4592,-0.4507,-0.442,-0.5113,-0.4137,-0.2493,-0.4124,-0.2702,-0.0,-3.3914,-3.4607,0.0,-3.4455,0.0,-3.3914,-3.4421,-3.4421,-3.4827,-3.6113,-3.5893,0.0,-3.4726,-3.3914,-3.2966,-3.1901,-3.0667,0.0,-2.9929,0.0,0.0,-2.8162,-2.8598,-2.8554,-2.801,-2.8862,0.0,-2.8973,0.0,-2.9445,-2.8958,-2.8546,-2.8105,-2.7709,0.0,-2.7092,-2.671,-2.7167,-2.7053,-2.6589,-2.6521,-2.6589,0.0,-2.53,-2.4936,-2.495,-2.3966,-2.3414,-2.3078,-2.3078,-2.3078,-2.3078,-2.3078,-2.2187,-2.1066,-2.0459,-1.9318,-1.8131,-1.7556,-1.7451,-1.7559,-1.8192,-1.83,-1.8458,-1.9,-1.8818,-1.8579,-1.8812,-1.8452,-1.7977,-1.7546,-1.7815,-1.7698,-1.6285,-1.4892,-1.3734,-1.303,-1.2808,-1.2469,-1.1725,-1.163,-1.1441,-1.1039,-1.0564,-0.9862,-0.896,-0.8627,-0.8134,-0.716,-0.7469,-0.7447,-0.6914,-0.6777,-0.6539,-0.6264,-0.602,-0.5827,-0.5681,-0.5396,-0.5172,-0.5006,-0.4877,-0.4724,-0.4558,-0.4546,-0.4556,-0.4568,-0.464,-0.4806,-0.5026,-0.5378,-0.5055,-0.4493,-0.5838,-0.4798,-0.2589,-3.3812,0.0,0.0,0.0,0.0,-3.5402,-3.4742,-3.5199,-3.5622,-3.5622,-3.5537,-3.4945,-3.3558,-3.3322,-3.2696,-3.1309,-3.0166,-2.9797,-3.0408,-2.8724,-2.7981,-2.8619,-2.7991,-2.7625,-2.7625,-2.8047,-2.838,0.0,-2.9073,-2.9139,-2.8931,-2.8867,-2.8546,0.0,0.0,0.0,0.0,-2.7285,-2.6909,-2.6645,-2.6445,-2.6352,-2.6226,-2.5134,-2.472,-2.4569,-2.3453,-2.3078,-2.3078,-2.3078,-2.3078,-2.3078,-2.3078,-2.2457,-2.1428,-2.0222,-1.9228,-1.8194,-1.7026,-1.6714,-1.6894,-1.7217,-1.7305,-1.751,-1.8291,-1.8337,-1.8216,-1.8475,-1.8225,-1.7436,-1.5926,-1.6114,-1.6275,-1.5405,-1.4539,-1.3771,-1.3189,-1.2994,-1.2615,-1.1985,-1.1756,0.0,-1.1576,-1.0893,-1.0368,-1.0085,-0.9766,-0.9087,-0.8016,-0.8176,-0.8135,-0.7569,-0.7248,-0.6854,-0.6553,-0.6349,-0.6036,-0.5827,-0.5396,-0.5169,-0.5121,-0.4863,-0.4738,-0.4714,-0.4579,-0.4599,-0.4731,-0.4863,-0.5013,-0.5192,-0.5579,-0.5803,-0.6047,-0.62,-0.631,-0.5987,-3.5131,0.0,0.0,0.0,0.0,-3.5571,-3.5453,-3.5537,-3.5622,-3.5622,-3.5081,-3.4353,-3.3491,-3.2848,-3.2121,-3.1275,-3.0559,-3.0,-2.9627,0.0,0.0,-2.784,-2.7685,-2.7625,-2.7625,-2.8047,-2.838,-2.8624,-2.9073,-2.9334,-2.9477,-2.9008,-2.8739,0.0,0.0,0.0,-2.7934,-2.6685,-2.6295,-2.6483,-2.5937,-2.5749,-2.5636,-2.4556,-2.4142,-2.4054,-2.3376,-2.3078,-2.3078,-2.3078,-2.3078,-2.3078,-2.3078,-2.1813,-2.02,-1.9997,-1.8797,-1.7471,-1.6846,-1.6992,-1.7197,-1.6914,-1.6846,-1.6982,-1.749,-1.7598,-1.7638,-1.8047,-1.7774,-1.7293,-1.6497,-1.5188,-1.429,-1.458,-1.3905,-1.3087,-1.2309,-1.2616,-1.2609,-1.1846,-1.1512,-1.1571,-1.2024,-1.1725,-1.1295,-1.0595,-1.0701,-1.0429,-0.9499,-0.8901,-0.8989,-0.9611,-0.8497,-0.7849,-0.8064,-0.7512,-0.6818,-0.5986,-0.5664,-0.5376,-0.5128,-0.5077,-0.4989,-0.4877,-0.485,-0.4853,-0.488,-0.4908,-0.5077,-0.5352,-0.565,-0.5878,-0.6034,-0.6034,-0.6125,-0.6109,-3.5554,0.0,0.0,0.0,-3.596,-3.6079,-3.5673,-3.596,-3.5943,-3.5131,-3.4726,-3.4066,-3.2949,-3.2493,-3.1985,-3.1258,-3.0335,-2.9717,-2.9406,-2.8543,-2.791,-2.761,-2.7625,-2.7625,-2.7625,-2.7823,-2.8163,-2.8624,-2.8814,-2.9154,-2.9602,-2.9338,-2.9198,-2.9184,0.0,-2.8311,0.0,-2.6765,-2.6161,-2.6135,-2.5778,-2.5435,-2.5109,-2.4305,-2.4004,-2.3916,-2.3339,-2.3078,-2.3078,-2.3078,-2.2949,-2.2711,-2.2711,-2.1522,-2.0026,-1.9346,-1.8309,-1.7205,-1.6284,-1.6201,-1.6367,-1.6377,-1.6387,-1.6504,-1.6943,-1.7227,-1.7373,-1.7353,-1.7187,-1.6636,-1.539,-1.3932,-1.2984,-1.3285,-1.3311,-1.3053,-1.2516,-1.25,-1.2405,-1.1887,-1.1739,-1.18,-1.2136,-1.2205,-1.1921,-1.1198,-1.1503,-1.1347,-1.06,-1.0361,-1.0396,-1.0622,-0.9634,-0.9094,-0.9058,-0.8128,-0.7323,-0.6699,-0.6382,-0.5933,-0.5247,-0.5608,-0.5468,-0.5023,-0.4952,-0.4962,-0.5036,-0.5114,-0.5321,-0.5603,-0.5745,-0.5945,-0.6149,-0.6149,-0.62,-0.62,0.0,-3.5622,0.0,0.0,-3.6129,-3.6265,-3.5504,-3.5893,-3.5859,-3.4658,-3.4353,-3.3744,-3.2425,-3.2178,-3.1776,-3.1066,-3.0021,-2.9361,-2.9225,-2.8222,-2.7625,-2.7625,-2.7625,-2.7625,-2.7625,-2.7625,-2.7884,-2.8463,-2.8552,-2.8914,-2.9468,-2.9546,-2.947,-2.9191,-2.8181,-2.7714,-2.7691,-2.6583,-2.596,-2.5633,-2.5375,-2.5008,-2.4582,-2.4029,-2.3816,-2.374,-2.3163,-2.2902,-2.2877,-2.2824,-2.2573,-2.2239,-2.1998,-2.1046,-1.9772,-1.8622,-1.7748,-1.6881,-1.5693,-1.5478,-1.5615,-1.5859,-1.5928,-1.6035,-1.6484,-1.6855,-1.7031,-1.6777,-1.6335,-1.557,-1.4139,-1.2797,-1.2011,-1.2265,-1.2599,-1.2766,-1.2661,-1.2465,-1.2251,-1.1919,-1.2094,-1.2201,-1.1967,-1.2495,-1.2575,-1.1735,-1.214,-1.2184,-1.1653,-1.1662,-1.1612,-1.1682,-1.0885,-1.0362,-1.0084,-0.9034,-0.8266,-0.7686,-0.7495,-0.6958,-0.6112,-0.6437,-0.6238,-0.552,-0.5216,-0.5169,-0.5284,-0.544,-0.564,-0.585,-0.585,-0.602,-0.6257,-0.6224,-0.6234,-0.6338,0.0,0.0,-3.5622,-3.5622,-3.5673,-3.547,-3.4726,-3.4658,-3.4658,-3.4506,-3.3914,-3.3203,-3.2374,-3.1681,-3.1043,-3.0435,-2.9761,-2.918,-2.8606,-2.7944,-2.7625,-2.7625,-2.7625,-2.7625,-2.7625,-2.7625,-2.7765,-2.8174,-2.8432,-2.88,-2.918,-2.9459,-2.9108,-2.8106,-2.7187,-2.6463,-2.5816,-2.5397,-2.5076,-2.4858,-2.4356,-2.4117,-2.4017,-2.3439,-2.3153,-2.3078,-2.2585,-2.2385,-2.2309,-2.1807,-2.1945,-2.2106,-2.0952,-1.9679,-1.8508,-1.7748,-1.6866,-1.6087,-1.5527,-1.5703,-1.5918,-1.5557,-1.5469,-1.5586,-1.6025,-1.6223,-1.6289,-1.665,-1.5178,-1.3886,-1.3893,-1.2203,-1.1069,-1.2131,-1.1904,-1.1677,-1.1917,-1.2459,-1.2405,-1.1534,-1.247,-1.2785,-1.1682,-1.2862,-1.329,-1.2142,-1.2593,-1.2965,-1.3212,-1.1943,-1.1925,-1.3393,-1.2147,-1.1427,-1.1381,-1.1078,-1.0324,-0.908,-0.893,-0.8776,-0.8483,-0.7626,-0.7202,-0.7061,-0.6142,-0.5725,-0.5749,-0.5901,-0.5983,-0.601,-0.601,-0.6112,-0.6244,-0.6101,-0.6139,-0.6338,-3.4945,-3.459,-3.4286,-3.4286,-3.4286,-3.4184,-3.388,-3.3846,-3.3677,-3.322,-3.2916,-3.2459,-3.1715,-3.1376,-3.0926,-3.0235,-2.9326,-2.8487,-2.7826,-2.6917,-2.6393,-2.6393,-2.6782,-2.6976,-2.6976,-2.7365,-2.7735,-2.8086,-2.8417,-2.8757,-2.908,-2.8778,-2.8078,-2.6999,-2.6021,-2.5556,-2.5571,-2.476,-2.4381,-2.4305,-2.4092,-2.3791,-2.3452,-2.3165,-2.2924,-2.2611,-2.2397,-2.2096,-2.1732,-2.1179,-2.1142,-2.1224,-2.0724,-1.9365,-1.7879,-1.7588,-1.6638,-1.5635,-1.5459,-1.5537,-1.5625,-1.5459,-1.541,-1.5459,-1.5635,-1.5879,-1.6045,-1.5957,-1.4495,-1.314,-1.2711,-1.1768,-1.1122,-1.1236,-1.1349,-1.1403,-1.1349,-1.1543,-1.1563,-1.1209,-1.1773,-1.1979,-1.1504,-1.266,-1.3209,-1.2595,-1.331,-1.3563,-1.3169,-1.3099,-1.3354,-1.3991,-1.3042,-1.2713,-1.313,-1.1685,-1.0744,-1.0346,-1.0019,-0.9482,-0.8824,-0.8899,-0.8338,-0.7208,-0.6222,-0.58,-0.5806,-0.5867,-0.5945,-0.603,-0.603,-0.6125,-0.6254,-0.6193,-0.6207,-0.6338,-3.4406,-3.3938,-3.3556,-3.3406,-3.3406,-3.3339,-3.3119,-3.3068,-3.2797,-3.2053,-3.1968,-3.1765,-3.1258,-3.119,-3.0847,-2.9911,-2.8943,-2.803,-2.7089,-2.6107,-2.5615,-2.5615,-2.6048,-2.6303,-2.6303,-2.6752,-2.722,-2.7669,-2.7998,-2.8251,-2.8452,-2.7666,-2.6835,-2.5892,-2.4997,-2.47,-2.4831,-2.409,-2.3753,-2.3753,-2.3753,-2.3502,-2.3053,-2.289,-2.2648,-2.2272,-2.1945,-2.1581,-2.1154,-2.0602,-2.0295,-2.0069,-1.9853,-1.8807,-1.7523,-1.7079,-1.6244,-1.541,-1.541,-1.541,-1.541,-1.541,-1.541,-1.541,-1.541,-1.5654,-1.5722,-1.5176,-1.3786,-1.2451,-1.1896,-1.146,-1.1096,-1.0855,-1.1089,-1.1283,-1.1256,-1.1249,-1.1249,-1.1249,-1.1744,-1.1904,-1.147,-1.2665,-1.3174,-1.242,-1.3516,-1.3902,-1.322,-1.3736,-1.4043,-1.4043,-1.3622,-1.3539,-1.3871,-1.2308,-1.152,-1.1521,-1.1162,-1.0563,-0.9811,-1.0178,-0.9246,-0.7381,-0.673,-0.6225,-0.5935,-0.5935,-0.6,-0.6098,-0.6098,-0.6166,-0.6338,-0.6338,-0.6338,-0.6338,-3.4185,-3.4086,-3.3945,-3.349,-3.3406,-3.3152,-3.2408,-3.229,-3.2036,-3.1309,-3.1207,-3.1207,-3.119,-3.119,-3.0656,-2.9353,-2.8702,-2.7842,-2.6512,-2.5909,-2.5615,-2.5615,-2.5615,-2.5615,-2.5615,-2.563,-2.5959,-2.6617,-2.6973,-2.7084,-2.7017,-2.6049,-2.5361,-2.4827,-2.4227,-2.369,-2.315,-2.315,-2.3078,-2.3078,-2.3078,-2.3078,-2.3015,-2.2523,-2.2322,-2.2171,-2.1079,-2.0743,-2.0643,-2.0012,-1.9319,-1.862,-1.7863,-1.7633,-1.7302,-1.5853,-1.541,-1.541,-1.541,-1.541,-1.541,-1.541,-1.541,-1.541,-1.541,-1.542,-1.5177,-1.4392,-1.2923,-1.1834,-1.1834,-1.117,-1.0755,-1.1323,-1.1182,-1.1202,-1.1777,-1.1857,-1.1857,-1.1857,-1.2899,-1.2961,-1.157,-1.3033,-1.326,-1.1299,-1.2936,-1.4004,-1.373,-1.3737,-1.3737,-1.3737,-1.373,-1.3593,-1.332,-1.3187,-1.3046,-1.2739,-1.2438,-1.2298,-1.2218,-1.123,-0.9728,-0.7774,-0.7774,-0.7246,-0.6254,-0.6254,-0.6331,-0.6257,-0.6257,-0.6335,-0.6338,-0.6338,-0.6338,-0.6338,-3.295,-3.2282,-3.1837,-3.2221,-3.2088,-3.1816,-3.1579,-3.1546,-3.1275,-3.0548,-3.0446,-3.026,-2.9753,-3.0142,-2.9933,-2.8609,-2.7551,-2.6402,-2.5129,-2.4516,-2.4238,-2.4238,-2.4687,-2.4941,-2.4941,-2.5375,-2.5704,-2.5914,-2.6737,-2.6827,-2.6252,-2.5455,-2.4532,-2.3631,-2.3462,-2.3314,-2.3078,-2.3078,-2.3078,-2.3078,-2.3078,-2.2852,-2.2548,-2.2372,-2.1845,-2.1142,-2.0844,-2.0122,-1.9327,-1.9105,-1.8555,-1.7852,-1.709,-1.6877,-1.6765,-1.6322,-1.5806,-1.541,-1.541,-1.541,-1.541,-1.541,-1.541,-1.541,-1.541,-1.541,-1.5167,-1.4392,-1.3364,-1.2451,-1.1896,-1.117,-1.0752,-1.1069,-1.1056,-1.1129,-1.151,-1.1563,-1.1496,-1.1296,-1.161,-1.1577,-1.0902,-1.1891,-1.235,-1.1781,-1.3067,-1.3567,-1.2932,-1.3711,-1.4203,-1.403,-1.3736,-1.3761,-1.415,-1.3347,-1.2953,-1.306,-1.2545,-1.2305,-1.2305,-1.1242,-1.0484,-0.9734,-0.8385,-0.7629,-0.7249,-0.6567,-0.6338,-0.6338,-0.6338,-0.6338,-0.6338,-0.6338,-0.6322,-0.6407,-3.1618,-3.1078,-3.0663,-3.0726,-3.0793,-3.0683,-3.0412,-3.0362,-3.0192,-2.9753,-2.9685,-2.9499,-2.9025,-2.9144,-2.8932,-2.8115,-2.6987,-2.5855,-2.4744,-2.3991,-2.3595,-2.3595,-2.4014,-2.4238,-2.4238,-2.4642,-2.4971,-2.5241,-2.585,-2.5769,-2.501,-2.45,-2.3721,-2.2836,-2.2977,-2.2965,-2.2824,-2.2824,-2.2711,-2.2523,-2.2523,-2.2309,-2.1983,-2.1769,-2.1267,-2.0693,-2.0413,-1.9666,-1.8715,-1.8715,-1.8015,-1.709,-1.6652,-1.6322,-1.6063,-1.5899,-1.5509,-1.5146,-1.498,-1.5049,-1.5176,-1.5176,-1.5293,-1.5294,-1.4991,-1.4746,-1.4264,-1.3476,-1.2634,-1.1973,-1.1413,-1.0926,-1.0719,-1.0949,-1.1082,-1.1223,-1.1403,-1.1423,-1.1403,-1.1329,-1.1223,-1.1082,-1.0902,-1.1483,-1.1786,-1.1617,-1.268,-1.3172,-1.2654,-1.3723,-1.4295,-1.419,-1.3917,-1.3988,-1.4355,-1.3507,-1.3126,-1.32,-1.2592,-1.2305,-1.2305,-1.162,-1.1162,-1.0708,-0.9437,-0.8537,-0.7783,-0.7099,-0.6644,-0.6338,-0.6338,-0.6291,-0.6339,-0.6339,-0.6434,-0.6559,-3.032,-3.0477,-3.0335,-2.9289,-2.9671,-2.9854,-2.9093,-2.9011,-2.8958,-2.8907,-2.8907,-2.889,-2.8859,-2.818,-2.7705,-2.7705,-2.6798,-2.5886,-2.5137,-2.4158,-2.3595,-2.3595,-2.3595,-2.3595,-2.3595,-2.3595,-2.3939,-2.4582,-2.4428,-2.4091,-2.3616,-2.3297,-2.2837,-2.2284,-2.2786,-2.2736,-2.2246,-2.2246,-2.1958,-2.1493,-2.1493,-2.1468,-2.138,-2.092,-2.0693,-2.0539,-1.9987,-1.9307,-1.8715,-1.8614,-1.7632,-1.643,-1.6342,-1.5887,-1.5254,-1.4922,-1.4805,-1.4697,-1.4287,-1.4453,-1.4746,-1.4775,-1.5098,-1.5177,-1.4392,-1.3606,-1.2879,-1.2081,-1.1226,-1.0681,-1.0681,-1.0638,-1.0752,-1.0975,-1.1269,-1.1456,-1.1456,-1.147,-1.1563,-1.1784,-1.1583,-1.141,-1.1369,-1.1617,-1.1577,-1.1089,-1.2064,-1.2719,-1.2806,-1.3688,-1.417,-1.4095,-1.4088,-1.4088,-1.4088,-1.3794,-1.35,-1.32,-1.2612,-1.2345,-1.2365,-1.2365,-1.1832,-1.0992,-1.0767,-0.9706,-0.797,-0.7821,-0.7134,-0.6291,-0.6291,-0.6373,-0.6488,-0.6488,-0.6583,-0.6715,-3.0628,-3.0419,-3.0237,-3.0283,-3.0182,-2.9854,-2.9093,-2.9011,-2.8772,-2.8163,-2.8095,-2.7875,-2.73,-2.7063,-2.6962,-2.6962,-2.6045,-2.5045,-2.4048,-2.3767,-2.3595,-2.3595,-2.3595,-2.3595,-2.3595,-2.3595,-2.3939,-2.4582,-2.3535,-2.322,-2.3602,-2.2465,-2.1837,-2.1681,-2.182,-2.1807,-2.1681,-2.1681,-2.1606,-2.1493,-2.1493,-2.123,-2.0907,-2.0769,-2.0388,-1.9987,-1.9849,-1.9307,-1.8549,-1.7686,-1.6806,-1.5886,-1.4958,-1.4543,-1.4551,-1.5098,-1.5039,-1.4766,-1.4658,-1.4463,-1.4365,-1.4697,-1.5098,-1.5177,-1.4392,-1.4025,-1.3666,-1.2879,-1.2081,-1.1531,-1.1531,-1.117,-1.0982,-1.1276,-1.157,-1.1764,-1.1764,-1.1951,-1.187,-1.1269,-1.1329,-1.1249,-1.0808,-1.0828,-1.1022,-1.1331,-1.1625,-1.2241,-1.3139,-1.3365,-1.3671,-1.4082,-1.4088,-1.4088,-1.4088,-1.3794,-1.35,-1.3206,-1.2826,-1.2766,-1.2999,-1.2999,-1.2837,-1.2518,-1.0824,-0.9861,-0.9308,-0.7635,-0.6838,-0.6597,-0.6597,-0.6617,-0.6647,-0.6647,-0.6742,-0.6875,-3.0143,-2.9904,-2.9607,-2.9673,-2.9489,-2.9004,-2.808,-2.7943,-2.7791,-2.7351,-2.73,-2.7148,-2.6742,-2.6691,-2.6624,-2.6401,-2.5672,-2.4934,-2.4389,-2.3879,-2.3595,-2.3595,-2.3595,-2.3595,-2.3595,-2.3595,-2.3789,-2.4163,-2.3429,-2.3089,-2.3154,-2.236,-2.1823,-2.1527,-2.1534,-2.1343,-2.1104,-2.1104,-2.0966,-2.0715,-2.0715,-2.0539,-2.0275,-2.0275,-2.0075,-1.9798,-1.9798,-1.9307,-1.8561,-1.7599,-1.6754,-1.5967,-1.478,-1.4434,-1.4482,-1.4746,-1.4531,-1.416,-1.3965,-1.4023,-1.4287,-1.4912,-1.5244,-1.5108,-1.3906,-1.3666,-1.3304,-1.2151,-1.1538,-1.1269,-1.1411,-1.12,-1.1129,-1.1557,-1.1693,-1.1799,-1.187,-1.1932,-1.1759,-1.1082,-1.1136,-1.1049,-1.0665,-1.0802,-1.1089,-1.1414,-1.1945,-1.2529,-1.3246,-1.3536,-1.3838,-1.4082,-1.4088,-1.4088,-1.4088,-1.3794,-1.3567,-1.3407,-1.3106,-1.3046,-1.3213,-1.3213,-1.3213,-1.3127,-1.1404,-1.0347,-0.9776,-0.8082,-0.7109,-0.6702,-0.6702,-0.6742,-0.6803,-0.6803,-0.6898,-0.7024,-2.9457,-2.9408,-2.9147,-2.8827,-2.8667,-2.823,-2.713,-2.6826,-2.6691,-2.6691,-2.6691,-2.6691,-2.6691,-2.6691,-2.6556,-2.6156,-2.5615,-2.5259,-2.5105,-2.4158,-2.3595,-2.3595,-2.3595,-2.3595,-2.3595,-2.3595,-2.3595,-2.3595,-2.3406,-2.3039,-2.2558,-2.2311,-2.1864,-2.1355,-2.1288,-2.0978,-2.0539,-2.0539,-2.025,-1.9798,-1.9798,-1.9798,-1.9798,-1.9798,-1.9748,-1.9698,-1.9773,-1.9374,-1.8608,-1.7793,-1.7092,-1.636,-1.5093,-1.4687,-1.4619,-1.4238,-1.3887,-1.3516,-1.3096,-1.3496,-1.4175,-1.5019,-1.5264,-1.4915,-1.3537,-1.307,-1.2581,-1.1115,-1.0681,-1.0698,-1.0882,-1.0962,-1.1189,-1.1777,-1.1728,-1.1741,-1.1931,-1.1787,-1.1556,-1.1069,-1.1035,-1.0929,-1.0658,-1.1049,-1.1376,-1.1423,-1.2412,-1.3046,-1.3133,-1.3654,-1.3975,-1.4021,-1.4062,-1.4088,-1.4088,-1.3794,-1.3667,-1.3707,-1.3414,-1.33,-1.334,-1.334,-1.334,-1.326,-1.1936,-1.086,-0.9876,-0.8574,-0.7507,-0.6766,-0.6766,-0.6848,-0.6959,-0.6959,-0.7037,-0.7139,-2.9511,-3.0106,-3.0384,-2.9991,-2.9645,-2.9122,-2.8345,-2.7349,-2.6691,-2.6691,-2.6691,-2.6691,-2.6691,-2.6691,-2.6657,-2.659,-2.6139,-2.5486,-2.4592,-2.3948,-2.3595,-2.3595,-2.3595,-2.3595,-2.3595,-2.3595,-2.3595,-2.3595,-2.25,-2.1946,-2.1852,-2.0749,-2.0182,-2.0079,-2.0076,-2.0012,-1.9936,-1.9936,-1.9886,-1.9798,-1.9798,-1.9798,-1.9798,-1.9798,-1.9522,-1.9158,-1.9648,-1.942,-1.8782,-1.7502,-1.7028,-1.662,-1.4787,-1.4238,-1.4165,-1.4097,-1.4038,-1.3945,-1.3525,-1.3506,-1.3721,-1.4155,-1.4609,-1.4744,-1.4141,-1.3494,-1.2757,-1.1834,-1.1045,-1.0638,-1.0678,-1.0828,-1.1189,-1.1777,-1.187,-1.1957,-1.2198,-1.2231,-1.1852,-1.1089,-1.1209,-1.1149,-1.0672,-1.0862,-1.1162,-1.141,-1.183,-1.2291,-1.2869,-1.3153,-1.346,-1.3701,-1.3955,-1.4088,-1.4088,-1.3794,-1.3768,-1.4015,-1.3721,-1.3707,-1.3955,-1.3955,-1.3955,-1.3864,-1.1708,-1.0675,-1.0333,-0.819,-0.7155,-0.7071,-0.7071,-0.7085,-0.7105,-0.7105,-0.7122,-0.7139,-3.0469,-3.0527,-3.0513,-3.0578,-2.9686,-2.8711,-2.7969,-2.7371,-2.6939,-2.6725,-2.6691,-2.6691,-2.6691,-2.6691,-2.6691,-2.6691,-2.6262,-2.5779,-2.5297,-2.4511,-2.4032,-2.4032,-2.3752,-2.3595,-2.3595,-2.3595,-2.3595,-2.3595,-2.3024,-2.256,-2.2207,-2.128,-2.067,-2.0295,-1.9952,-1.9648,-1.9384,-1.9384,-1.9384,-1.9359,-1.9058,-1.912,-1.9359,-1.9058,-1.8794,-1.8618,-1.8857,-1.8982,-1.8759,-1.7387,-1.7084,-1.7003,-1.5093,-1.4482,-1.4434,-1.4145,-1.4077,-1.4038,-1.3896,-1.3848,-1.3945,-1.4375,-1.4639,-1.4667,-1.43,-1.3906,-1.3304,-1.2081,-1.1531,-1.1157,-1.089,-1.0902,-1.1129,-1.1557,-1.1693,-1.1846,-1.2051,-1.2131,-1.1893,-1.1316,-1.1343,-1.1196,-1.0678,-1.0962,-1.1283,-1.1416,-1.1997,-1.2533,-1.2808,-1.3039,-1.3273,-1.3407,-1.3848,-1.4088,-1.4088,-1.3948,-1.3948,-1.4088,-1.3948,-1.3955,-1.4088,-1.4088,-1.4088,-1.3997,-1.1649,-1.0611,-1.0438,-0.8097,-0.7139,-0.7139,-0.7139,-0.7139,-0.7139,-0.7139,-0.7139,-0.7139,-3.076,-3.0797,-3.0759,-3.0739,-2.9755,-2.8694,-2.7857,-2.7469,-2.7147,-2.6758,-2.6691,-2.6691,-2.6691,-2.6691,-2.6691,-2.6691,-2.6367,-2.6139,-2.6139,-2.5281,-2.4657,-2.4389,-2.3879,-2.3595,-2.3595,-2.3595,-2.3535,-2.3385,-2.339,-2.3069,-2.2433,-2.1796,-2.1245,-2.0746,-1.9978,-1.9397,-1.897,-1.8894,-1.8783,-1.8794,-1.838,-1.8455,-1.8794,-1.8367,-1.8129,-1.8028,-1.8154,-1.8392,-1.8425,-1.7191,-1.7098,-1.7137,-1.5431,-1.4932,-1.4863,-1.4531,-1.4379,-1.433,-1.4136,-1.4077,-1.4184,-1.4678,-1.4785,-1.4714,-1.4536,-1.4323,-1.3786,-1.2381,-1.1958,-1.1604,-1.1036,-1.0895,-1.1009,-1.1369,-1.1418,-1.157,-1.185,-1.1853,-1.169,-1.1321,-1.1323,-1.1122,-1.0672,-1.1089,-1.1423,-1.1423,-1.2178,-1.2721,-1.2721,-1.2933,-1.3133,-1.3206,-1.3647,-1.3948,-1.4088,-1.4015,-1.4015,-1.4088,-1.4088,-1.4088,-1.4088,-1.4088,-1.4088,-1.3997,-1.1649,-1.0611,-1.0438,-0.8097,-0.7139,-0.7139,-0.7139,-0.7139,-0.7139,-0.7139,-0.7139,-0.7139,-2.9329,-3.0944,-3.1946,-3.0516,-3.0519,-3.0322,-2.9154,-2.8014,-2.7147,-2.6758,-2.6691,-2.6691,-2.6691,-2.6691,-2.6691,-2.6691,-2.6657,-2.6657,-2.6657,-2.6175,-2.5449,-2.443,-2.3879,-2.3595,-2.3595,-2.3595,-2.3325,-2.2783,-2.279,-2.2451,-2.1757,-2.1159,-2.0845,-2.0733,-1.9595,-1.907,-1.8945,-1.848,-1.8267,-1.8267,-1.8229,-1.8229,-1.8254,-1.8229,-1.789,-1.7513,-1.8028,-1.7903,-1.7455,-1.6951,-1.681,-1.6708,-1.5693,-1.5371,-1.5361,-1.5322,-1.5312,-1.5146,-1.4291,-1.4077,-1.4184,-1.4678,-1.4785,-1.4893,-1.5255,-1.4746,-1.3965,-1.307,-1.2328,-1.1538,-1.0771,-1.0658,-1.0775,-1.1336,-1.1216,-1.1243,-1.179,-1.165,-1.1376,-1.1062,-1.1022,-1.0902,-1.0651,-1.1089,-1.1423,-1.1423,-1.1991,-1.2338,-1.2338,-1.2619,-1.2913,-1.32,-1.3253,-1.3534,-1.4082,-1.3814,-1.3814,-1.4088,-1.4088,-1.4088,-1.4088,-1.4088,-1.4088,-1.3997,-1.1649,-1.0611,-1.0438,-0.8097,-0.7139,-0.7139,-0.7139,-0.7139,-0.7139,-0.7139,-0.7139,-0.7139,-3.0448,-3.1219,-3.1659,-3.1054,-3.068,-3.0057,-2.8847,-2.8085,-2.753,-2.7115,-2.6841,-2.6691,-2.6691,-2.6691,-2.6691,-2.6691,-2.6691,-2.6691,-2.6691,-2.6262,-2.554,-2.443,-2.3879,-2.3595,-2.3595,-2.3221,-2.2906,-2.2724,-2.2295,-2.1752,-2.1069,-2.0864,-2.0529,-2.0132,-1.9376,-1.881,-1.8474,-1.7915,-1.7689,-1.7664,-1.73,-1.7375,-1.7652,-1.73,-1.7024,-1.6873,-1.7087,-1.725,-1.7302,-1.6727,-1.6604,-1.6662,-1.5835,-1.5481,-1.5361,-1.5098,-1.5029,-1.4951,-1.4619,-1.4531,-1.458,-1.4746,-1.4785,-1.4893,-1.5312,-1.5167,-1.4681,-1.3605,-1.2789,-1.2015,-1.1056,-1.043,-1.0207,-1.0795,-1.0795,-1.0862,-1.1269,-1.1383,-1.1316,-1.1029,-1.0995,-1.0875,-1.0651,-1.1089,-1.1423,-1.1423,-1.1971,-1.2305,-1.2305,-1.2412,-1.2612,-1.2913,-1.2746,-1.2933,-1.354,-1.3607,-1.3607,-1.3547,-1.3728,-1.3814,-1.3814,-1.3814,-1.3915,-1.3997,-1.1649,-1.0611,-1.0438,-0.8097,-0.7139,-0.7139,-0.7139,-0.7139,-0.7139,-0.7139,-0.7139,-0.7139,-3.0632,-3.1458,-3.1825,-3.0815,-3.0613,-3.0094,-2.8634,-2.8129,-2.7754,-2.7348,-2.6971,-2.6691,-2.6691,-2.6691,-2.6691,-2.6691,-2.6691,-2.6691,-2.6691,-2.6262,-2.554,-2.443,-2.3834,-2.345,-2.331,-2.2697,-2.2263,-2.2054,-2.1814,-2.1361,-2.0709,-2.0678,-2.0486,-2.0059,-1.915,-1.8548,-1.8166,-1.7441,-1.7112,-1.7074,-1.6685,-1.676,-1.7074,-1.6672,-1.6522,-1.6522,-1.6522,-1.6773,-1.7048,-1.6465,-1.6448,-1.6519,-1.5754,-1.5265,-1.4951,-1.4668,-1.458,-1.4609,-1.4746,-1.4687,-1.4648,-1.4912,-1.498,-1.5059,-1.5342,-1.541,-1.5052,-1.3832,-1.3226,-1.2522,-1.1338,-1.0578,-1.0212,-1.0537,-1.0624,-1.0628,-1.0828,-1.1029,-1.1082,-1.0882,-1.0855,-1.0782,-1.0645,-1.1089,-1.1423,-1.1423,-1.1971,-1.2305,-1.2305,-1.2392,-1.2532,-1.2815,-1.2545,-1.2645,-1.306,-1.326,-1.3313,-1.3213,-1.3507,-1.3559,-1.3559,-1.3559,-1.3808,-1.399,-1.1912,-1.0888,-1.0438,-0.8444,-0.7401,-0.7139,-0.7139,-0.7139,-0.7139,-0.7139,-0.7139,-0.7139,-2.9305,-3.1586,-3.2761,-2.9562,-3.0338,-3.0716,-2.8706,-2.8129,-2.7754,-2.7365,-2.6971,-2.6691,-2.6691,-2.6691,-2.6691,-2.6691,-2.6691,-2.6691,-2.6691,-2.6262,-2.5524,-2.4455,-2.3778,-2.3161,-2.2724,-2.2024,-2.1365,-2.0722,-2.1365,-2.1335,-2.0684,-2.0695,-2.0709,-2.0638,-1.8954,-1.8209,-1.8126,-1.7007,-1.6522,-1.6522,-1.6522,-1.6522,-1.6522,-1.6522,-1.6522,-1.6522,-1.6522,-1.6522,-1.6467,-1.6334,-1.6279,-1.6184,-1.5335,-1.4661,-1.4077,-1.4077,-1.4077,-1.4238,-1.4658,-1.4463,-1.4291,-1.5195,-1.541,-1.541,-1.541,-1.541,-1.5052,-1.388,-1.3627,-1.3102,-1.1457,-1.11,-1.097,-1.0634,-1.0618,-1.0618,-1.0624,-1.0624,-1.0624,-1.0624,-1.0624,-1.0624,-1.0624,-1.1089,-1.1423,-1.1423,-1.1971,-1.2305,-1.2305,-1.2585,-1.2822,-1.2822,-1.2822,-1.2822,-1.2822,-1.2822,-1.2899,-1.3206,-1.35,-1.3641,-1.3641,-1.3559,-1.3808,-1.3984,-1.2575,-1.1416,-1.0524,-0.9405,-0.8193,-0.7139,-0.7139,-0.7139,-0.7139,-0.7139,-0.7139,-0.7139,-2.9843,-3.0613,-3.098,-3.0008,-3.0246,-3.0186,-2.8985,-2.8308,-2.7869,-2.7754,-2.7115,-2.6691,-2.6691,-2.6691,-2.6691,-2.6691,-2.6691,-2.6691,-2.6691,-2.6068,-2.5411,-2.4725,-2.3847,-2.3343,-2.32,-2.1741,-2.0917,-2.0722,-2.0423,-2.0183,-2.0004,-1.9983,-1.9982,-1.9967,-1.9059,-1.8462,-1.8086,-1.735,-1.6837,-1.6522,-1.6522,-1.6522,-1.6522,-1.6522,-1.6522,-1.6522,-1.6522,-1.6522,-1.6504,-1.6448,-1.6396,-1.6184,-1.5335,-1.4661,-1.4019,-1.3779,-1.4121,-1.4482,-1.4014,-1.4228,-1.4727,-1.5273,-1.5186,-1.5049,-1.5342,-1.5186,-1.4875,-1.4524,-1.3802,-1.3182,-1.2869,-1.1839,-1.1063,-1.1381,-1.0739,-1.0321,-1.0598,-1.0624,-1.0624,-1.0624,-1.0624,-1.0624,-1.0624,-1.1089,-1.1423,-1.1423,-1.1971,-1.2305,-1.2305,-1.2385,-1.2438,-1.2438,-1.2438,-1.2438,-1.2438,-1.2721,-1.2685,-1.2579,-1.3093,-1.334,-1.3347,-1.3547,-1.3808,-1.3997,-1.2771,-1.1571,-1.0524,-0.9405,-0.8193,-0.7139,-0.7139,-0.7139,-0.7139,-0.7139,-0.7139,-0.7139,-2.9696,-3.0246,-3.0467,-2.9843,-2.9989,-2.9934,-2.9104,-2.8482,-2.8047,-2.7926,-2.7317,-2.6873,-2.6725,-2.6691,-2.6691,-2.6691,-2.6691,-2.6573,-2.6285,-2.5862,-2.5327,-2.4697,-2.367,-2.2954,-2.2561,-2.1076,-2.0303,-2.0303,-1.9884,-1.969,-1.969,-1.969,-1.969,-1.969,-1.9132,-1.8612,-1.8066,-1.7544,-1.6993,-1.6522,-1.6522,-1.6522,-1.6522,-1.6522,-1.6522,-1.6522,-1.6522,-1.6522,-1.6522,-1.6522,-1.6284,-1.5962,-1.5456,-1.4708,-1.3922,-1.3711,-1.3818,-1.3955,-1.3603,-1.3769,-1.417,-1.4756,-1.4717,-1.459,-1.4853,-1.4844,-1.4736,-1.4561,-1.4115,-1.3737,-1.3639,-1.274,-1.1911,-1.1805,-1.1247,-1.0712,-1.0598,-1.0624,-1.0624,-1.0624,-1.0624,-1.0624,-1.0624,-1.1089,-1.1523,-1.1757,-1.2098,-1.2305,-1.2305,-1.2412,-1.2478,-1.2478,-1.2599,-1.2665,-1.2665,-1.2839,-1.2779,-1.2485,-1.3093,-1.338,-1.3387,-1.3567,-1.3808,-1.4075,-1.3174,-1.224,-1.1209,-1.0009,-0.8886,-0.7753,-0.7316,-0.7139,-0.7139,-0.7139,-0.7139,-0.7139,-2.9163,-3.0173,-3.0723,-2.925,-2.9622,-2.9861,-2.9104,-2.8658,-2.829,-2.7936,-2.7477,-2.7078,-2.6758,-2.664,-2.6623,-2.6691,-2.664,-2.6319,-2.5642,-2.549,-2.5101,-2.4408,-2.3248,-2.22,-2.1335,-2.0284,-1.9762,-1.969,-1.969,-1.969,-1.969,-1.969,-1.969,-1.969,-1.9207,-1.865,-1.8066,-1.7585,-1.7034,-1.6522,-1.6522,-1.6522,-1.6522,-1.6522,-1.6522,-1.6522,-1.6522,-1.6522,-1.6522,-1.6522,-1.6095,-1.5588,-1.5588,-1.4846,-1.3915,-1.3836,-1.3481,-1.3155,-1.3369,-1.3203,-1.3105,-1.3838,-1.397,-1.4,-1.417,-1.4502,-1.4687,-1.4326,-1.4531,-1.4561,-1.391,-1.3681,-1.3267,-1.2204,-1.1888,-1.1531,-1.08,-1.0624,-1.0624,-1.0624,-1.0645,-1.0665,-1.0665,-1.1122,-1.1697,-1.2258,-1.2305,-1.2305,-1.2305,-1.2559,-1.2782,-1.2782,-1.2979,-1.314,-1.3166,-1.32,-1.3066,-1.2876,-1.3373,-1.3559,-1.3559,-1.3667,-1.3834,-1.4075,-1.3801,-1.3144,-1.2237,-1.1209,-1.0009,-0.8803,-0.7665,-0.7228,-0.7139,-0.7139,-0.7139,-0.7139,-2.9076,-2.9292,-2.942,-2.9049,-2.9122,-2.9195,-2.9012,-2.8658,-2.829,-2.7936,-2.7052,-2.6509,-2.669,-2.6184,-2.6065,-2.664,-2.6167,-2.5778,-2.5625,-2.4526,-2.3799,-2.3646,-2.2468,-2.1751,-2.1517,-2.0646,-2.0035,-1.969,-1.969,-1.969,-1.969,-1.969,-1.969,-1.969,-1.9566,-1.9006,-1.8106,-1.7987,-1.7394,-1.6522,-1.6522,-1.6522,-1.6522,-1.6522,-1.6522,-1.6522,-1.6522,-1.6522,-1.6522,-1.6522,-1.6095,-1.5588,-1.5588,-1.5315,-1.481,-1.4015,-1.4205,-1.4399,-1.3313,-1.3193,-1.334,-1.3193,-1.3154,-1.3418,-1.4414,-1.4717,-1.4853,-1.5088,-1.4951,-1.4827,-1.4975,-1.4499,-1.3987,-1.3708,-1.2618,-1.1772,-1.1593,-1.0982,-1.0624,-1.0624,-1.0762,-1.0902,-1.0902,-1.143,-1.1924,-1.2278,-1.2305,-1.2305,-1.2305,-1.2365,-1.2398,-1.2398,-1.2465,-1.2612,-1.2846,-1.3093,-1.318,-1.3113,-1.3474,-1.3559,-1.3654,-1.3881,-1.4028,-1.4082,-1.4021,-1.3328,-1.2242,-1.2066,-1.0697,-0.889,-0.8627,-0.7929,-0.7139,-0.7139,-0.7139,-0.7139,-2.9203,-2.9089,-2.8994,-2.8994,-2.8994,-2.8994,-2.8994,-2.8815,-2.854,-2.8183,-2.7151,-2.6481,-2.6453,-2.5635,-2.5372,-2.6116,-2.5828,-2.5456,-2.5101,-2.4019,-2.3241,-2.2885,-2.2262,-2.1823,-2.1612,-2.0975,-2.0431,-2.0,-1.9782,-1.969,-1.969,-1.969,-1.969,-1.969,-1.969,-1.9244,-1.8458,-1.8224,-1.7626,-1.6879,-1.6595,-1.6522,-1.6522,-1.6522,-1.6522,-1.6522,-1.6522,-1.6522,-1.6522,-1.6522,-1.6281,-1.6051,-1.6051,-1.5778,-1.5291,-1.4488,-1.4366,-1.427,-1.3184,-1.3037,-1.3154,-1.2939,-1.3027,-1.3359,-1.4023,-1.4326,-1.459,-1.5019,-1.5098,-1.5146,-1.5371,-1.505,-1.4628,-1.4273,-1.3476,-1.281,-1.2451,-1.2027,-1.16,-1.1226,-1.1312,-1.133,-1.1169,-1.1603,-1.1991,-1.2278,-1.2305,-1.2305,-1.2305,-1.2305,-1.2365,-1.2512,-1.2659,-1.2879,-1.3173,-1.348,-1.3627,-1.3627,-1.3781,-1.3854,-1.3861,-1.4015,-1.4088,-1.4088,-1.4088,-1.373,-1.3118,-1.2504,-1.1638,-1.0438,-0.9923,-0.9314,-0.8703,-0.8189,-0.7577,-0.7139,-2.9394,-2.9225,-2.9044,-2.9017,-2.8994,-2.8994,-2.8994,-2.8994,-2.8827,-2.8265,-2.7307,-2.6525,-2.6133,-2.5197,-2.4822,-2.5355,-2.5304,-2.4966,-2.4371,-2.3613,-2.2936,-2.2344,-2.231,-2.2106,-2.1735,-2.1306,-2.0846,-2.0314,-1.9909,-1.969,-1.969,-1.969,-1.969,-1.969,-1.969,-1.9406,-1.8855,-1.8419,-1.7867,-1.7271,-1.6837,-1.6595,-1.6522,-1.6522,-1.6522,-1.6522,-1.6522,-1.6522,-1.6522,-1.6522,-1.6522,-1.6522,-1.6522,-1.6151,-1.5632,-1.4926,-1.4329,-1.3779,-1.3104,-1.2881,-1.2881,-1.2881,-1.3145,-1.3437,-1.3584,-1.3945,-1.4365,-1.4805,-1.5166,-1.541,-1.541,-1.541,-1.5167,-1.451,-1.4273,-1.3974,-1.3312,-1.307,-1.2696,-1.1896,-1.1744,-1.1689,-1.1585,-1.1797,-1.2044,-1.2285,-1.2305,-1.2305,-1.2305,-1.2305,-1.2438,-1.2808,-1.2999,-1.33,-1.3641,-1.3888,-1.4035,-1.4088,-1.4088,-1.4088,-1.4088,-1.4088,-1.4088,-1.4088,-1.4088,-1.4088,-1.3997,-1.3027,-1.2504,-1.2242,-1.13,-1.0783,-1.0524,-0.9579,-0.8536,-0.7661,-2.9474,-2.9372,-2.9267,-2.904,-2.8994,-2.8994,-2.8994,-2.8994,-2.8607,-2.7507,-2.6682,-2.605,-2.5632,-2.5216,-2.4854,-2.4659,-2.4069,-2.3663,-2.3562,-2.2868,-2.2412,-2.231,-2.231,-2.2282,-2.2209,-2.1764,-2.1134,-2.0314,-1.9909,-1.969,-1.969,-1.969,-1.969,-1.969,-1.969,-1.9406,-1.8893,-1.8817,-1.8224,-1.7312,-1.7229,-1.6909,-1.6522,-1.6522,-1.6522,-1.6522,-1.6522,-1.6522,-1.6522,-1.6522,-1.6522,-1.6522,-1.6522,-1.6423,-1.6151,-1.5017,-1.4652,-1.434,-1.32,-1.2881,-1.2881,-1.2881,-1.292,-1.3154,-1.3887,-1.4385,-1.4814,-1.5234,-1.5371,-1.541,-1.541,-1.541,-1.5352,-1.5235,-1.4628,-1.4154,-1.4025,-1.3425,-1.2696,-1.1896,-1.1572,-1.1675,-1.2124,-1.2218,-1.2258,-1.2298,-1.2305,-1.2305,-1.2305,-1.2305,-1.2438,-1.2808,-1.2862,-1.3073,-1.3634,-1.3599,-1.3834,-1.4088,-1.4088,-1.4088,-1.4088,-1.4088,-1.4088,-1.4088,-1.4088,-1.4088,-1.4088,-1.3913,-1.3203,-1.2237,-1.2151,-1.1466,-1.0611,-1.0438,-1.0265,-1.0091,-2.9607,-2.9493,-2.931,-2.9062,-2.8994,-2.8994,-2.8994,-2.8631,-2.8146,-2.7606,-2.6299,-2.536,-2.5171,-2.469,-2.4242,-2.3896,-2.3579,-2.3393,-2.3393,-2.2716,-2.231,-2.231,-2.231,-2.231,-2.231,-2.1823,-2.1306,-2.0682,-2.0261,-1.9909,-1.969,-1.969,-1.969,-1.969,-1.969,-1.9566,-1.9332,-1.9043,-1.8612,-1.8145,-1.7544,-1.7146,-1.6909,-1.6595,-1.6522,-1.6522,-1.6522,-1.6522,-1.6522,-1.6522,-1.6522,-1.6522,-1.6522,-1.6522,-1.6337,-1.5466,-1.496,-1.4514,-1.3647,-1.3152,-1.2881,-1.2881,-1.3057,-1.3389,-1.3941,-1.4277,-1.4609,-1.5273,-1.541,-1.541,-1.541,-1.541,-1.541,-1.541,-1.5108,-1.4864,-1.4864,-1.4213,-1.325,-1.2138,-1.1616,-1.1597,-1.2017,-1.2204,-1.2305,-1.2305,-1.2305,-1.2305,-1.2305,-1.2305,-1.2438,-1.2808,-1.2913,-1.3213,-1.3641,-1.3808,-1.3955,-1.4088,-1.4088,-1.4088,-1.4088,-1.4088,-1.4088,-1.4088,-1.4088,-1.4088,-1.4088,-1.4088,-1.3822,-1.3294,-1.3294,-1.2595,-1.1552,-1.1552,-1.1123,-1.0611]},{"header":{"parameterUnit":"m.s-1","parameterCategory":1,"la1":30.6,"la2":28.766,"lo1":-90.7593,"lo2":-88.6598,"dy":0.0162,"dx":0.0183,"nx":116,"ny":114,"refTime":"2023-04-12T12:00:00:Z","depth":0,"parameterNumber":3,"parameterNumberName":"V-component_of_WINDS"},"data":[0.0,0.0,0.0,0.0,0.0,0.0,0.0,0.0,0.0,0.0,0.0,0.0,0.0,0.0,0.0,0.0,0.0,0.0,0.0,0.0,0.0,0.0,0.0,0.0,0.0,0.0,0.0,0.0,0.0,0.0,0.0,0.0,0.0,0.0,0.0,0.0,0.0,0.0,0.0,0.0,0.0,0.0,0.0,0.0,0.0,0.0,0.0,0.0,0.0,0.0,0.0,0.0,0.0,0.0,0.0,0.0,0.0,0.0,0.0,0.0,0.0,0.0,0.0,0.0,0.0,0.0,0.0,0.0,0.0,0.0,0.0,0.0,0.0,0.0,0.0,0.0,0.0,0.0,0.0,0.0,0.0,0.0,0.0,0.0,0.0,0.0,0.0,0.0,0.0,0.0,0.0,0.0,0.0,0.0,0.0,0.0,0.0,0.0,0.0,0.0,0.0,0.0,0.0,0.0,0.0,0.0,0.0,0.0,0.0,0.0,0.0,0.0,0.0,0.0,0.0,0.0,0.0,0.0,0.0,0.0,0.0,0.0,0.0,0.0,0.0,0.0,0.0,0.0,0.0,0.0,0.0,0.0,0.0,0.0,0.0,0.0,0.0,0.0,0.0,0.0,0.0,0.0,0.0,0.0,0.0,0.0,0.0,0.0,0.0,0.0,0.0,0.0,0.0,0.0,0.0,0.0,0.0,0.0,0.0,0.0,0.0,0.0,0.0,0.0,0.0,0.0,0.0,0.0,0.0,0.0,0.0,0.0,0.0,0.0,0.0,0.0,0.0,0.0,0.0,0.0,0.0,0.0,0.0,0.0,0.0,0.0,0.0,0.0,0.0,0.0,0.0,0.0,0.0,0.0,0.0,0.0,0.0,0.0,0.0,0.0,0.0,0.0,0.0,0.0,0.0,0.0,0.0,0.0,0.0,0.0,0.0,0.0,0.0,0.0,0.0,0.0,0.0,0.0,0.0,0.0,0.0,0.0,0.0,0.0,0.0,0.0,0.0,0.0,0.0,0.0,0.0,0.0,0.0,0.0,0.0,0.0,0.0,0.0,0.0,0.0,0.0,0.0,0.0,0.0,0.0,0.0,0.0,0.0,0.0,0.0,0.0,0.0,0.0,0.0,0.0,0.0,0.0,0.0,0.0,0.0,0.0,0.0,0.0,0.0,0.0,0.0,0.0,0.0,0.0,0.0,0.0,0.0,0.0,0.0,0.0,0.0,0.0,0.0,0.0,0.0,0.0,0.0,0.0,0.0,0.0,0.0,0.0,0.0,0.0,0.0,0.0,0.0,0.0,0.0,0.0,0.0,0.0,0.0,0.0,0.0,0.0,0.0,0.0,0.0,0.0,0.0,0.0,0.0,0.0,0.0,0.0,0.0,0.0,0.0,0.0,0.0,0.0,0.0,0.0,0.0,0.0,0.0,0.0,0.0,0.0,0.0,0.0,0.0,0.0,0.0,0.0,0.0,0.0,0.0,0.0,0.0,0.0,0.0,0.0,0.0,0.0,0.0,0.0,0.0,0.0,0.0,0.0,0.0,0.0,0.0,0.0,0.0,0.0,0.0,0.0,0.0,0.0,0.0,0.0,0.0,0.0,0.0,0.0,0.0,0.0,0.0,0.0,0.0,0.0,0.0,0.0,0.0,0.0,0.0,0.0,0.0,0.0,0.0,0.0,0.0,0.0,0.0,0.0,0.0,0.0,0.0,0.0,0.0,0.0,0.0,0.0,0.0,0.0,0.0,0.0,0.0,0.0,0.0,0.0,0.0,0.0,0.0,0.0,0.0,0.0,0.0,0.0,0.0,0.0,0.0,0.0,0.0,0.0,0.0,0.0,0.0,0.0,0.0,0.0,0.0,0.0,0.0,0.0,0.0,0.0,0.0,0.0,0.0,0.0,0.0,0.0,0.0,0.0,0.0,0.0,0.0,0.0,0.0,0.0,0.0,0.0,0.0,0.0,0.0,0.0,0.0,0.0,0.0,0.0,0.0,0.0,0.0,0.0,0.0,0.0,0.0,0.0,0.0,0.0,0.0,0.0,0.0,0.0,0.0,0.0,0.0,0.0,0.0,0.0,0.0,0.0,0.0,0.0,0.0,0.0,0.0,0.0,0.0,0.0,0.0,0.0,0.0,0.0,0.0,0.0,0.0,0.0,0.0,0.0,0.0,0.0,0.0,0.0,0.0,0.0,0.0,0.0,0.0,0.0,0.0,0.0,0.0,0.0,0.0,0.0,0.0,0.0,0.0,0.0,0.0,0.0,0.0,0.0,0.0,0.0,0.0,0.0,0.0,0.0,0.0,0.0,0.0,0.0,0.0,0.0,0.0,0.0,0.0,0.0,0.0,0.0,0.0,0.0,0.0,0.0,0.0,0.0,0.0,0.0,0.0,0.0,0.0,0.0,0.0,0.0,0.0,0.0,0.0,0.0,0.0,0.0,0.0,0.0,0.0,0.0,0.0,0.0,0.0,0.0,0.0,0.0,0.0,0.0,0.0,0.0,0.0,0.0,0.0,0.0,0.0,0.0,0.0,0.0,0.0,0.0,0.0,0.0,0.0,0.0,0.0,0.0,0.0,0.0,0.0,0.0,0.0,0.0,0.0,0.0,0.0,0.0,0.0,0.0,0.0,0.0,0.0,0.0,0.0,0.0,0.0,0.0,0.0,0.0,0.0,0.0,0.0,0.0,0.0,0.0,0.0,0.0,0.0,0.0,0.0,0.0,0.0,0.0,0.0,0.0,0.0,0.0,0.0,0.0,0.0,0.0,0.0,0.0,0.0,0.0,0.0,0.0,0.0,0.0,0.0,0.0,0.0,0.0,0.0,0.0,0.0,0.0,0.0,0.0,0.0,0.0,0.0,0.0,0.0,0.0,0.0,0.0,0.0,0.0,0.0,0.0,0.0,0.0,0.0,0.0,0.0,0.0,0.0,0.0,0.0,0.0,0.0,0.0,0.0,0.0,0.0,0.0,0.0,0.0,0.0,0.0,0.0,0.0,0.0,0.0,0.0,0.0,0.0,0.0,0.0,0.0,0.0,0.0,0.0,0.0,0.0,0.0,0.0,0.0,0.0,0.0,0.0,0.0,0.0,0.0,0.0,0.0,0.0,0.0,0.0,0.0,0.0,0.0,0.0,0.0,0.0,0.0,0.0,0.0,0.0,0.0,0.0,0.0,0.0,0.0,0.0,0.0,0.0,0.0,0.0,0.0,0.0,0.0,0.0,0.0,0.0,0.0,0.0,0.0,0.0,0.0,0.0,0.0,0.0,0.0,0.0,0.0,0.0,0.0,0.0,0.0,0.0,0.0,0.0,0.0,0.0,0.0,0.0,0.0,0.0,0.0,0.0,0.0,0.0,0.0,0.0,0.0,0.0,0.0,0.0,0.0,0.0,0.0,0.0,0.0,0.0,0.0,0.0,0.0,0.0,0.0,0.0,0.0,0.0,0.0,0.0,0.0,0.0,0.0,0.0,0.0,0.0,0.0,0.0,0.0,0.0,0.0,0.0,0.0,0.0,0.0,0.0,0.0,0.0,0.0,0.0,0.0,0.0,0.0,0.0,0.0,0.0,0.0,0.0,0.0,0.0,0.0,0.0,0.0,0.0,0.0,0.0,0.0,0.0,0.0,0.0,0.0,0.0,0.0,0.0,0.0,0.0,0.0,0.0,0.0,0.0,0.0,0.0,0.0,0.0,0.0,0.0,0.0,0.0,0.0,0.0,0.0,0.0,0.0,0.0,0.0,0.0,0.0,0.0,0.0,0.0,0.0,0.0,0.0,0.0,0.0,0.0,0.0,0.0,0.0,0.0,0.0,0.0,0.0,0.0,0.0,0.0,0.0,0.0,0.0,0.0,0.0,0.0,0.0,0.0,0.0,0.0,0.0,0.0,0.0,0.0,0.0,0.0,0.0,0.0,0.0,0.0,0.0,0.0,0.0,0.0,0.0,0.0,0.0,0.0,0.0,0.0,0.0,0.0,0.0,0.0,0.0,0.0,0.0,0.0,0.0,0.0,0.0,0.0,0.0,0.0,0.0,0.0,0.0,0.0,0.0,0.0,0.0,0.0,0.0,0.0,0.0,0.0,0.0,0.0,0.0,0.0,0.0,0.0,0.0,0.0,0.0,0.0,0.0,0.0,0.0,0.0,0.0,0.0,0.0,0.0,0.0,0.0,0.0,0.0,0.0,0.0,0.0,0.0,0.0,0.0,0.0,0.0,0.0,0.0,0.0,0.0,0.0,0.0,0.0,0.0,0.0,0.0,0.0,0.0,0.0,0.0,0.0,0.0,0.0,0.0,0.0,0.0,0.0,0.0,0.0,0.0,0.0,0.0,0.0,0.0,0.0,0.0,0.0,0.0,0.0,0.0,0.0,0.0,0.0,0.0,0.0,0.0,0.0,0.0,0.0,0.0,0.0,0.0,0.0,0.0,0.0,0.0,0.0,0.0,0.0,0.0,0.0,0.0,0.0,0.0,0.0,0.0,0.0,0.0,0.0,0.0,0.0,0.0,0.0,0.0,0.0,0.0,0.0,0.0,0.0,0.0,0.0,0.0,0.0,0.0,0.0,0.0,0.0,0.0,0.0,0.0,0.0,0.0,0.0,0.0,0.0,0.0,0.0,0.0,0.0,0.0,0.0,0.0,0.0,0.0,0.0,0.0,0.0,0.0,0.0,0.0,0.0,0.0,0.0,0.0,0.0,0.0,0.0,0.0,0.0,0.0,0.0,0.0,0.0,0.0,0.0,0.0,0.0,0.0,0.0,0.0,0.0,0.0,0.0,0.0,0.0,0.0,0.0,0.0,0.0,0.0,0.0,0.0,0.0,0.0,0.0,0.0,0.0,0.0,0.0,0.0,0.0,0.0,0.0,0.0,0.0,0.0,0.0,0.0,0.0,0.0,0.0,0.0,0.0,0.0,0.0,0.0,0.0,0.0,0.0,0.0,0.0,0.0,0.0,0.0,0.0,0.0,0.0,0.0,0.0,0.0,0.0,0.0,0.0,0.0,0.0,0.0,0.0,0.0,0.0,0.0,0.0,0.0,0.0,0.0,0.0,0.0,0.0,0.0,0.0,0.0,0.0,0.0,0.0,0.0,0.0,0.0,0.0,0.0,0.0,0.0,0.0,0.0,0.0,0.0,0.0,0.0,0.0,0.0,0.0,0.0,0.0,0.0,0.0,0.0,0.0,0.0,0.0,0.0,0.0,0.0,0.0,0.0,0.0,0.0,0.0,0.0,0.0,0.0,0.0,0.0,0.0,0.0,0.0,0.0,0.0,0.0,0.0,0.0,0.0,0.0,0.0,0.0,0.0,0.0,0.0,0.0,0.0,0.0,0.0,0.0,0.0,0.0,0.0,0.0,0.0,0.0,0.0,0.0,0.0,0.0,0.0,0.0,0.0,0.0,0.0,0.0,0.0,0.0,0.0,0.0,0.0,0.0,0.0,0.0,0.0,0.0,0.0,0.0,0.0,0.0,0.0,0.0,0.0,0.0,0.0,0.0,0.0,0.0,0.0,0.0,0.0,0.0,0.0,0.0,0.0,0.0,0.0,0.0,0.0,0.0,0.0,0.0,0.0,0.0,0.0,0.0,0.0,0.0,0.0,0.0,0.0,0.0,0.0,0.0,0.0,0.0,0.0,0.0,0.0,0.0,0.0,0.0,0.0,0.0,0.0,0.0,0.0,0.0,0.0,0.0,0.0,0.0,0.0,0.0,0.0,0.0,0.0,0.0,0.0,0.0,0.0,0.0,0.0,0.0,0.0,0.0,0.0,0.0,0.0,0.0,0.0,0.0,0.0,0.0,0.0,0.0,0.0,0.0,0.0,0.0,0.0,0.0,0.0,0.0,0.0,0.0,0.0,0.0,0.0,0.0,0.0,0.0,0.0,0.0,0.0,0.0,0.0,0.0,0.0,0.0,0.0,0.0,0.0,0.0,0.0,0.0,0.0,0.0,0.0,0.0,0.0,0.0,0.0,0.0,0.0,0.0,0.0,0.0,0.0,0.0,0.0,0.0,0.0,0.0,0.0,0.0,0.0,0.0,0.0,0.0,0.0,0.0,0.0,0.0,0.0,0.0,0.0,0.0,0.0,0.0,0.0,0.0,0.0,0.0,-3.6904,-3.6817,0.0,0.0,0.0,0.0,0.0,0.0,0.0,0.0,0.0,0.0,0.0,0.0,0.0,0.0,0.0,0.0,0.0,0.0,0.0,0.0,0.0,0.0,0.0,-2.8676,-2.866,-2.8698,-2.9404,0.0,0.0,0.0,0.0,0.0,0.0,0.0,-2.9754,-2.9718,-2.9626,-2.9512,-2.9662,-3.0083,-3.0722,-3.062,-3.1027,-3.1846,0.0,0.0,0.0,0.0,0.0,0.0,0.0,0.0,0.0,0.0,0.0,0.0,0.0,0.0,0.0,0.0,0.0,0.0,0.0,0.0,0.0,0.0,0.0,0.0,0.0,0.0,0.0,0.0,0.0,0.0,0.0,0.0,0.0,0.0,0.0,0.0,0.0,0.0,0.0,0.0,0.0,0.0,0.0,0.0,0.0,0.0,0.0,0.0,0.0,0.0,0.0,0.0,0.0,0.0,0.0,0.0,0.0,0.0,0.0,0.0,0.0,0.0,0.0,0.0,0.0,0.0,0.0,0.0,0.0,0.0,-3.802,-3.7768,0.0,0.0,0.0,0.0,0.0,0.0,0.0,0.0,0.0,0.0,0.0,0.0,0.0,0.0,0.0,0.0,0.0,0.0,0.0,0.0,0.0,-2.7786,-2.86,-2.8609,-2.8385,-2.784,-2.9015,-2.949,-2.883,-2.9413,-2.9773,-2.9718,-2.9773,-2.9736,-2.9626,-2.9645,-2.9567,-2.9394,-2.9996,-3.0511,-3.0984,-3.1594,-3.1863,-3.1845,-3.188,0.0,0.0,0.0,0.0,0.0,0.0,0.0,0.0,0.0,0.0,0.0,0.0,0.0,0.0,0.0,0.0,0.0,0.0,0.0,0.0,0.0,0.0,0.0,0.0,0.0,0.0,0.0,0.0,0.0,0.0,0.0,0.0,0.0,0.0,0.0,0.0,0.0,0.0,0.0,0.0,0.0,0.0,0.0,0.0,0.0,0.0,0.0,0.0,0.0,0.0,0.0,0.0,0.0,0.0,0.0,0.0,0.0,0.0,0.0,0.0,0.0,0.0,0.0,-3.8901,-3.8904,-3.8921,-3.9416,-3.9691,-3.9695,-3.8993,-3.8584,-3.8418,-3.8807,0.0,0.0,0.0,0.0,0.0,0.0,0.0,0.0,0.0,0.0,0.0,0.0,0.0,0.0,0.0,0.0,0.0,0.0,0.0,-2.7654,-2.8518,-2.8546,-2.8738,-2.9341,-2.9587,-2.9664,-2.9551,-2.9662,-2.9645,-2.9472,-2.9608,-2.9608,-2.9355,-2.9394,-2.9564,-2.982,-3.1147,-3.1647,-3.1364,-3.2475,-3.2811,-3.2496,-3.2609,-3.3118,-3.3857,0.0,0.0,0.0,0.0,0.0,0.0,0.0,0.0,0.0,0.0,0.0,0.0,0.0,0.0,0.0,0.0,0.0,0.0,0.0,0.0,0.0,0.0,0.0,0.0,0.0,0.0,0.0,0.0,0.0,0.0,0.0,0.0,0.0,0.0,0.0,0.0,0.0,0.0,0.0,0.0,0.0,-3.5898,-3.6511,0.0,0.0,0.0,0.0,0.0,0.0,0.0,0.0,0.0,0.0,0.0,0.0,0.0,-3.9272,-3.9255,-4.0436,-4.0985,-4.0985,-4.1511,-4.1764,-4.173,-4.1205,-4.1306,-4.1865,-4.1137,0.0,-4.005,-4.0746,0.0,0.0,0.0,0.0,0.0,0.0,0.0,0.0,0.0,0.0,0.0,0.0,0.0,0.0,0.0,0.0,0.0,0.0,0.0,0.0,0.0,-2.9551,-2.9926,-3.0245,-3.0203,-3.0163,-3.0203,-2.9696,-2.9395,-2.9353,-2.9433,-2.9412,-2.9307,-2.9813,-3.0299,-3.0751,-3.1291,-3.1579,-3.1637,-3.2456,-3.2713,-3.2548,-3.2619,-3.3027,-3.3652,-3.368,0.0,0.0,0.0,0.0,0.0,0.0,0.0,0.0,0.0,0.0,0.0,0.0,0.0,0.0,0.0,0.0,0.0,0.0,0.0,0.0,0.0,0.0,0.0,0.0,0.0,0.0,0.0,0.0,0.0,0.0,0.0,0.0,0.0,0.0,0.0,0.0,0.0,0.0,0.0,-3.5488,-3.5596,-3.6257,-3.6007,-3.5694,0.0,0.0,0.0,0.0,0.0,0.0,0.0,0.0,0.0,-3.8823,-4.0357,-4.1154,-4.1086,-4.2019,-4.2509,-4.2509,-4.239,-4.2286,-4.2286,-4.2405,-4.2625,-4.2929,-4.3047,-4.2475,-4.1426,-4.1427,-4.1001,-4.0451,0.0,0.0,0.0,0.0,-3.9179,-3.8824,0.0,0.0,0.0,0.0,0.0,0.0,0.0,0.0,0.0,0.0,0.0,0.0,-2.9907,-3.039,-3.0796,-3.094,-3.0646,-3.0472,-3.0494,-2.9669,-2.9163,-2.9123,-2.9166,-2.9203,-2.9175,-3.0042,-3.0749,-3.1203,-3.1266,-3.1429,-3.166,-3.2109,-3.2282,-3.2162,-3.2162,-3.2598,-3.3354,-3.3354,-3.3625,-3.4049,0.0,0.0,0.0,0.0,0.0,0.0,0.0,0.0,0.0,0.0,0.0,0.0,0.0,0.0,0.0,0.0,0.0,0.0,0.0,0.0,0.0,0.0,0.0,0.0,0.0,0.0,0.0,0.0,0.0,0.0,0.0,0.0,0.0,0.0,0.0,0.0,0.0,-3.6164,-3.6025,-3.6422,-3.6742,-3.6545,0.0,0.0,0.0,0.0,0.0,0.0,-3.8828,-3.8772,-3.9077,-3.9995,-4.1677,-4.2641,-4.2786,-4.3356,-4.3755,-4.3995,-4.3234,-4.2878,-4.2895,-4.325,-4.3521,-4.3741,-4.4113,-4.3521,-4.2252,-4.1799,-4.107,-4.0254,-3.979,-3.9665,-3.9665,-3.9617,-3.9259,-3.8853,0.0,0.0,0.0,0.0,0.0,0.0,0.0,0.0,0.0,0.0,0.0,-2.9791,-3.0474,-3.0538,-3.0802,-3.1575,-3.0882,-3.0351,-3.0215,-2.9527,-2.8975,-2.8662,-2.8834,-2.8905,-2.8834,-2.9743,-3.0374,-3.0734,-3.1445,-3.1605,-3.123,-3.164,-3.164,-3.1269,-3.1269,-3.1986,-3.3214,-3.3284,-3.3532,-3.3921,-3.4049,0.0,0.0,0.0,0.0,0.0,0.0,0.0,0.0,0.0,0.0,0.0,0.0,0.0,0.0,0.0,0.0,0.0,0.0,0.0,0.0,0.0,0.0,0.0,0.0,0.0,0.0,0.0,0.0,0.0,0.0,0.0,0.0,0.0,0.0,0.0,0.0,0.0,0.0,-3.8287,-3.9512,0.0,0.0,0.0,0.0,-3.6857,-3.7587,-3.8911,-4.0697,-4.0086,-4.0684,-4.2824,-4.2847,-4.3251,-4.4212,-4.4261,-4.472,-4.5585,-4.4823,-4.4451,-4.4434,-4.3741,-4.3826,-4.4485,-4.3775,-4.3031,-4.2286,-4.2252,-4.1494,-4.0305,-4.0254,-4.0336,-4.0417,-4.0286,-4.022,-4.0203,0.0,0.0,0.0,0.0,0.0,0.0,-2.9607,-2.9701,-2.9664,-2.955,-2.9472,-2.9729,-3.046,-3.0927,-3.1302,-3.1549,-3.1071,-3.0472,-2.9926,-2.8974,-2.8412,-2.8352,-2.8594,-2.9091,-2.9936,-2.9402,-2.9647,-3.0699,-3.0226,-2.9921,-2.977,-2.9921,-3.0177,-3.0497,-3.0497,-3.1337,-3.2745,-3.2777,-3.3207,-3.3895,-3.3947,-3.4023,0.0,0.0,0.0,0.0,0.0,0.0,0.0,0.0,0.0,0.0,0.0,0.0,0.0,0.0,0.0,0.0,0.0,0.0,0.0,0.0,0.0,0.0,0.0,0.0,0.0,0.0,0.0,0.0,0.0,0.0,0.0,0.0,0.0,0.0,0.0,0.0,0.0,-3.9945,-4.07,0.0,-4.0169,-4.0476,-4.0654,-4.0438,-4.0,-4.0497,-4.2187,-4.148,-4.1841,-4.3703,-4.4691,-4.5616,-4.6592,-4.6183,-4.6068,-4.6397,-4.5162,-4.4587,-4.457,-4.4282,-4.4316,-4.4553,-4.4282,-4.3724,-4.298,-4.2489,-4.1476,-4.0188,-4.0188,-4.0188,-4.0238,-4.0188,-4.0188,-4.0188,0.0,0.0,0.0,0.0,0.0,-2.8484,-2.9064,-2.9401,-2.9531,-2.9451,-2.939,-2.9644,-3.035,-3.0854,-3.1207,-3.1458,-3.0969,-3.0386,-2.9771,-2.8792,-2.8246,-2.8192,-2.8317,-2.8828,-2.9756,-2.8928,-2.9003,-3.0126,-2.9377,-2.9011,-2.9011,-2.9011,-2.9302,-2.9907,-2.9907,-3.0803,-3.2321,-3.2321,-3.2913,-3.3868,-3.3895,-3.3947,-3.4049,0.0,0.0,0.0,0.0,0.0,0.0,0.0,0.0,0.0,0.0,0.0,0.0,0.0,0.0,0.0,0.0,0.0,0.0,0.0,0.0,0.0,0.0,0.0,0.0,0.0,0.0,0.0,0.0,0.0,0.0,0.0,0.0,0.0,0.0,-3.9628,-4.0408,-4.1116,-4.2176,-4.2649,-4.2036,-4.2416,-4.2705,-4.2739,-4.1933,-4.2236,-4.409,-4.2747,-4.2934,-4.5188,-4.5688,-4.6552,-4.7792,-4.7072,-4.6841,-4.7158,-4.5923,-4.5196,-4.4959,-4.4959,-4.4823,-4.4587,-4.4587,-4.3995,-4.2997,-4.2489,-4.1424,-4.007,-4.007,-4.007,-4.007,-4.007,-4.007,-4.007,0.0,0.0,0.0,0.0,0.0,-2.8049,-2.8101,-2.8753,-2.9272,-2.9283,-2.9302,-2.9555,-3.0236,-3.0239,-3.0503,-3.1274,-3.065,-3.0051,-2.9779,-2.9021,-2.8458,-2.8209,-2.8045,-2.8035,-2.8185,-2.8316,-2.8544,-2.8977,-2.896,-2.8943,-2.8979,-2.8979,-2.916,-2.9487,-2.9487,-3.0398,-3.1946,-3.1946,-3.2674,-3.377,-3.3868,-3.3895,-3.3921,0.0,0.0,0.0,0.0,0.0,0.0,0.0,0.0,0.0,0.0,0.0,0.0,0.0,0.0,0.0,0.0,0.0,0.0,0.0,0.0,0.0,0.0,0.0,0.0,0.0,0.0,0.0,0.0,0.0,0.0,0.0,0.0,0.0,-3.9917,-4.0999,-4.1799,-4.1833,-4.4164,-4.4916,-4.2891,-4.4514,-4.504,-4.3493,-4.3183,-4.4138,-4.6533,-4.3993,-4.4084,-4.749,-4.585,-4.5778,-4.7655,-4.6897,-4.7015,-4.7902,-4.7124,-4.6397,-4.5703,-4.5686,-4.528,-4.4587,-4.4587,-4.3741,-4.2354,-4.2303,-4.1441,-4.0138,-4.0104,-4.007,-4.007,-4.0121,-4.0121,-4.0171,0.0,0.0,0.0,0.0,0.0,-2.6672,-2.7835,-2.8307,-2.8682,-2.9148,-2.924,-2.9492,-3.0217,-3.0239,-3.0283,-3.0503,-3.0043,-2.9437,-2.8694,-2.8327,-2.8101,-2.7922,-2.7535,-2.7639,-2.8185,-2.7503,-2.7622,-2.8544,-2.8027,-2.7912,-2.8207,-2.8207,-2.8535,-2.9136,-2.9136,-2.9882,-3.1135,-3.1135,-3.1828,-3.2981,-3.3595,-3.386,-3.3895,0.0,0.0,0.0,0.0,0.0,0.0,0.0,0.0,0.0,0.0,0.0,0.0,0.0,0.0,0.0,0.0,0.0,0.0,0.0,0.0,0.0,0.0,0.0,0.0,0.0,0.0,0.0,0.0,0.0,0.0,0.0,-4.1146,-4.1334,-4.1226,-4.2688,-4.4194,-4.5281,-4.6031,-4.6473,-4.6413,-4.6307,-4.6354,-4.6619,-4.5797,-4.5898,-4.7259,-4.5955,-4.5911,-4.7572,-4.7104,-4.7389,-4.8576,-4.7872,-4.7642,-4.7902,-4.6616,-4.5906,-4.5686,-4.5145,-4.4773,-4.4587,-4.4587,-4.4333,-4.3859,-4.2743,-4.2049,-4.1576,-4.0493,-4.007,-4.0171,-4.0546,-4.0967,-4.1286,0.0,0.0,0.0,0.0,0.0,-2.5927,-2.7276,-2.782,-2.8341,-2.9089,-2.92,-2.9341,-2.9711,-2.9719,-2.9714,-2.9714,-2.9515,-2.9148,-2.8525,-2.8378,-2.8192,-2.8,-2.7725,-2.7727,-2.8074,-2.7497,-2.7448,-2.793,-2.7352,-2.7087,-2.7145,-2.6972,-2.7209,-2.7745,-2.811,-2.8937,-3.0085,-3.0412,-3.1144,-3.2173,-3.2981,-3.3521,-3.3842,-3.3895,-3.4473,-3.52,-3.471,-3.5401,-3.6436,-3.6036,0.0,0.0,0.0,0.0,0.0,0.0,0.0,0.0,0.0,0.0,0.0,0.0,0.0,0.0,0.0,0.0,0.0,0.0,0.0,0.0,0.0,0.0,0.0,0.0,-4.2988,-4.3907,-4.4221,-4.497,-4.594,-4.7124,-4.78,-4.8342,-4.8781,-4.8329,-4.8249,-4.8754,-4.7523,-4.7172,-4.8161,-4.6952,-4.6815,-4.8144,-4.7803,-4.808,-4.9001,-4.8578,-4.8376,-4.8359,-4.7192,-4.6464,-4.6143,-4.5399,-4.4874,-4.4587,-4.4587,-4.4401,-4.3995,-4.2794,-4.2117,-4.1711,0.0,0.0,0.0,0.0,-4.149,-4.175,0.0,0.0,0.0,-2.3917,-2.4602,-2.5493,-2.6479,-2.7276,-2.8091,-2.8938,-2.9123,-2.9134,-2.9017,-2.892,-2.8847,-2.8847,-2.8934,-2.8952,-2.8887,-2.8743,-2.8507,-2.821,-2.8183,-2.8075,-2.7897,-2.7809,-2.7613,-2.727,-2.6838,-2.644,-2.6156,-2.5791,-2.5765,-2.6092,-2.6802,-2.7767,-2.8902,-2.9641,-3.0448,-3.1329,-3.2045,-3.2871,-3.3678,-3.3831,-3.442,-3.5183,-3.5172,-3.5816,-3.6629,-3.6618,0.0,0.0,0.0,0.0,0.0,0.0,0.0,0.0,0.0,0.0,0.0,0.0,0.0,0.0,0.0,0.0,0.0,0.0,0.0,0.0,0.0,0.0,0.0,0.0,-4.5488,-4.7326,-4.8158,-4.77,-4.753,-4.8088,-4.9238,-4.9965,-4.9965,-4.9965,-4.9965,-4.9965,-4.8592,-4.8144,-4.894,-4.744,0.0,0.0,0.0,-4.8161,-4.9001,-4.9001,-4.8968,-4.8883,-4.8139,-4.7394,-4.665,-4.5906,-4.5213,-4.4587,-4.4587,-4.4181,-4.3487,-4.2816,-4.2072,-4.1308,-4.051,-4.0528,-4.1178,-4.1621,-4.1877,-4.1961,0.0,0.0,0.0,-2.3955,-2.4164,-2.4627,-2.5456,-2.6446,-2.7318,-2.7978,-2.8725,-2.9134,-2.9017,-2.8429,-2.8026,-2.8026,-2.8088,-2.8364,-2.885,-2.8533,-2.8281,-2.821,-2.8047,-2.7954,-2.7897,-2.7268,-2.7041,-2.7225,-2.648,-2.6243,-2.649,-2.6413,-2.6425,-2.6508,-2.6655,-2.7207,-2.8044,-2.8191,-2.909,-3.0448,-3.0595,-3.1531,-3.2908,-3.3576,-3.4348,-3.5,-3.455,-3.5808,-3.7571,-3.7243,-3.8622,-4.0434,-4.0503,-4.1177,0.0,0.0,0.0,0.0,0.0,0.0,0.0,0.0,0.0,0.0,0.0,0.0,0.0,0.0,0.0,0.0,0.0,0.0,0.0,-4.7089,-4.8592,-4.9697,-5.0512,-5.0541,-5.0231,-4.9707,-4.9407,-4.9221,-4.9221,-4.9221,-4.9221,-4.9221,-4.8928,-4.8798,-4.9001,-4.8656,-4.8639,-4.9001,-4.8798,-4.8798,-4.9001,-4.9001,-4.8714,-4.8122,-4.7378,0.0,-4.5889,-4.5145,-4.4722,-4.4587,-4.4587,-4.4485,-4.4338,-4.4078,-4.3458,-4.2517,-4.1261,-4.1402,-4.2302,-4.1937,-4.2386,-4.3105,0.0,0.0,0.0,0.0,-2.4114,-2.4486,-2.5373,-2.5968,-2.6692,-2.7751,-2.831,-2.8738,-2.9052,-2.839,-2.7911,-2.7911,-2.7932,-2.8077,-2.8437,-2.8578,-2.8633,-2.8608,-2.8507,-2.8456,-2.8456,-2.7655,-2.7222,-2.7211,-2.6195,-2.5699,-2.5677,-2.5484,-2.5401,-2.5419,-2.5823,-2.6493,-2.7392,-2.7781,-2.8713,-2.9969,-3.0379,-3.103,-3.1883,-3.2988,-3.426,-3.541,-3.5146,-3.6377,-3.807,-3.7863,-3.8953,-4.0431,-4.0912,-4.1415,-4.1743,0.0,0.0,0.0,0.0,0.0,0.0,0.0,0.0,0.0,0.0,0.0,0.0,0.0,0.0,-4.2387,-4.3944,0.0,-4.6421,-4.8772,-5.0239,-5.1233,-5.1681,-5.1481,-5.0796,-4.9701,-4.9881,-5.0118,-5.0118,-5.0439,-5.0659,-5.0659,-4.9965,-4.9543,-4.9543,-4.9204,-4.9001,-4.9001,-4.9001,-4.9001,-4.9001,-4.8646,-4.8274,-4.7902,-4.6786,-4.6058,-4.5686,-4.5248,-4.5052,-4.5089,-4.5372,-4.5511,-4.5425,-4.4593,-4.3703,-4.2798,-4.2097,-4.2162,-4.2711,-4.2657,-4.3014,-4.3444,0.0,0.0,0.0,0.0,0.0,-2.4543,-2.5355,-2.5596,-2.6135,-2.7375,-2.7672,-2.8022,-2.8664,-2.8015,-2.7514,-2.7534,-2.7661,-2.7827,-2.7994,-2.8688,-2.9062,-2.9017,-2.8994,-2.8994,-2.8994,-2.8062,-2.7419,-2.7067,-2.581,-2.5004,-2.4671,-2.4346,-2.4228,-2.4284,-2.4928,-2.5782,-2.6765,-2.7568,-2.8501,-2.9507,-3.0337,-3.0789,-3.109,-3.2235,-3.3794,-3.5428,-3.5679,-3.6682,-3.7948,-3.8182,-3.8923,-3.993,-4.0805,-4.1383,-4.1656,-4.1317,-4.1911,0.0,0.0,0.0,0.0,0.0,0.0,0.0,0.0,0.0,-4.1249,-4.2631,-4.3056,-4.3778,-4.5844,-4.7059,-4.8247,-4.9862,-5.1457,-5.2468,-5.2428,-5.1948,-5.1071,-4.9564,-5.034,-5.1048,-5.12,-5.1742,-5.2097,-5.2097,-5.0845,-5.0084,-5.0084,-4.9407,-4.9001,-4.9001,-4.9001,-4.9001,-4.9001,-4.8291,-4.7894,-4.7827,-4.6527,-4.5852,-4.5849,-4.5736,-4.5612,-4.5455,-4.5804,-4.6105,-4.6234,-4.4671,-4.3662,-4.3081,-4.2918,-4.2864,-4.2902,-4.3339,-4.3497,-4.3497,0.0,0.0,0.0,0.0,0.0,-2.4303,-2.4594,-2.5243,-2.5745,-2.5857,-2.6485,-2.6947,-2.6979,-2.6259,-2.5799,-2.5856,-2.646,-2.7177,-2.7957,-2.8644,-2.9017,-2.8994,-2.8994,-2.8994,-2.8994,-2.7512,-2.672,-2.6658,-2.5087,-2.4299,-2.426,-2.4207,-2.4303,-2.4461,-2.4554,-2.5157,-2.6142,-2.6949,-2.7775,-2.8621,-2.9489,-3.04,-3.1279,-3.142,-3.2406,-3.3807,-3.483,-3.5775,-3.6687,-3.7677,-3.91,-4.0559,-4.1423,-4.2729,-4.3632,-4.208,-4.2253,-4.2561,-4.0766,-4.0864,-4.1499,-4.1637,-4.174,-4.2034,0.0,0.0,-4.3435,-4.4285,-4.5038,-4.5828,-4.6801,-4.8214,-4.9811,-5.1472,-5.3103,-5.3908,-5.3267,-5.3122,-5.252,-5.1017,-5.0462,-5.0473,-5.115,-5.1285,-5.1336,-5.1336,-5.0557,-5.0084,-5.0084,-4.9407,-4.9001,-4.9001,-4.9001,-4.9001,-4.9001,-4.8291,-4.7826,-4.7738,-4.6874,-4.6464,-4.6315,-4.6323,-4.59,-4.5211,-4.4569,-4.4992,-4.6086,-4.4502,-4.4098,-4.4417,-4.3703,-4.341,-4.341,-4.3479,-4.3497,-4.3497,0.0,0.0,0.0,0.0,0.0,-2.4967,-2.517,-2.5094,-2.5151,-2.5597,-2.595,-2.6339,-2.6764,-2.6098,-2.5431,-2.5003,-2.604,-2.6866,-2.7218,-2.8346,-2.8994,-2.8994,-2.8994,-2.8994,-2.8994,-2.7438,-2.6657,-2.6762,-2.5153,-2.4426,-2.4561,-2.4561,-2.4591,-2.467,-2.467,-2.5506,-2.6949,-2.7305,-2.8256,-2.9598,-2.9961,-3.0385,-3.0874,-3.1864,-3.2594,-3.3226,-3.4275,-3.5182,0.0,-3.6978,-3.8103,-3.9259,-4.0081,-4.0847,-4.1301,-4.0583,-4.133,-4.2302,-4.1778,-4.1799,-4.2017,-4.2068,-4.2486,-4.2923,-4.3148,-4.3206,-4.3601,-4.5092,-4.5663,-4.6434,-4.8233,-4.9481,-5.0637,0.0,-5.2968,-5.3598,-5.328,-5.287,-5.254,-5.2355,-5.172,-5.1471,-5.1726,-5.3018,-5.3609,-5.3175,-5.2427,-5.2051,-5.2051,-5.0863,-5.0202,-5.0202,-5.0202,-4.9994,-4.9504,-4.8794,-4.8189,-4.7662,-4.6856,-4.646,-4.6413,-4.6801,-4.6744,-4.6282,-4.5445,-4.5207,-4.5273,-4.4599,-4.4218,-4.3975,-4.3626,-4.3497,-4.3497,-4.3497,-4.3497,-4.3497,0.0,0.0,0.0,0.0,0.0,0.0,0.0,0.0,-2.4704,-2.5299,-2.5373,-2.5596,-2.6172,-2.5726,-2.5132,-2.4555,-2.5653,-2.648,-2.6682,-2.7963,-2.8778,-2.8975,-2.9067,-2.9112,-2.9112,-2.7795,-2.7194,-2.7344,-2.594,-2.5346,-2.5498,-2.5498,-2.5527,-2.557,-2.557,-2.6363,-2.7701,-2.7911,-2.8797,-3.0083,-3.0564,-3.0756,-3.0929,-3.2352,-3.2769,-3.2786,-3.4152,-3.5051,-3.5739,-3.6549,-3.7257,-3.7919,-3.8733,-3.9171,-3.9361,-3.9129,-4.014,-4.1403,-4.1668,-4.2181,-4.2583,-4.2414,-4.316,-4.3861,-4.3517,-4.3596,-4.408,-4.5411,-4.6063,-4.6911,-4.8601,-4.9756,-5.0655,-5.1224,-5.2197,-5.2876,-5.2876,-5.2423,-5.2345,-5.3124,-5.2767,-5.2487,-5.2487,-5.401,-5.4783,-5.4234,-5.3474,-5.3086,-5.3086,-5.1812,-5.1086,-5.1086,-5.1086,-5.0714,-4.9902,-4.9174,-4.8493,-4.7808,-4.7055,-4.6756,-4.6937,-4.6976,-4.7041,-4.704,-4.5773,-4.5039,-4.469,-4.447,-4.403,-4.3497,-4.3497,-4.3497,-4.3497,-4.3497,-4.3497,-4.3497,0.0,0.0,0.0,0.0,0.0,0.0,0.0,0.0,0.0,-2.4537,-2.4537,-2.4555,-2.4574,-2.4555,-2.4537,-2.45,-2.519,-2.5948,-2.6665,-2.7472,-2.8235,-2.898,-2.9246,-2.9392,-2.9392,-2.8762,-2.8447,-2.8447,-2.7614,-2.7214,-2.7214,-2.7214,-2.7338,-2.751,-2.751,-2.7656,-2.7948,-2.8717,-2.9083,-2.9294,-3.0987,-3.166,-3.1756,-3.2583,-3.2459,-3.2171,-3.4658,-3.5572,-3.5719,-3.6609,-3.6922,-3.7085,-3.7962,-3.8774,-3.925,-3.8473,-3.8914,-3.9661,-3.9611,-4.1338,-4.3085,-4.2699,-4.384,-4.495,-4.4619,-4.5138,-4.5632,-4.5307,-4.6504,-4.754,-4.7243,-4.8526,-4.9627,-4.9646,-5.0986,-5.2032,-5.2032,-5.2032,-5.2284,-5.3091,-5.3201,-5.314,0.0,-5.3297,-5.3349,-5.3331,-5.2661,-5.2236,-5.2236,-5.1528,-5.1086,-5.1086,-5.1086,-5.0714,-4.9902,-4.9174,-4.8687,-4.8469,-4.772,-4.7674,-4.8194,-4.6635,-4.636,-4.6985,-4.4599,-4.3993,-4.4654,-4.3864,-4.3516,-4.3497,-4.3497,-4.3497,-4.3497,-4.3497,-4.3497,-4.3497,0.0,0.0,0.0,0.0,0.0,0.0,0.0,0.0,0.0,0.0,0.0,0.0,0.0,0.0,0.0,0.0,-2.5486,-2.5727,-2.6023,-2.6822,-2.7417,-2.7659,-2.8353,-2.8744,-2.8744,-2.8584,-2.8566,-2.8707,-2.7885,-2.784,-2.8479,-2.8479,-2.883,-2.9454,-2.9498,-2.9879,-3.0471,-3.0243,-3.1152,-3.2579,-3.1434,-3.2018,-3.3448,-3.2566,-3.2803,-3.3635,0.0,-3.3632,-3.3373,-3.4826,-3.5311,-3.5447,-3.6279,-3.6734,-3.7015,-3.7376,-3.8035,-3.8786,-3.934,0.0,-4.2433,-4.2825,-4.3769,-4.4633,-4.4874,-4.5147,-4.5393,-4.5556,-4.5632,-4.5772,-4.6151,-4.7392,-4.834,-4.834,-4.9932,-5.1206,-5.1206,-5.1665,-5.1903,-5.1646,-5.2087,0.0,0.0,0.0,0.0,-5.4078,-5.3806,-5.3642,-5.3642,-5.2898,-5.2463,-5.2463,-5.2463,-5.1846,-5.0504,-5.0232,-4.9543,-4.8338,-4.8123,-4.7801,-4.748,-4.6397,-4.5755,-4.5443,-4.4066,-4.3644,-4.3883,-4.3608,-4.3497,-4.3497,-4.3497,-4.3497,-4.3497,-4.3497,-4.3497,-4.3497,0.0,0.0,0.0,0.0,0.0,0.0,0.0,0.0,0.0,0.0,0.0,0.0,0.0,0.0,0.0,0.0,0.0,-2.5783,-2.6117,-2.6395,-2.6709,-2.6989,-2.798,-2.8411,-2.8123,-2.8831,-2.8981,-2.8509,-2.8605,-2.8806,-2.9154,-2.9778,-3.0364,-3.0922,-3.1299,-3.1772,-3.228,-3.1796,-3.2365,-3.3447,-3.2072,-3.252,-3.3916,-3.3103,-3.351,0.0,-3.3874,-3.3131,-3.2605,-3.3706,-3.4058,-3.4218,-3.5044,-3.5502,-3.5842,-3.6433,-3.7385,-3.836,-3.8851,-4.0428,-4.2013,-4.2505,-4.347,-4.4397,-4.4748,-4.5052,-4.5333,-4.5507,-4.5141,-4.4889,-4.5311,-4.6271,-4.6887,-4.6545,-4.8351,-4.9732,-4.9617,-5.0317,-5.083,-5.0784,-5.1261,-5.1481,0.0,0.0,0.0,-5.317,-5.3647,-5.3849,-5.3555,-5.3059,-5.2766,-5.2766,-5.2491,-5.172,-5.038,-5.0362,-4.9536,-4.7884,-4.7884,-4.7462,-4.6654,-4.5847,-4.5186,-4.4672,-4.3846,-4.3497,-4.3497,-4.3497,-4.3497,-4.3497,-4.3497,-4.3497,-4.3497,-4.3497,-4.3497,-4.3497,0.0,0.0,0.0,0.0,0.0,0.0,0.0,0.0,0.0,0.0,0.0,0.0,0.0,0.0,0.0,0.0,0.0,0.0,-2.6804,-2.6187,-2.6143,-2.6874,-2.8055,-2.8345,-2.7574,-2.9404,-2.9612,-2.8075,-2.9661,-3.0065,-2.938,-3.1025,-3.1823,-3.19,-3.2793,-3.3209,-3.3198,-3.3165,-3.2717,-3.2094,-3.2799,-3.3124,-3.3266,-3.3957,-3.4342,-3.4493,-3.4417,-3.3986,-3.3451,-3.339,-3.34,-3.3576,-3.4393,0.0,0.0,0.0,-3.69,-3.8197,-3.8067,-3.986,-4.1754,-4.1736,-4.3008,-4.4239,-4.4297,-4.497,-4.5513,-4.5144,-4.5025,-4.4884,0.0,-4.5148,-4.5391,-4.4503,-4.6373,-4.786,-4.7543,-4.8213,-4.9251,0.0,0.0,0.0,0.0,0.0,0.0,-5.0729,-5.2179,-5.2747,-5.1977,-5.194,-5.194,-5.194,-5.1206,-5.0398,-4.9591,-4.9536,-4.871,-4.7113,-4.7113,-4.6673,-4.581,-4.5057,-4.469,-4.4617,-4.3828,-4.3497,-4.3497,-4.3497,-4.3497,-4.3497,-4.3497,-4.3497,-4.3497,-4.3497,-4.3497,-4.3497,0.0,0.0,0.0,0.0,0.0,0.0,0.0,0.0,0.0,0.0,0.0,0.0,0.0,0.0,0.0,0.0,0.0,0.0,-2.6096,-2.6035,-2.5887,-2.5612,-2.6603,-2.7082,-2.694,-2.8039,-2.8753,-2.8964,-2.9399,-3.0143,-3.1149,-3.1641,-3.2192,-3.2773,-3.313,-3.327,-3.3239,-3.2634,-3.3006,-3.3842,-3.2109,-3.2567,-3.4108,-3.2376,-3.2945,-3.4484,-3.3184,-3.3435,-3.437,-3.4348,0.0,0.0,0.0,-3.5524,-3.5718,0.0,0.0,-3.7172,-3.7135,-3.8521,-4.0096,-4.0696,-4.2124,-4.3566,-4.4162,-4.497,-4.5413,-4.4724,-4.4107,-4.347,-4.2783,-4.3618,-4.45,-4.484,-4.624,0.0,-4.8807,-4.9133,0.0,-4.9373,0.0,-4.9991,-4.9318,-4.9829,0.0,0.0,-5.0472,-5.1316,-5.1114,-5.1114,-5.1114,-5.1114,-5.0912,-5.0398,-4.9591,-4.8948,-4.8122,-4.7113,-4.7113,-4.6379,-4.5002,-4.48,-4.4378,-4.3791,-4.3589,-4.3497,-4.3497,-4.3497,-4.3497,-4.3497,-4.3497,-4.3497,-4.3497,-4.3497,-4.3497,-4.3497,0.0,0.0,0.0,0.0,0.0,0.0,0.0,0.0,0.0,0.0,0.0,0.0,0.0,0.0,0.0,0.0,0.0,0.0,0.0,-2.5807,-2.5348,-2.5076,-2.6017,-2.6429,-2.6135,-2.7755,-2.8313,-2.7671,-2.914,-2.9981,-3.0195,-3.1398,-3.2178,-3.2633,-3.3122,-3.3331,-3.3317,-3.2856,-3.3009,0.0,0.0,-3.224,-3.3409,-3.1921,-3.2518,-3.4043,-3.3449,-3.4101,-3.5274,0.0,0.0,-3.5162,-3.5108,-3.5368,-3.5697,-3.5623,0.0,-3.6794,-3.6754,-3.7728,-3.8931,-3.9758,-4.0969,-4.2197,-4.3057,-4.3904,-4.4386,-4.3952,-4.3231,-4.2546,-4.2077,-4.2868,-4.3615,0.0,0.0,0.0,-4.7375,-4.7764,-4.7966,0.0,-4.8771,0.0,-4.8605,-4.9012,-4.9177,0.0,-5.0068,-5.0655,-5.0288,-5.027,-5.027,-5.027,-4.9572,-4.8802,-4.7976,-4.748,-4.6838,-4.6067,-4.6067,-4.5406,-4.4176,-4.4176,-4.392,-4.3497,-4.3497,-4.3497,-4.3497,-4.3497,-4.3597,-4.3726,-4.3726,-4.3836,-4.3992,-4.3992,-4.3992,-4.3992,0.0,0.0,0.0,0.0,0.0,0.0,0.0,0.0,0.0,0.0,0.0,-2.8122,-2.8253,-2.8922,0.0,0.0,0.0,0.0,0.0,0.0,-2.5181,-2.5152,-2.6125,-2.6313,-2.5578,-2.7857,-2.807,-2.6094,-2.8895,-2.9632,-2.8495,-3.0782,-3.1832,-3.187,-3.2693,-3.3042,-3.3043,-3.3048,-3.261,-3.1924,-3.1938,-3.1938,-3.1938,0.0,-3.2474,-3.3368,-3.4347,-3.5209,-3.5977,-3.6604,-3.5823,-3.4584,-3.468,-3.5154,-3.5665,-3.5604,-3.608,-3.6614,-3.6559,-3.718,-3.8046,-3.8911,-3.9815,-4.075,-4.1677,-4.2526,-4.3104,-4.3043,-4.2497,-4.1975,-4.1859,-4.2507,-4.2834,-4.2252,0.0,-4.5284,-4.5335,-4.5841,-4.641,-4.7011,-4.7674,-4.8303,-4.8758,-4.88,-4.9002,-4.947,-5.0168,-5.022,-4.9444,-4.9426,-4.937,-4.926,-4.7755,-4.6617,-4.5902,-4.5902,-4.5498,-4.4709,-4.4709,-4.4287,-4.3479,-4.3548,-4.3548,-4.3532,-4.3597,-4.3597,-4.3479,-4.3548,-4.3758,-4.4016,-4.4016,-4.4252,-4.458,-4.458,-4.458,-4.458,0.0,0.0,0.0,0.0,0.0,0.0,0.0,0.0,0.0,0.0,-2.6326,-2.8178,0.0,0.0,0.0,0.0,0.0,0.0,0.0,0.0,0.0,-2.5963,-2.6925,-2.7144,-2.641,-2.6898,-2.7655,-2.8667,-2.8565,-2.9117,-3.0263,-3.0775,-3.1017,-3.1028,-3.1176,-3.1253,-3.125,-3.1242,-3.1167,-3.1028,-3.1036,-3.1027,-3.1037,-3.1032,0.0,0.0,-3.4121,-3.5176,-3.5821,-3.5908,-3.5687,-3.5505,-3.61,-3.5951,-3.5528,-3.552,-3.5617,-3.5732,-3.5718,-3.6315,-3.7142,-3.8007,-3.9373,-4.075,-4.1677,-4.2526,0.0,-4.2331,-4.2085,-4.1815,-4.1126,-4.166,-4.2584,-4.3775,0.0,0.0,0.0,0.0,-4.6932,0.0,0.0,0.0,-4.8286,-4.8332,0.0,0.0,-4.9166,-4.9027,-4.8565,-4.8526,-4.8233,-4.7572,-4.6617,-4.6049,-4.5902,-4.5902,-4.5498,-4.4709,-4.4709,-4.4287,-4.3513,-4.3772,-4.3772,-4.3548,-4.4136,-4.4065,-4.3513,-4.3804,-4.3955,-4.4016,-4.4016,-4.4252,-4.458,-4.458,-4.458,-4.458,0.0,0.0,0.0,0.0,0.0,0.0,0.0,-2.3661,-2.4171,-2.4676,-2.5971,-2.7137,-2.7864,-2.8679,-2.924,0.0,0.0,0.0,0.0,0.0,0.0,-2.6698,-2.7205,-2.7376,-2.7132,-2.7661,-2.8164,-2.8614,0.0,-2.9613,-3.0035,-3.0523,-3.0755,-3.0748,-3.075,-3.0778,-3.0796,-3.08,-3.0796,-3.0804,-3.0794,-3.0798,-3.0807,-3.0799,0.0,0.0,-3.3046,-3.3841,-3.4619,-3.5463,-3.5075,-3.4455,-3.5682,-3.5815,-3.5493,-3.5493,-3.5493,-3.5493,-3.5493,-3.5795,-3.6392,-3.768,-3.8604,-3.9441,-4.0442,0.0,-4.1638,-4.0892,-4.1086,-4.1255,-4.0868,-4.1461,-4.2251,-4.3028,0.0,0.0,0.0,0.0,0.0,0.0,0.0,0.0,0.0,-4.7214,-4.7594,-4.8464,-4.8171,-4.8021,-4.8289,-4.7921,-4.7315,-4.6507,-4.57,-4.5076,-4.4654,-4.4635,-4.4452,-4.4085,-4.4085,-4.3965,-4.3791,-4.3924,-4.4016,-4.4095,-4.4447,-4.4392,-4.4095,-4.4252,-4.4428,-4.4587,-4.4587,-4.4806,-4.5118,-4.5118,-4.5118,-4.5118,0.0,0.0,0.0,0.0,0.0,0.0,0.0,-2.3193,-2.3784,-2.5298,-2.5754,-2.6153,-2.675,-2.818,-2.9152,0.0,0.0,0.0,0.0,0.0,0.0,0.0,-2.7587,-2.7744,-2.7561,0.0,0.0,-2.8493,-2.9689,0.0,0.0,0.0,0.0,0.0,-3.0704,-3.0735,-3.0774,-3.0782,-3.08,0.0,0.0,-3.081,-3.0797,0.0,0.0,0.0,0.0,-3.2596,-3.3505,-3.4802,-3.4256,-3.3265,-3.4583,-3.4989,-3.4995,-3.5187,-3.538,-3.5559,-3.5718,-3.5892,-3.6411,-3.7892,-3.8277,-3.8493,-3.9303,-4.0127,-4.0494,-3.9758,-4.0231,-4.0808,-4.0803,-4.1306,-4.1815,-4.1975,-4.3057,-4.4013,0.0,0.0,0.0,0.0,0.0,0.0,-4.6366,-4.6421,0.0,-4.7972,-4.7391,-4.7267,-4.7868,-4.7224,-4.6489,-4.5663,-4.4856,-4.4156,-4.3597,-4.3597,-4.3597,-4.3597,-4.3679,-4.3836,-4.4016,-4.4175,-4.4373,-4.4624,-4.4757,-4.4732,-4.4624,-4.4676,-4.4872,-4.5096,-4.5096,-4.5302,-4.5586,-4.5586,-4.5586,-4.5586,0.0,0.0,0.0,0.0,0.0,0.0,0.0,-2.3003,-2.3393,-2.4406,-2.525,-2.6096,-2.7054,-2.8268,-2.9026,0.0,0.0,0.0,0.0,0.0,0.0,0.0,0.0,0.0,0.0,0.0,0.0,-3.0087,-2.9528,0.0,0.0,0.0,0.0,0.0,0.0,-3.0697,-3.0715,-3.0767,0.0,0.0,0.0,0.0,0.0,0.0,0.0,0.0,0.0,-3.2566,-3.3303,0.0,0.0,-3.3203,-3.3297,-3.3274,-3.3396,-3.4187,0.0,0.0,-3.6406,-3.718,-3.8007,-3.8931,-3.9181,-3.9244,-3.9457,-4.0127,-4.0494,-3.9758,-4.0231,-4.0808,-4.0803,-4.0868,-4.1145,-4.1879,-4.2116,-4.2724,-4.419,0.0,0.0,0.0,0.0,0.0,-4.6761,-4.6838,-4.7049,-4.7529,-4.7205,-4.688,-4.6583,-4.6209,-4.5645,-4.4856,-4.403,-4.3719,-4.3955,-4.3955,-4.3955,-4.3955,-4.4318,-4.4318,-4.4028,-4.4688,-4.4853,-4.4631,-4.5243,-4.5161,-4.4606,-4.4919,-4.5074,-4.5096,-4.5096,-4.5302,-4.5586,-4.5586,-4.5586,-4.5586,0.0,0.0,0.0,0.0,0.0,0.0,-2.2893,-2.2995,-2.3375,-2.4224,-2.4739,-2.5344,-2.6211,-2.6874,-2.7734,-2.8883,0.0,0.0,0.0,0.0,0.0,0.0,0.0,0.0,0.0,0.0,-2.9208,-3.0169,-2.9366,0.0,0.0,0.0,0.0,0.0,0.0,-3.0668,-3.0691,-3.0724,0.0,0.0,0.0,0.0,0.0,0.0,0.0,0.0,0.0,0.0,-3.1884,-3.2914,0.0,0.0,-3.2276,-3.2023,0.0,0.0,-3.4921,-3.5765,-3.6502,-3.7334,-3.82,-3.9084,-3.8941,-3.8593,-3.8704,-3.941,-3.9813,-3.8993,-3.9865,-4.0792,-4.0803,-4.079,-4.0906,-4.1242,-4.1652,-4.215,-4.2815,0.0,0.0,0.0,0.0,0.0,0.0,0.0,-4.6184,-4.634,-4.6938,-4.6809,-4.5677,-4.5752,-4.5599,-4.5027,-4.423,-4.3881,-4.4016,-4.4016,-4.4117,-4.4346,-4.4527,-4.4631,-4.4663,-4.4966,-4.514,-4.5222,-4.5475,-4.5438,-4.5203,-4.5342,-4.54,-4.54,-4.54,-4.5495,-4.5586,-4.5586,-4.5586,-4.5586,0.0,0.0,0.0,0.0,0.0,-2.279,-2.2816,-2.2927,-2.3325,-2.4173,-2.4431,-2.4832,-2.5595,-2.585,-2.6543,-2.7918,-2.8237,0.0,0.0,0.0,0.0,0.0,0.0,0.0,0.0,0.0,-2.866,-2.9646,-2.9089,-2.9339,0.0,0.0,-3.0386,-3.053,0.0,0.0,0.0,0.0,0.0,0.0,0.0,0.0,0.0,0.0,0.0,0.0,0.0,0.0,0.0,0.0,0.0,0.0,0.0,0.0,-3.1022,0.0,-3.4541,-3.577,-3.6523,-3.7714,-3.8892,-3.9488,-3.9066,-3.844,-3.824,-3.893,-3.9353,-3.848,-3.9624,-4.0784,-4.0771,-4.0778,-4.0759,-4.0746,-4.1175,-4.1596,-4.1801,-4.2797,0.0,0.0,0.0,-4.4843,0.0,-4.5189,-4.5303,-4.5303,-4.6142,-4.6183,-4.5173,-4.5399,-4.5421,-4.5036,-4.4475,-4.4233,-4.4327,-4.4346,-4.4482,-4.4732,-4.4849,-4.4966,-4.5096,-4.5201,-4.5381,-4.5586,-4.5586,-4.5586,-4.5586,-4.5586,-4.5586,-4.5586,-4.5586,-4.5586,-4.5586,-4.5586,-4.5586,-4.5586,0.0,0.0,0.0,0.0,0.0,0.0,-2.2893,-2.2825,-2.3154,-2.4173,-2.4355,-2.4706,-2.5517,-2.5717,-2.5868,-2.6027,-2.6336,0.0,0.0,0.0,0.0,0.0,0.0,0.0,0.0,0.0,-2.7669,-2.8617,-2.8609,-2.9114,-3.0089,-3.0089,-3.0209,-3.041,0.0,0.0,0.0,0.0,0.0,0.0,0.0,0.0,-3.1792,0.0,0.0,0.0,0.0,0.0,0.0,0.0,0.0,0.0,0.0,-3.2047,-3.0865,-3.1689,-3.3674,-3.5781,-3.6588,-3.8604,-4.0469,-4.0489,-3.9933,-3.9193,-3.8375,-3.893,-3.9353,-3.848,-3.9624,-4.0784,-4.0713,-4.07,-4.0687,-4.0621,-4.0607,-4.0872,-4.161,-4.1658,0.0,0.0,0.0,-4.306,-4.3659,-4.4264,-4.4606,-4.4606,-4.4624,-4.477,-4.5074,-4.5096,-4.4962,-4.4624,-4.4599,-4.4732,-4.5074,-4.5096,-4.5096,-4.5096,-4.5438,-4.5419,-4.5096,-4.5438,-4.5586,-4.5586,-4.5586,-4.5586,-4.5586,-4.5586,-4.5586,-4.5586,-4.5586,-4.5586,-4.5586,-4.5586,-4.5586,-4.5586,0.0,0.0,0.0,0.0,0.0,0.0,0.0,-2.2685,-2.2903,-2.3352,-2.3513,-2.37,-2.4069,-2.4135,-2.4207,-2.4341,-2.5502,0.0,0.0,0.0,0.0,0.0,0.0,0.0,0.0,0.0,-2.6967,-2.8462,-2.786,-2.8376,-2.9888,-2.9883,-2.9977,-3.0128,-3.0157,-3.0241,0.0,0.0,0.0,0.0,0.0,-3.0635,-3.0828,0.0,0.0,0.0,0.0,0.0,0.0,0.0,0.0,0.0,0.0,0.0,0.0,-3.2712,-3.3315,-3.4206,-3.5604,-3.6999,-3.8183,-3.8782,-3.8349,-3.7699,-3.7448,-3.7656,-3.7958,-3.8188,-3.9135,-4.008,-4.0597,-4.0668,-4.0593,-4.0485,-4.0403,-4.0396,-4.052,0.0,0.0,0.0,-4.4175,-4.4713,0.0,0.0,-4.458,-4.458,-4.458,-4.4751,-4.5074,-4.5096,-4.5052,-4.4943,-4.4943,-4.4988,-4.5096,-4.5096,-4.5222,-4.5438,-4.555,-4.5531,-4.5457,-4.555,-4.5586,-4.5586,-4.5586,-4.5586,-4.5586,-4.5586,-4.5586,-4.5586,-4.5586,-4.5586,-4.5586,-4.5586,-4.5586,-4.5586,0.0,0.0,0.0,0.0,0.0,0.0,0.0,-2.2515,-2.2632,-2.2868,-2.297,-2.3095,-2.3265,-2.3313,-2.3383,-2.3517,-2.4485,0.0,0.0,0.0,0.0,0.0,0.0,0.0,0.0,-2.5801,-2.6395,-2.7811,-2.7606,-2.8277,-2.9719,-2.9717,-2.9805,-2.9918,-2.9977,-3.0052,0.0,0.0,0.0,0.0,-3.0348,-3.0359,-3.0359,0.0,0.0,0.0,0.0,0.0,0.0,0.0,0.0,0.0,0.0,0.0,0.0,0.0,-3.3283,-3.336,-3.5121,-3.6211,-3.7069,-3.795,-3.7572,-3.6966,-3.6985,-3.7288,-3.7647,-3.8044,-3.9052,-4.0017,-4.0438,-4.0454,-4.0334,-4.023,-4.012,-4.0118,-4.0274,0.0,0.0,0.0,0.0,0.0,0.0,-4.4083,-4.4165,-4.4165,-4.4165,-4.4337,-4.4663,-4.483,-4.4966,-4.5096,-4.5222,-4.5302,-4.5302,-4.5302,-4.5381,-4.5586,-4.5586,-4.5586,-4.5586,-4.5586,-4.5586,-4.5586,-4.5586,-4.5586,0.0,-4.5586,-4.5586,-4.5586,-4.5586,-4.5586,-4.5586,-4.5586,-4.5586,-4.5586,0.0,0.0,0.0,0.0,0.0,0.0,0.0,-2.2293,-2.2377,-2.2659,-2.2685,-2.279,-2.3052,-2.3144,-2.3241,-2.336,0.0,0.0,0.0,0.0,0.0,0.0,0.0,0.0,-2.419,-2.5041,-2.5893,-2.6709,-2.7585,-2.852,-2.9494,-2.9494,-2.9589,-2.9754,-2.9769,-2.9886,0.0,0.0,0.0,0.0,-3.0266,-3.0266,0.0,0.0,0.0,0.0,0.0,0.0,0.0,0.0,0.0,0.0,0.0,0.0,0.0,0.0,0.0,0.0,0.0,-3.6079,-3.6813,-3.7701,-3.7378,-3.6891,-3.6953,-3.7605,0.0,-3.8003,-3.922,-4.0246,-4.0118,-4.0024,-3.9963,-3.988,-3.9819,-4.0012,-4.0666,-4.0865,0.0,0.0,-4.2363,0.0,-4.2607,-4.3111,-4.3406,-4.3406,-4.3406,-4.3535,-4.38,-4.4289,-4.4713,-4.5001,-4.5362,-4.5568,-4.5586,-4.5586,-4.5586,-4.5586,-4.5586,-4.5586,-4.5586,-4.5586,-4.5586,-4.5586,-4.5586,-4.5547,-4.5509,-4.5509,-4.5509,-4.5509,-4.5509,-4.5547,-4.5586,-4.5586,-4.5586,-4.5586,0.0,0.0,0.0,0.0,0.0,0.0,0.0,0.0,0.0,0.0,-2.2542,-2.2659,-2.2995,-2.3045,-2.3095,0.0,0.0,0.0,0.0,0.0,0.0,0.0,0.0,0.0,-2.4113,-2.4296,-2.4852,-2.5818,-2.5965,-2.6875,-2.8443,-2.8443,-2.8836,-2.9492,-2.9551,-2.9663,0.0,0.0,0.0,0.0,-2.9975,-2.9991,0.0,0.0,0.0,0.0,-3.0212,-3.0269,0.0,0.0,0.0,0.0,0.0,0.0,0.0,0.0,-3.4347,-3.3872,-3.4985,0.0,-3.4943,-3.5817,-3.6356,-3.6664,0.0,-3.6848,-3.7161,-3.7651,0.0,-3.8457,-3.9014,-3.9524,-3.9816,-3.9698,-3.9628,-3.9765,-4.0337,0.0,0.0,0.0,-4.3041,-4.3523,-4.1746,-4.2169,-4.258,-4.258,-4.258,-4.2465,-4.2172,-4.3415,-4.4154,-4.4183,-4.4857,-4.5342,-4.5586,-4.5586,-4.5586,-4.5586,-4.5586,-4.5586,-4.5586,-4.5586,-4.5586,-4.5586,-4.5586,-4.522,-4.4605,-4.4605,-4.4605,-4.4605,-4.4605,-4.5009,-4.5586,-4.5586,-4.5586,-4.5586,0.0,0.0,0.0,0.0,0.0,0.0,0.0,0.0,0.0,0.0,0.0,0.0,0.0,0.0,0.0,0.0,0.0,0.0,0.0,0.0,0.0,0.0,0.0,-2.3747,-2.3912,-2.4299,-2.4762,-2.5324,-2.5693,-2.636,-2.7308,-2.7308,-2.7814,-2.873,-2.9265,-2.9551,0.0,0.0,0.0,-2.9756,-2.9792,0.0,0.0,0.0,0.0,0.0,-3.0258,-3.0145,0.0,-3.1351,-3.2086,-3.265,0.0,0.0,0.0,0.0,-3.4694,-3.4374,-3.4849,-3.4238,-3.3752,-3.5048,-3.5379,-3.5499,-3.5906,-3.6239,-3.6559,0.0,0.0,-3.7961,-3.7972,-3.91,-3.9783,-3.8996,-3.969,-4.0291,0.0,0.0,0.0,0.0,-4.1765,-4.2173,0.0,-4.1515,-4.1607,-4.1222,-4.1552,-4.1466,-4.0848,-4.214,-4.2876,-4.2843,-4.3577,-4.4479,-4.5586,-4.5586,-4.5393,-4.5009,-4.5413,-4.5393,-4.5009,-4.5413,-4.5586,-4.5586,-4.5586,-4.5316,-4.4893,-4.4893,-4.4893,-4.4855,-4.4451,-4.4836,-4.5547,-4.5143,-4.5259,-4.5586,0.0,0.0,0.0,0.0,0.0,0.0,0.0,0.0,0.0,0.0,0.0,0.0,0.0,0.0,0.0,0.0,0.0,0.0,0.0,0.0,0.0,0.0,0.0,-2.3539,-2.3656,-2.4432,-2.4842,-2.4867,-2.5608,-2.6038,-2.6188,-2.6355,-2.701,-2.8117,-2.9015,-2.9433,0.0,0.0,-2.9795,-2.9795,-2.9814,0.0,0.0,0.0,0.0,0.0,0.0,0.0,0.0,-3.0979,-3.1751,-3.2504,-3.324,0.0,0.0,0.0,0.0,0.0,-3.4666,-3.3733,-3.3157,-3.4786,-3.4732,-3.4467,-3.5207,0.0,0.0,0.0,0.0,0.0,0.0,-3.8558,0.0,-3.8319,-3.9822,0.0,0.0,0.0,0.0,-3.9877,-4.0055,0.0,-4.0689,-4.0855,-4.0634,-3.9937,-4.0432,-4.0451,-3.9753,-4.0767,-4.1361,-4.1418,-4.2087,-4.3309,-4.5127,-4.5299,-4.497,-4.4124,-4.5124,-4.5066,-4.4143,-4.5009,-4.5393,-4.5393,-4.5393,-4.5393,-4.5393,-4.5393,-4.5316,-4.5163,-4.4528,-4.4739,-4.5316,-4.472,-4.4874,-4.5393,0.0,0.0,0.0,0.0,0.0,0.0,0.0,0.0,0.0,0.0,0.0,0.0,0.0,0.0,0.0,0.0,0.0,0.0,0.0,0.0,0.0,-2.4016,-2.3576,-2.336,-2.343,-2.3513,-2.3659,-2.3829,-2.3959,-2.4462,-2.5321,-2.6056,-2.7299,-2.8924,-2.8971,-2.9112,-2.9363,-3.0012,-3.0246,-3.0138,-3.0371,0.0,0.0,0.0,0.0,0.0,0.0,0.0,0.0,-3.1899,-3.2482,-3.3156,-3.3366,0.0,0.0,0.0,0.0,0.0,-3.4517,-3.3845,-3.3379,-3.4444,-3.5124,-3.5558,-3.569,-3.5803,0.0,0.0,0.0,0.0,0.0,0.0,0.0,0.0,0.0,-4.0695,0.0,0.0,-4.1309,-4.0142,0.0,-4.0464,-3.9277,-3.9711,-4.0029,-3.99,-3.9386,-3.9019,-3.8891,-3.9687,-4.0288,-4.0579,-4.1324,-4.2159,-4.3042,-4.4017,-4.4085,-4.3297,-4.4855,-4.4778,-4.3316,-4.4124,-4.4489,-4.4489,-4.4489,-4.4489,-4.4489,-4.4489,-4.4105,-4.3547,-4.4085,-4.4374,-4.4566,-4.5182,-4.5009,-4.4489,0.0,0.0,0.0,0.0,0.0,0.0,0.0,0.0,0.0,0.0,0.0,0.0,0.0,0.0,0.0,0.0,0.0,0.0,0.0,0.0,0.0,-2.4023,-2.3842,-2.3583,-2.3259,-2.3217,-2.3247,-2.333,-2.3371,-2.3832,-2.4753,-2.6164,-2.7307,-2.8153,-2.8615,-2.891,-2.9081,-2.9866,-3.0149,-3.0155,0.0,0.0,0.0,0.0,0.0,0.0,0.0,0.0,0.0,0.0,-3.2171,-3.3141,-3.2772,0.0,0.0,0.0,0.0,0.0,-3.4386,-3.4078,-3.3846,-3.4223,-3.4348,-3.4581,-3.5437,-3.5576,0.0,0.0,0.0,0.0,0.0,0.0,0.0,0.0,0.0,-4.043,-4.1544,-4.0974,-4.0147,0.0,0.0,-3.9577,-3.8811,-3.9068,-3.9074,-3.8634,-3.8652,-3.8505,-3.8065,-3.8395,-3.8854,-3.9468,-3.9728,-4.025,-4.0959,-4.2277,-4.2758,-4.2412,-4.3662,-4.3605,-4.245,-4.372,-4.4066,-4.3701,-4.4605,-4.4489,-4.372,-4.4624,-4.4239,-4.3181,-4.3989,-4.4028,-4.3701,-4.4105,-4.3989,-4.3643,0.0,0.0,0.0,0.0,0.0,0.0,0.0,0.0,0.0,0.0,0.0,0.0,0.0,0.0,0.0,0.0,0.0,0.0,0.0,0.0,-2.4988,-2.4356,-2.4296,-2.3998,-2.3342,-2.3333,-2.3438,-2.3587,-2.3664,-2.4118,-2.4962,-2.6443,-2.7266,-2.7608,-2.8279,-2.876,-2.9028,-2.9857,-3.0259,-3.045,0.0,0.0,0.0,0.0,0.0,0.0,0.0,0.0,0.0,0.0,0.0,0.0,0.0,0.0,0.0,-3.4284,-3.4316,-3.4269,-3.4269,-3.4221,-3.4111,-3.3858,-3.343,-3.3483,-3.507,-3.5217,0.0,0.0,0.0,0.0,0.0,0.0,0.0,0.0,-4.1029,-4.0325,-4.124,-4.0024,-3.9044,-3.8982,-3.8879,-3.8768,-3.8707,-3.8707,-3.8432,-3.7826,-3.8175,-3.823,-3.779,-3.7588,-3.7771,-3.8395,-3.8506,-3.8794,-3.9297,-4.0711,-4.144,-4.1508,-4.2777,-4.2835,-4.1854,-4.3335,-4.3682,-4.3162,-4.4239,-4.4105,-4.3201,-4.4489,-4.4143,-4.2893,-4.3912,-4.3912,-4.3374,-4.3374,-4.3374,-4.3355,0.0,0.0,0.0,0.0,0.0,0.0,0.0,0.0,0.0,0.0,0.0,0.0,0.0,0.0,0.0,0.0,0.0,0.0,0.0,0.0,-2.5618,-2.5567,-2.5163,-2.4659,-2.4033,-2.4033,-2.4363,-2.506,-2.5115,-2.561,-2.6539,-2.6737,-2.7362,-2.8324,-2.8128,-2.8612,-2.9602,-3.0386,-3.1034,-3.1515,-3.1957,0.0,0.0,0.0,0.0,0.0,0.0,0.0,0.0,0.0,0.0,0.0,0.0,0.0,-3.3255,-3.3998,-3.4221,-3.4197,-3.4197,-3.4124,-3.3839,-3.3075,-3.2932,-3.3412,-3.4947,-3.4733,0.0,-3.6103,0.0,0.0,0.0,0.0,0.0,-3.9019,-3.9577,-4.0528,-4.1992,0.0,-3.9808,-3.9808,-3.9148,-3.8707,-3.8707,-3.8707,-3.8689,-3.8615,-3.7973,-3.7881,-3.8579,-3.79,-3.7544,-3.7569,-3.8526,-3.8877,-3.849,-3.964,-4.0345,-4.0623,-4.3047,-4.3374,-4.1835,-4.2758,-4.3143,-4.3066,-4.2374,-4.247,-4.3104,-4.3239,-4.2739,-4.2047,-4.3662,-4.4259,-4.4201,-4.4201,-4.4201,-4.4105,0.0,0.0,0.0,0.0,0.0,0.0,0.0,0.0,0.0,0.0,0.0,0.0,0.0,0.0,0.0,0.0,0.0,0.0,0.0,-2.5732,-2.5933,-2.5463,-2.5433,-2.5347,-2.5086,-2.4816,-2.4815,-2.5092,-2.5611,-2.6127,-2.6602,-2.7087,-2.7553,-2.8017,-2.7876,-2.8063,-2.8561,-2.9763,-3.0429,-3.072,-3.2023,-3.2161,0.0,0.0,0.0,0.0,0.0,0.0,0.0,0.0,-3.2456,-3.2411,-3.2562,-3.257,-3.2742,-3.3681,-3.3947,-3.3972,-3.4049,-3.4049,-3.3788,-3.2805,-3.2217,0.0,0.0,-3.4512,-3.4705,-3.4842,-3.6334,0.0,0.0,0.0,-4.006,-3.9533,-4.0152,-4.0887,-4.1479,-4.1038,-4.0469,-3.9955,-3.9184,-3.8707,-3.8707,-3.8248,-3.8157,-3.867,-3.8414,-3.8377,-3.8689,-3.7936,-3.7798,-3.8479,-3.8602,-3.8652,-3.8648,-3.9774,-4.014,-3.9758,-4.1239,-4.1604,-4.1008,-4.1893,-4.2008,-4.1527,-4.2277,-4.2181,-4.1566,-4.2643,-4.2277,-4.1104,-4.2297,-4.3085,-4.3547,-4.3547,-4.3547,-4.3508,0.0,0.0,0.0,0.0,0.0,0.0,0.0,0.0,0.0,0.0,0.0,0.0,0.0,0.0,0.0,0.0,0.0,0.0,-2.5059,-2.5785,-2.6027,-2.5528,-2.5782,-2.5914,-2.5914,-2.5678,-2.5592,-2.573,-2.6303,-2.6653,-2.6795,-2.7313,-2.763,-2.773,-2.7689,-2.7812,-2.8187,-2.9457,-3.0109,-3.0425,-3.1989,-3.2234,0.0,0.0,0.0,0.0,0.0,0.0,0.0,0.0,-3.2275,-3.2094,-3.2498,-3.2446,-3.2447,-3.3387,-3.3524,-3.3421,-3.3526,-3.3508,-3.3209,-3.2342,-3.179,0.0,-3.3138,-3.3689,-3.4144,-3.4881,-3.6389,-3.7658,-3.7897,0.0,0.0,0.0,-3.9992,-4.0359,-4.0359,-3.99,-3.9386,-3.8817,-3.8285,-3.7936,-3.7936,-3.7441,-3.7349,-3.79,-3.8175,-3.8322,-3.8322,-3.8111,-3.822,-3.8707,-3.8587,-3.8495,-3.8422,-3.9279,-3.9431,-3.8892,-3.945,-4.0123,-4.0931,-4.1527,-4.147,-4.095,-4.1873,-4.1604,-4.0585,-4.1777,-4.1739,-4.0989,-4.1873,-4.2566,-4.3162,-4.3682,-4.372,-4.347,0.0,0.0,0.0,0.0,0.0,0.0,0.0,0.0,0.0,0.0,0.0,0.0,0.0,0.0,0.0,0.0,0.0,0.0,-2.5378,-2.5696,-2.5917,-2.5974,-2.6243,-2.6383,-2.6383,-2.659,-2.6875,-2.7299,-2.7345,-2.7393,-2.7407,-2.7483,-2.7526,-2.7587,-2.7526,-2.7975,-2.8837,-2.9557,-3.0276,-3.0976,-3.1916,-3.2249,-3.2214,0.0,0.0,0.0,0.0,0.0,0.0,0.0,-3.2168,-3.1852,-3.2798,-3.2631,-3.226,-3.3125,-3.2976,-3.2527,-3.2562,-3.2419,-3.2074,-3.1636,-3.1798,0.0,-3.2517,-3.2107,-3.2739,-3.6692,-3.7489,-3.7698,-3.8524,-3.867,0.0,-3.867,-3.867,-3.8689,-3.8689,-3.7294,-3.6303,-3.6303,-3.6285,-3.6285,-3.6303,-3.6285,-3.6285,-3.6303,-3.7037,-3.7507,-3.7507,-3.8498,-3.8734,-3.7932,-3.8485,-3.8422,-3.76,-3.7859,-3.8007,-3.7988,-3.8007,-3.9315,-4.1758,-4.1758,-4.1758,-4.172,-4.0854,-4.0489,-4.0489,-4.0489,-4.1008,-4.1873,-4.2758,-4.3085,-4.3297,-4.4951,-4.5028,-4.4297,0.0,0.0,0.0,0.0,0.0,0.0,0.0,0.0,0.0,0.0,0.0,0.0,0.0,0.0,0.0,0.0,0.0,0.0,-2.5333,-2.5432,-2.5508,-2.5567,-2.5864,-2.6046,-2.6118,-2.6349,-2.6691,-2.7152,-2.7038,-2.7087,-2.733,-2.7345,-2.7407,-2.7469,-2.7407,-2.7528,-2.7851,-2.8533,-2.9262,-2.9989,-3.0872,-3.1585,-3.2144,0.0,0.0,0.0,0.0,0.0,0.0,0.0,0.0,0.0,-3.2223,-3.2024,-3.1597,-3.2535,-3.2702,-3.2585,-3.2703,-3.2437,0.0,-3.1779,-3.1518,0.0,0.0,-3.2589,0.0,0.0,-3.5716,-3.5147,-3.5954,-3.6615,0.0,-3.6211,-3.6615,-3.7019,-3.7019,-3.6597,-3.6303,-3.6303,-3.5771,-3.5642,-3.6229,-3.5752,-3.5642,-3.6248,-3.6505,-3.6748,-3.6941,-3.778,-3.8053,-3.7635,-3.8384,-3.8209,-3.6976,-3.7651,-3.77,-3.7084,-3.7719,-3.8392,-3.9123,-3.9123,-3.9123,-3.9142,-3.9488,-3.9662,-3.97,-4.0258,-4.0642,-4.0969,-4.1854,-4.22,-4.2316,-4.3431,-4.3682,-4.3547,0.0,0.0,0.0,0.0,0.0,0.0,0.0,0.0,0.0,0.0,0.0,0.0,0.0,0.0,0.0,0.0,0.0,0.0,0.0,-2.5139,-2.5201,-2.5301,-2.5546,-2.5733,-2.5901,-2.5957,-2.6279,-2.6791,-2.6791,-2.6973,-2.7299,-2.725,-2.7201,-2.7152,-2.7105,-2.7023,-2.7074,-2.7893,-2.8648,-2.942,-3.0386,-3.1253,-3.1965,0.0,0.0,0.0,0.0,0.0,0.0,0.0,0.0,0.0,-3.1969,-3.1847,-3.1637,-3.2229,-3.2031,-3.1688,-3.2036,-3.1667,0.0,-3.1515,-3.151,-3.151,-3.1929,0.0,0.0,0.0,-3.4727,-3.4553,-3.4736,-3.5308,0.0,-3.5082,-3.5183,-3.5312,-3.5312,-3.5037,-3.4706,-3.4376,-3.3899,-3.3788,-3.4302,-3.4174,-3.4266,-3.4798,-3.5422,-3.5892,-3.6198,-3.7081,-3.7725,-3.8004,-3.798,-3.7715,-3.7219,-3.7084,-3.6738,-3.6238,-3.6757,-3.7007,-3.7026,-3.77,-3.8007,-3.8027,-3.8565,-3.8969,-3.9335,-3.9815,-4.02,-4.0585,-4.147,-4.1797,-4.1912,-4.2777,-4.3104,-4.3162,0.0,0.0,0.0,0.0,0.0,0.0,0.0,0.0,0.0,0.0,0.0,0.0,0.0,0.0,0.0,0.0,0.0,0.0,0.0,0.0,-2.5005,-2.5068,-2.5201,-2.5394,-2.5663,-2.5492,-2.568,-2.626,-2.659,-2.6908,-2.7218,-2.707,-2.6956,-2.6741,-2.6691,-2.659,-2.6468,-2.7435,-2.8302,-2.9136,-3.0105,-3.0986,-3.1746,-3.1839,0.0,0.0,0.0,0.0,0.0,0.0,0.0,0.0,-3.1948,-3.1984,-3.2073,-3.2073,-3.12,-3.0384,-3.0972,-3.052,0.0,0.0,-3.1671,0.0,-3.2296,-3.2875,-3.3283,-3.3034,0.0,-3.5051,-3.4274,-3.4444,-3.466,-3.466,-3.4064,-3.3587,-3.3587,-3.2963,-3.2228,-3.1476,-3.1384,-3.1384,-3.1384,-3.2063,-3.2504,-3.2529,-3.387,-3.4877,-3.5333,-3.634,-3.7409,-3.8461,-3.7325,-3.7046,-3.7777,-3.6257,-3.5493,-3.5493,-3.5493,-3.5493,-3.5565,-3.7084,-3.7815,-3.7892,-3.7969,-3.8488,-3.9296,-3.9373,-3.9835,-4.0566,-4.1373,-4.1681,-4.1777,-4.2566,-4.2854,-4.2874,0.0,0.0,0.0,0.0,0.0,0.0,0.0,0.0,0.0,0.0,0.0,0.0,0.0,0.0,0.0,0.0,0.0,0.0,0.0,0.0,-2.4766,-2.4862,-2.5005,-2.5123,-2.5208,-2.5185,-2.54,-2.5848,-2.6066,-2.633,-2.659,-2.6556,-2.6521,-2.6487,-2.6487,-2.6453,-2.6435,-2.6655,-2.7513,-2.874,-2.8982,-2.9993,-3.1411,-3.1411,-3.1579,0.0,0.0,0.0,0.0,0.0,0.0,0.0,-3.1819,-3.1819,-3.1856,-3.1856,-3.1578,-3.13,-3.1472,-3.1062,0.0,0.0,-3.1864,-3.1705,-3.1185,-3.0991,-3.1129,-3.204,-3.2523,-3.2622,-3.2145,-3.2122,-3.2173,-3.2173,-3.2027,-3.1916,-3.1916,-3.177,-3.1586,-3.1403,-3.1384,-3.1384,-3.1384,-3.1549,-3.174,-3.196,-3.2275,-3.297,-3.4111,-3.5038,-3.5732,-3.6189,-3.6536,-3.6488,-3.6045,-3.568,-3.5493,-3.5493,-3.5493,-3.5493,-3.5512,-3.5872,-3.6392,-3.7026,-3.77,-3.8488,-3.9354,-3.9969,-4.0335,-4.0508,-4.07,-4.0777,-4.0796,-4.0989,-4.1046,-4.1162,0.0,0.0,0.0,0.0,0.0,0.0,0.0,0.0,0.0,0.0,0.0,0.0,0.0,0.0,0.0,0.0,0.0,0.0,0.0,0.0,-2.4605,-2.4686,-2.4766,-2.4831,-2.495,-2.4966,-2.5068,-2.5362,-2.5454,-2.5775,-2.6262,-2.6208,-2.6173,-2.6049,-2.603,-2.5957,-2.5885,-2.603,-2.6928,-2.8362,-2.8498,-2.9576,-3.1044,-3.1044,-3.1179,-3.1334,-3.1389,0.0,0.0,0.0,0.0,0.0,0.0,0.0,-3.1651,-3.1709,-3.1414,-3.1133,-3.1401,0.0,0.0,-3.1448,0.0,-3.1405,-3.1048,-3.0651,-3.0489,-3.0982,-3.1142,-3.1009,-3.0594,-3.0716,-3.0834,-3.0834,-3.0834,-3.0834,-3.0834,-3.0834,-3.0687,-3.0301,-3.0346,-3.0438,-3.0438,-3.0887,-3.1222,-3.1368,-3.1723,-3.2297,-3.3127,-3.3999,-3.4783,-3.5474,-3.5911,-3.6122,-3.6084,-3.5699,-3.5295,-3.4872,-3.4872,-3.4872,-3.4891,-3.5315,-3.5738,-3.6161,-3.6622,-3.7276,-3.8084,-3.8507,-3.8931,-3.9335,-3.9758,-3.9931,-3.9969,-4.0354,-4.0489,-4.0546,0.0,0.0,0.0,0.0,0.0,0.0,0.0,0.0,0.0,0.0,0.0,0.0,0.0,0.0,0.0,0.0,0.0,0.0,0.0,0.0,0.0,-2.4467,-2.4508,-2.4605,-2.4742,-2.4742,-2.4822,-2.4926,-2.4926,-2.5246,0.0,0.0,-2.5754,-2.5589,-2.553,-2.5394,-2.5256,-2.5621,-2.6607,-2.7947,-2.83,-2.9324,-3.0683,-3.0625,-3.0625,-3.0723,-3.0821,-3.0838,-3.0861,-3.11,0.0,0.0,0.0,0.0,-3.1462,-3.1542,-3.1113,-3.0734,-3.1219,0.0,-3.0674,-3.1077,-3.119,0.0,-3.1038,-3.07,-3.0334,-2.9976,-3.0004,-2.9982,-2.9566,-2.9776,-2.9989,-2.9989,-2.9879,-2.9787,-2.9787,-2.9787,-2.9549,-2.8888,-2.9107,-2.9351,-2.9392,-3.0151,-3.0678,-3.0749,-3.1354,-3.1915,-3.2352,-3.3054,-3.3934,-3.5012,-3.5064,-3.5372,-3.6045,-3.5391,-3.4699,-3.3968,-3.3968,-3.3968,-3.4007,-3.4891,-3.5372,-3.5526,-3.5661,-3.6084,-3.6719,-3.6873,-3.7353,-3.8065,-3.8796,-3.9161,-3.9373,-4.0046,-4.0373,-4.0489,0.0,0.0,0.0,0.0,0.0,0.0,0.0,0.0,0.0,0.0,0.0,0.0,0.0,0.0,0.0,0.0,0.0,0.0,0.0,0.0,0.0,-2.3925,-2.4177,-2.44,-2.4539,-2.4539,-2.458,-2.467,-2.467,0.0,0.0,0.0,0.0,-2.5084,0.0,-2.5084,-2.5092,0.0,0.0,-2.738,-2.7971,-2.8995,-3.0097,-2.9848,-3.0021,-3.0335,-3.0276,-3.0218,-3.026,-3.0584,-3.0707,0.0,0.0,0.0,-3.1351,-3.1334,-3.1266,-3.1215,-3.1428,0.0,-3.1193,0.0,-3.119,-3.1021,0.0,0.0,-2.9553,0.0,-2.944,-2.9557,-2.915,-2.9117,-2.914,-2.914,-2.8576,-2.8117,-2.8117,-2.8117,-2.8081,-2.797,-2.8599,-2.9156,-2.9372,-2.9526,-2.9739,-3.0091,-3.0221,-3.0729,-3.1744,-3.1911,-3.2366,-3.3218,-3.3256,-3.3295,-3.341,-3.3295,-3.3199,-3.3064,-3.3064,-3.3064,-3.3103,-3.3968,-3.4795,-3.5545,-3.6238,-3.6603,-3.6757,-3.7507,-3.7892,-3.8007,-3.8123,-3.8642,-3.9296,-3.9411,-3.9892,-4.0489,0.0,0.0,0.0,0.0,0.0,0.0,0.0,0.0,0.0,0.0,0.0,0.0,0.0,0.0,0.0,0.0,0.0,0.0,0.0,0.0,0.0,-2.3696,-2.3824,-2.4009,-2.4208,-2.4208,-2.4234,-2.4261,0.0,0.0,0.0,-2.4385,-2.4564,0.0,0.0,0.0,0.0,0.0,0.0,0.0,0.0,0.0,-2.885,-2.9204,-2.9154,-2.9026,-2.9456,-2.975,-2.9941,-3.0241,-3.0452,-3.0617,-3.0975,0.0,0.0,0.0,-3.1252,-3.1252,-3.1368,-3.1329,-3.1252,0.0,-3.119,-3.1106,-3.0784,0.0,-3.0475,-3.0331,-3.0086,-2.974,-2.9117,-2.8994,-2.8994,-2.8994,-2.8705,-2.8484,-2.8484,-2.8081,-2.7787,-2.7787,-2.8343,-2.8764,-2.8876,-2.9534,-3.0022,-3.0209,-3.0222,-3.0439,-3.0936,-3.1429,-3.1852,-3.2218,-3.266,-3.2891,-3.2891,-3.2891,-3.2679,-3.2237,-3.2237,-3.2237,-3.2275,-3.3603,-3.441,-3.4814,-3.5661,-3.6045,-3.6065,-3.6449,-3.6603,-3.6642,-3.7103,-3.7796,-3.8623,-3.9123,-3.9796,-4.0489,0.0,0.0,0.0,0.0,0.0,0.0,0.0,0.0,0.0,0.0,0.0,0.0,0.0,0.0,0.0,0.0,0.0,0.0,0.0,0.0,0.0,-2.3377,-2.3508,-2.3696,-2.3882,-2.3982,-2.3982,0.0,0.0,0.0,-2.3982,-2.3982,-2.4135,0.0,-2.4416,0.0,0.0,0.0,0.0,0.0,0.0,0.0,0.0,-2.8185,-2.7951,-2.7576,-2.8418,-2.8853,-2.9112,-2.9585,-2.9941,-3.0199,-3.0593,-3.0716,0.0,0.0,0.0,-3.123,-3.1274,-3.1252,-3.123,-3.119,-3.119,-3.119,0.0,0.0,-3.1246,0.0,-3.0567,-2.9953,-2.914,-2.8994,-2.8994,-2.8994,-2.881,-2.8705,-2.8705,-2.822,-2.7899,-2.7899,-2.8428,-2.8839,-2.8869,-2.9746,-3.0343,-3.0379,-3.0398,-3.0398,-3.0398,-3.1025,-3.1371,-3.1371,-3.1948,-3.2275,-3.2295,-3.2314,-3.2006,-3.1429,-3.1429,-3.1429,-3.1468,-3.2942,-3.3635,-3.3699,-3.4949,-3.5493,-3.5493,-3.5493,-3.5493,-3.5565,-3.6161,-3.693,-3.7777,-3.8642,-3.9488,-4.0219,0.0,0.0,0.0,0.0,0.0,0.0,0.0,0.0,0.0,0.0,0.0,0.0,0.0,0.0,-2.1616,-2.1664,0.0,0.0,0.0,0.0,0.0,-2.274,-2.3275,0.0,-2.3595,-2.3882,-2.3982,0.0,0.0,0.0,-2.3982,-2.3882,-2.3882,-2.4024,-2.4024,-2.4389,-2.5102,0.0,0.0,0.0,0.0,0.0,0.0,0.0,-2.6199,-2.6352,-2.6932,-2.7113,-2.73,-2.8247,-2.8842,-2.9257,-2.9705,-3.0156,-3.0568,0.0,0.0,0.0,-3.119,-3.1252,-3.1274,-3.123,-3.119,-3.119,0.0,0.0,-3.1073,-3.0317,-3.0161,-2.9953,-2.914,-2.8994,-2.8994,-2.8994,-2.8356,-2.786,-2.786,-2.7985,-2.809,-2.809,-2.9007,-2.9706,-2.9893,-2.9994,-3.0136,-3.0367,-3.0398,-3.0398,-3.0398,-3.0436,-3.0456,-3.0456,-3.0513,-3.0564,-3.0621,-3.0698,-3.0698,-3.066,-3.066,-3.066,-3.0698,-3.1607,-3.2018,-3.2154,-3.4493,-3.5493,-3.5493,-3.5493,-3.5493,-3.5493,-3.5565,-3.6065,-3.6873,-3.7757,-3.8623,-3.9469,0.0,0.0,0.0,0.0,0.0,0.0,0.0,0.0,0.0,0.0,0.0,0.0,0.0,-2.1277,-2.1423,-2.1568,-2.1698,0.0,0.0,0.0,0.0,-2.2495,-2.3342,-2.3658,-2.3407,-2.4044,0.0,0.0,0.0,-2.4401,-2.4372,-2.4792,-2.5213,-2.5634,-2.4837,-2.4911,-2.5697,-2.6443,0.0,0.0,0.0,0.0,0.0,0.0,0.0,0.0,0.0,0.0,0.0,-2.8763,-2.9421,-3.0092,-3.0147,-3.0342,-3.0526,-3.0651,-3.0871,-3.1032,-3.1072,-3.1134,-3.1252,-3.1274,-3.1608,-3.1868,-3.174,-3.2249,-3.2639,-3.2161,-3.1502,-3.087,-3.0595,-2.9714,-2.8994,-2.8994,-2.8778,-2.8644,-2.8802,-2.8403,-2.8147,-2.833,-2.8812,-2.9155,-2.9227,-2.9857,-3.0299,-3.0398,-3.0398,-3.0398,-3.0398,-3.0398,-3.0398,-3.0398,-3.0398,-3.0417,-3.0506,-3.0525,-3.0557,-3.0599,-3.0599,-3.0599,-3.0618,-3.1507,-3.1895,-3.1975,-3.3421,-3.4337,-3.4845,-3.4768,-3.5089,-3.5622,-3.5545,-3.6026,-3.6848,-3.7084,-3.8065,-3.9335,0.0,0.0,0.0,0.0,0.0,0.0,0.0,0.0,0.0,0.0,0.0,0.0,0.0,0.0,-2.1247,-2.1792,-2.2095,-2.2267,-2.2317,-2.2415,-2.2561,-2.2817,-2.3549,-2.3865,-2.3618,-2.4412,0.0,0.0,0.0,0.0,0.0,-2.5405,-2.5839,-2.6228,-2.5678,-2.5726,0.0,0.0,0.0,-2.7576,0.0,0.0,-2.6071,0.0,0.0,0.0,0.0,0.0,0.0,0.0,-2.9281,-3.0094,-3.0291,-3.0576,-3.0891,-3.1016,-3.0974,-3.0912,-3.0975,-3.1112,-3.123,-3.1257,-3.163,-3.1907,-3.1797,-3.2546,-3.3166,-3.267,-3.2155,-3.1641,-3.1091,-3.0118,-2.9329,-2.903,-2.9067,-2.92,-2.9372,-2.9027,-2.8812,-2.8979,-2.9193,-2.9353,-2.9353,-2.9985,-3.0398,-3.0398,-3.0398,-3.0398,-3.0398,-3.0398,-3.0398,-3.0417,-3.0487,-3.0525,-3.0564,-3.0616,-3.0659,-3.0708,-3.0708,-3.0708,-3.0728,-3.1607,-3.1837,-3.1604,-3.248,-3.3322,-3.4071,-3.4276,-3.4738,-3.5315,-3.5488,-3.5939,-3.6535,-3.6733,-3.7541,-3.8618,0.0,0.0,0.0,0.0,0.0,0.0,0.0,0.0,0.0,0.0,0.0,0.0,0.0,0.0,0.0,-2.2227,-2.2837,-2.3241,-2.3398,-2.3398,-2.345,-2.3592,0.0,0.0,0.0,-2.4878,-2.5217,-2.5202,-2.5488,-2.563,0.0,0.0,-2.5674,-2.5689,-2.6333,-2.6617,-2.6617,0.0,-2.6826,-2.6826,0.0,-2.6699,-2.6512,0.0,0.0,0.0,-2.6149,-2.6451,0.0,-2.7365,0.0,0.0,0.0,-3.0911,-3.1653,-3.1765,-3.1375,-3.0945,0.0,0.0,0.0,-3.1257,-3.1312,-3.1329,-3.1334,-3.2073,-3.2492,-3.1544,-3.204,-3.2155,-3.054,-3.0228,-2.9953,-2.9122,-2.9203,-2.9392,-2.9412,-2.9729,-2.9999,-3.0013,-3.0241,-3.0398,-3.0398,-3.0417,-3.0417,-3.0398,-3.0417,-3.0417,-3.0398,-3.0398,-3.0417,-3.0506,-3.0595,-3.0652,-3.066,-3.0782,-3.0859,-3.0859,-3.0898,-3.0898,-3.0937,-3.1785,-3.1707,-3.0942,-3.178,-3.2539,-3.3206,-3.4108,-3.4506,-3.461,-3.5394,-3.5698,-3.5803,-3.6645,-3.6986,-3.7294,0.0,0.0,0.0,0.0,0.0,0.0,0.0,0.0,0.0,0.0,0.0,0.0,0.0,0.0,-2.193,-2.2604,-2.283,-2.2924,-2.2977,-2.3083,-2.3189,-2.3294,-2.4097,-2.4385,-2.4067,-2.5199,-2.556,-2.5043,-2.5901,-2.6318,-2.6333,-2.6811,-2.7036,0.0,-2.7215,-2.7305,-2.7355,-2.7355,0.0,-2.731,-2.6831,-2.6636,0.0,0.0,0.0,0.0,0.0,-2.7181,-2.8008,0.0,-2.9079,-3.0591,0.0,0.0,0.0,0.0,-3.1615,-3.1475,-3.1046,0.0,0.0,0.0,0.0,0.0,-3.1979,-3.3125,-3.3946,-3.296,-3.312,-3.2981,-3.1347,-3.0595,-2.9953,-2.9122,-2.9044,-2.9228,-2.957,-2.9713,-2.9912,-3.0254,-3.0355,-3.0398,-3.0398,-3.0968,-3.1083,-3.0436,-3.0987,-3.1102,-3.0506,-3.0525,-3.0525,-3.0506,-2.9969,-2.9726,-2.9829,-2.9873,-2.9905,-2.9961,-3.0605,-3.0898,-3.0918,-3.1148,-3.1124,-3.0909,-3.1142,-3.1355,-3.1649,-3.3055,-3.4393,-3.5596,-3.5677,-3.5766,-3.5864,-3.6005,-3.6859,-3.8013,0.0,0.0,0.0,0.0,0.0,0.0,-1.9526,0.0,0.0,0.0,0.0,0.0,0.0,0.0,-2.2089,-2.2769,-2.3047,-2.3303,-2.355,-2.3605,-2.3702,-2.3756,-2.4395,-2.4627,-2.4403,-2.5479,-2.5856,-2.5517,-2.6465,-2.6907,-2.6922,-2.7395,-2.7625,-2.7625,0.0,0.0,0.0,0.0,0.0,0.0,-2.7156,0.0,0.0,-2.6489,-2.6579,0.0,0.0,0.0,-2.8435,-2.8067,-2.9277,0.0,0.0,0.0,0.0,0.0,0.0,-3.1766,-3.1457,-3.1187,-3.1055,-3.1257,0.0,0.0,-3.1834,-3.2737,-3.3494,-3.3069,-3.3002,-3.2794,-3.2038,-3.1237,-3.0558,-3.0081,-3.0008,-2.9939,-2.9737,-3.0101,-3.0506,-3.0893,-3.1237,-3.1448,-3.1448,-3.191,-3.1987,-3.1487,-3.191,-3.1872,-3.1071,-3.1114,-3.0979,-3.0602,-3.0173,-3.0005,-3.0069,-3.0088,-3.0102,-3.0156,-3.0664,-3.0898,-3.0918,-3.1289,-3.123,-3.0918,-3.1289,-3.1445,-3.1543,-3.2812,-3.3965,-3.498,-3.5581,-3.5862,-3.5937,-3.5854,-3.6477,-3.7398,0.0,0.0,0.0,-1.9048,-1.9431,-1.9785,-1.9662,0.0,0.0,0.0,0.0,0.0,0.0,0.0,0.0,0.0,-2.3328,-2.3872,-2.4376,-2.4434,-2.4505,-2.4505,-2.4677,-2.4778,-2.4948,-2.566,-2.6096,-2.6244,-2.6959,-2.7335,-2.7401,-2.7539,-2.7575,-2.7625,0.0,0.0,0.0,0.0,0.0,-2.7401,-2.7524,-2.7423,0.0,0.0,-2.735,-2.7284,-2.7386,-2.7824,-2.8241,-2.791,-2.9177,0.0,0.0,0.0,0.0,0.0,-3.2802,-3.1791,-3.1851,-3.1415,-3.1015,-3.1235,-3.1274,0.0,-3.1295,-3.1709,-3.2161,-3.2419,-3.2344,-3.2285,-3.2501,-3.1957,-3.1469,-3.1403,-3.1458,-3.1177,-3.0114,-3.0791,-3.1522,-3.1789,-3.2468,-3.2891,-3.2891,-3.2987,-3.3006,-3.291,-3.291,-3.2641,-3.1975,-3.1915,-3.1579,-3.0864,-3.0782,-3.0762,-3.0762,-3.0762,-3.0762,-3.0762,-3.0859,-3.0898,-3.0937,-3.1699,-3.1621,-3.0937,-3.1719,-3.2051,-3.2129,-3.293,-3.3379,-3.3711,-3.5351,-3.5996,-3.5996,-3.5996,-3.6055,-3.6269,0.0,0.0,0.0,-1.91,-1.9179,-1.9247,-1.9236,0.0,0.0,0.0,0.0,0.0,0.0,0.0,0.0,0.0,-2.2724,-2.2895,-2.2955,-2.3365,-2.3747,-2.3969,-2.4157,-2.439,-2.4677,-2.5147,-2.5591,-2.5988,-2.6472,-2.6893,-2.7401,-2.7452,-2.7488,-2.7575,-2.7488,0.0,0.0,0.0,0.0,-2.7401,-2.7335,0.0,-2.735,-2.7401,-2.7437,-2.7524,-2.7524,-2.7664,-2.788,-2.8612,-2.9487,-3.0577,0.0,0.0,0.0,-3.294,0.0,0.0,-3.1116,-3.0849,-3.0773,-3.0935,-3.0975,0.0,-3.1173,-3.2025,-3.2624,-3.2319,-3.3024,-3.3386,-3.2303,-3.2119,-3.1937,-3.1411,-3.1876,-3.214,-3.177,-3.1882,-3.2169,-3.2603,-3.2795,-3.2891,-3.2891,-3.3526,-3.366,-3.2949,-3.2955,-3.2936,-3.2846,-3.2305,-3.1904,-3.1746,-3.0529,-2.9844,-2.9844,-2.9844,-2.9844,-2.9863,-3.0566,-3.0898,-3.0918,-3.1074,-3.1055,-3.0918,-3.1074,-3.1152,-3.1211,-3.207,-3.3223,-3.4551,-3.5586,-3.5996,-3.5996,-3.5996,-3.6445,-3.707,0.0,0.0,0.0,-1.9097,-1.9237,-1.9404,-1.9476,0.0,0.0,0.0,0.0,0.0,0.0,0.0,0.0,0.0,0.0,0.0,0.0,-2.3679,-2.4153,-2.44,-2.4326,-2.4411,-2.4741,-2.4899,-2.5258,-2.5784,-2.619,-2.6736,-2.7299,-2.7624,-2.752,-2.7111,-2.758,0.0,0.0,0.0,-2.7144,-2.7196,-2.7284,0.0,-2.7401,-2.7488,-2.7524,-2.7625,-2.7625,-2.7625,-2.773,-2.8595,-2.9465,0.0,-3.131,-3.2189,-3.2919,0.0,-3.2613,-3.1807,0.0,-3.1258,-3.0733,-3.0871,-3.0912,0.0,0.0,-3.1601,-3.2084,-3.2232,-3.2453,-3.2624,-3.2726,-3.2508,-3.2338,-3.2482,-3.2838,-3.3114,-3.3178,-3.3689,-3.4243,-3.4735,-3.518,-3.5276,-3.4834,-3.5199,-3.5103,-3.4257,-3.4224,-3.4128,-3.3801,-3.3031,-3.2444,-3.2116,-3.0903,-3.0254,-3.0254,-3.0254,-3.0254,-3.0254,-3.0684,-3.0898,-3.0898,-3.0898,-3.0898,-3.0898,-3.0898,-3.0898,-3.0976,-3.1836,-3.2695,-3.3535,-3.4375,-3.4961,-3.5351,-3.5351,-3.5898,-3.6641,0.0,0.0,0.0,-1.9205,-1.9401,-1.9665,-1.9876,-2.0092,0.0,0.0,0.0,0.0,0.0,0.0,0.0,0.0,0.0,0.0,0.0,-2.3922,-2.4568,-2.4708,-2.457,-2.4525,-2.4719,-2.4839,-2.5233,-2.5841,-2.627,-2.6816,-2.7512,-2.8027,-2.775,-2.6922,-2.772,0.0,0.0,0.0,0.0,-2.7298,0.0,-2.7454,-2.7365,-2.7622,-2.7629,-2.7575,-2.7575,-2.7625,-2.773,-2.8368,-2.9221,-3.014,-3.0511,-3.1534,0.0,0.0,0.0,0.0,0.0,-3.1881,-3.0941,-3.1174,-3.1173,-3.1146,0.0,0.0,0.0,-3.2228,-3.1882,-3.1906,-3.3118,-3.2868,-3.2764,-3.3552,-3.3799,-3.4036,-3.4394,-3.5387,-3.6139,-3.6332,-3.7324,-3.7661,-3.6767,-3.6839,-3.668,-3.6026,-3.5834,-3.5512,-3.4999,-3.4013,-3.321,-3.2695,-3.1699,-3.1152,-3.1152,-3.0976,-3.0898,-3.0898,-3.0898,-3.0898,-3.0898,-3.087,-3.0862,-3.0862,-3.0858,-3.0859,-3.0918,-3.1641,-3.1953,-3.2051,-3.3027,-3.3926,-3.4707,-3.4707,-3.5254,-3.5996,-1.9576,-1.9511,0.0,0.0,-1.9553,-1.9661,-1.9857,-1.977,0.0,0.0,0.0,0.0,0.0,0.0,0.0,0.0,0.0,0.0,-2.1606,0.0,-2.3702,-2.3816,-2.443,-2.4519,-2.3994,-2.4948,-2.5707,-2.6311,-2.6868,-2.7654,-2.87,-2.8773,-2.8517,-2.7918,-2.8066,0.0,0.0,0.0,-2.7483,0.0,-2.8142,-2.7697,0.0,-2.7868,-2.7839,-2.7437,-2.7575,-2.7625,-2.773,-2.8368,-2.9021,-2.9844,0.0,-3.1662,-3.1785,-3.3208,0.0,0.0,0.0,-3.21,-3.1653,-3.2326,-3.2011,-3.1712,-3.2507,0.0,-3.2774,-3.2474,0.0,-3.2967,-3.2745,0.0,0.0,-3.3559,-3.4217,-3.4835,-3.5293,-3.6147,-3.6295,-3.5229,-3.6818,-3.7632,-3.6692,-3.7348,-3.7815,-3.7719,-3.7007,-3.6603,-3.6708,-3.5214,-3.4365,-3.4414,-3.2871,-3.2051,-3.2051,-3.1289,-3.0898,-3.0898,-3.0898,-3.0898,-3.0898,-3.078,-3.0721,-3.0714,-3.071,-3.0723,-3.0742,-3.0957,-3.1055,-3.1191,-3.2773,-3.3926,-3.4707,-3.4707,-3.5254,-3.5996,-1.9341,-1.9539,0.0,0.0,-1.9473,-1.9605,-1.955,0.0,0.0,0.0,0.0,0.0,0.0,0.0,0.0,0.0,0.0,-2.1777,0.0,0.0,0.0,-2.4798,-2.5004,-2.5006,-2.4874,-2.5293,-2.5792,-2.6256,-2.6905,-2.7619,-2.8482,-2.9044,-2.8849,-2.8101,-2.8444,0.0,-2.7741,0.0,-2.7865,0.0,0.0,-2.8277,0.0,-2.864,-2.8636,-2.8077,-2.7724,-2.7625,-2.767,-2.7904,-2.871,-2.9663,-3.0288,-3.1071,0.0,-3.297,0.0,0.0,0.0,-3.2542,-3.1888,-3.2558,-3.2237,-3.205,-3.2844,-3.3081,-3.3178,-3.3294,0.0,0.0,0.0,0.0,0.0,0.0,-3.3775,-3.4192,-3.4478,-3.5417,-3.6114,-3.6271,-3.7602,-3.8197,-3.7437,-3.8208,-3.8334,-3.7315,-3.7834,-3.7849,-3.6978,-3.5795,-3.4977,-3.4601,-3.3407,-3.2533,-3.2033,-3.1659,-3.123,-3.0723,-3.0723,-3.0723,-3.0719,-3.0678,-3.0646,-3.0633,-3.0649,-3.0661,-3.0703,-3.0762,-3.082,-3.0976,-3.168,-3.248,-3.3301,-3.3769,-3.4492,-3.5312,0.0,0.0,0.0,0.0,0.0,0.0,0.0,0.0,0.0,0.0,0.0,0.0,-1.9123,-1.9263,0.0,0.0,-2.0662,-2.1597,0.0,0.0,-2.4558,-2.5074,-2.5351,0.0,-2.5327,-2.5678,-2.6114,-2.6494,-2.7332,-2.8019,-2.8566,-2.9478,-2.9405,-2.8576,0.0,-2.8697,-2.839,0.0,-2.8361,-2.8689,-2.9186,-2.9271,-2.898,-2.9426,-2.928,-2.8786,-2.8098,-2.779,-2.7655,-2.7784,-2.8502,-2.9373,-2.9545,-3.0528,-3.1787,0.0,0.0,0.0,-3.3603,-3.2984,-3.228,-3.3106,-3.2896,-3.2694,-3.3489,-3.3577,-3.3625,-3.4093,-3.4105,0.0,0.0,0.0,-3.3999,-3.388,0.0,-3.399,-3.411,-3.5066,-3.5981,-3.6704,-3.7811,-3.8421,-3.8197,-3.9061,-3.9012,-3.7512,-3.8777,-3.8926,-3.731,-3.6636,-3.5844,-3.4872,-3.4223,-3.335,-3.2268,-3.2016,-3.1452,-3.061,-3.061,-3.061,-3.061,-3.0591,-3.0577,-3.0564,-3.0314,-3.038,-3.0651,-3.0447,-3.0586,-3.0898,-3.0898,-3.1289,-3.1934,-3.2773,-3.3769,-3.4785,-1.8337,-1.8414,0.0,0.0,0.0,0.0,0.0,0.0,0.0,0.0,0.0,0.0,0.0,0.0,0.0,0.0,0.0,-1.9863,-2.1052,0.0,-2.3257,0.0,0.0,-2.5473,0.0,-2.6127,-2.7077,-2.7386,-2.8488,-2.9268,-2.9752,-3.0343,-3.0323,-2.9783,-2.9183,-2.8946,-2.9039,-2.8459,-2.8986,-3.0253,-3.0268,-3.0711,-3.1243,-2.9933,-2.9441,-2.946,-2.8801,-2.8143,-2.773,-2.8338,-2.8607,-2.8832,-2.9846,-3.0295,-3.0654,-3.1641,-3.2017,-3.237,-3.3667,-3.3428,-3.3178,-3.4515,-3.427,-3.3968,-3.4855,-3.4597,-3.4259,-3.4609,-3.438,-3.4168,-3.4411,-3.427,-3.4404,-3.5389,-3.5097,0.0,0.0,-3.5772,-3.6131,-3.5535,-3.6688,-3.789,-3.8785,-3.9825,-4.0079,-3.9192,-3.9954,-3.9758,-3.8146,-3.8041,-3.7305,-3.5713,-3.5636,-3.4828,-3.3166,-3.2324,-3.1465,-3.0595,-3.0595,-3.0595,-3.0595,-3.0537,-3.0487,-3.0467,-2.9602,-2.9748,-3.0554,-2.9829,-3.0078,-3.0898,-3.0898,-3.0918,-3.1055,-3.1914,-3.3281,-3.4707,0.0,0.0,0.0,0.0,0.0,0.0,0.0,-1.8964,0.0,0.0,-1.9433,0.0,0.0,-1.9478,-1.9072,0.0,0.0,-2.0742,-2.1108,-2.2807,0.0,0.0,0.0,-2.5673,0.0,-2.6391,-2.7178,-2.7499,-2.8349,-2.9022,-2.9498,-3.0129,-3.0466,-3.047,-2.9956,-3.0011,0.0,0.0,0.0,0.0,0.0,-3.0641,-3.1057,-3.041,-2.9939,-2.949,-2.8831,-2.8158,-2.7655,-2.7844,-2.8218,-2.8651,-2.8989,-2.9904,-3.0927,-3.1342,-3.1951,-3.2694,-3.3211,-3.2854,-3.267,-3.3977,-3.3806,-3.3617,-3.4914,-3.4705,-3.4499,-3.5385,-3.5111,-3.4766,-3.4921,-3.5046,-3.4923,-3.4474,-3.4497,-3.4643,0.0,-3.5837,-3.6399,-3.6218,-3.6297,-3.6799,-3.7871,-3.8897,-3.9172,-3.8389,-3.9185,-3.9469,-3.8931,-3.8354,-3.7777,-3.7238,-3.6661,-3.5565,-3.3872,-3.3,-3.1864,-3.0467,-3.0467,-3.0179,-2.9602,-2.9583,-2.9275,-2.8756,-2.8467,-2.8536,-2.8856,-2.8662,-2.9106,-2.9913,-3.0016,-3.0332,-3.0879,-3.1855,-3.2891,-3.4004,-1.8389,0.0,0.0,0.0,0.0,0.0,0.0,0.0,0.0,0.0,-1.9717,0.0,-2.0088,0.0,-1.9219,0.0,-1.9933,-2.0665,-2.1041,-2.2632,0.0,-2.4045,-2.4908,-2.5331,0.0,0.0,0.0,-2.7223,-2.8155,-2.8894,-2.9435,-3.0007,-3.0568,-3.0955,-3.0087,-3.0347,-3.1291,-3.0398,-3.0294,0.0,0.0,-3.0906,-3.1145,-3.0648,-3.0063,-2.9366,-2.8778,-2.8158,-2.7625,-2.7625,-2.7874,-2.8261,-2.8179,-2.9261,-3.0497,-3.0526,-3.1358,-3.2311,-3.2579,-3.2412,-3.2345,-3.3395,-3.3328,-3.3349,-3.465,-3.4438,-3.4293,-3.5326,-3.5274,-3.4861,-3.4352,-3.5018,-3.5297,-3.4392,-3.4835,-3.5403,0.0,-3.5975,-3.6204,-3.6562,-3.6341,-3.6359,-3.6776,-3.8099,-3.8494,-3.7414,-3.8543,-3.8992,-3.8411,-3.843,-3.8046,-3.7142,-3.7142,-3.6219,-3.4218,-3.3333,-3.2218,-3.0852,-3.0237,-2.964,-2.9083,-2.8794,-2.839,-2.7871,-2.7563,-2.7651,-2.7999,-2.8042,-2.8598,-2.9433,-2.9805,-3.0253,-3.0781,-3.1484,-3.2441,-3.3652,-1.8174,0.0,0.0,0.0,-1.9588,0.0,0.0,0.0,-1.9766,0.0,-2.0068,-2.0254,-1.9434,-1.9316,-1.9111,-1.8672,-1.9032,-1.982,-2.0986,-2.1901,0.0,0.0,-2.4226,-2.4404,-2.4189,0.0,0.0,0.0,0.0,-2.8894,-2.956,-3.0068,-3.0628,-3.1233,-2.9802,0.0,-3.1347,-3.0012,-3.0276,-3.1482,-3.1482,-3.1482,-3.1392,-3.0731,-2.9907,-2.9079,-2.8725,-2.8158,-2.7625,-2.7625,-2.7625,-2.7625,-2.7625,-2.8448,-2.9406,-2.9406,-3.0251,-3.132,-3.189,-3.2051,-3.2219,-3.2797,-3.2937,-3.3165,-3.4034,-3.3777,-3.3601,-3.4474,-3.4839,-3.4518,-3.2992,-3.4276,-3.5472,-3.5207,-3.6085,-3.7003,-3.7482,-3.627,-3.5668,-3.6443,-3.6677,-3.647,-3.5675,-3.74,-3.7947,-3.6424,-3.797,-3.8347,-3.6853,-3.8334,-3.8123,-3.5699,-3.7142,-3.6757,-3.4276,-3.3353,-3.2506,-3.1679,-2.9987,-2.9121,-2.9006,-2.8255,-2.7852,-2.7736,-2.6909,-2.7035,-2.7873,-2.7873,-2.8451,-2.9402,-3.0181,-3.0586,-3.0781,-3.0956,-3.205,-3.3711,-1.9316,-1.9863,-2.0115,0.0,-1.9095,-1.8984,-1.9502,-1.9502,0.0,0.0,-2.0635,-2.0478,-2.0264,-1.9668,-1.9111,-1.8672,-1.9032,0.0,0.0,0.0,0.0,-2.3242,-2.4027,-2.4404,-2.4189,-2.5512,-2.6427,-2.6918,0.0,-2.8587,-2.9212,-2.9884,-3.0372,-3.0732,0.0,-3.0396,-3.072,-3.0425,-3.0748,-3.1482,-3.1482,-3.1351,-3.1028,-3.0127,-2.9535,-2.9079,-2.8725,-2.8158,-2.7625,-2.7625,-2.7625,-2.7625,-2.7625,-2.8448,-2.9406,-2.9406,-3.0251,-3.1241,-3.1388,-3.1438,-3.1584,-3.2185,-3.2328,-3.2513,-3.3338,-3.3035,-3.2814,-3.3726,-3.356,-3.3511,-3.4288,-3.4874,-3.537,-3.5846,-3.6648,-3.7138,-3.6813,-3.6427,-3.6075,-3.5799,-3.5256,-3.5088,-3.5628,-3.5615,-3.5831,-3.6345,-3.6188,-3.6537,-3.7608,-3.8035,-3.7978,-3.7392,-3.7161,-3.643,-3.518,-3.366,-3.2506,-3.1698,-3.0602,-2.941,-2.8198,-2.7986,-2.7198,-2.5947,-2.5726,-2.5774,-2.6005,-2.6043,-2.693,-2.8309,-2.8629,-2.991,-3.1679,-3.2414,-3.3406,-3.4609,-1.958,-1.998,0.0,-1.9893,0.0,-1.958,-1.9873,-1.9873,-2.0107,-2.085,-2.0723,0.0,-2.0049,-1.958,-1.9033,-1.8418,-1.9256,0.0,-2.0763,0.0,0.0,-2.3318,-2.3679,-2.3854,-2.3712,-2.476,0.0,-2.6549,0.0,-2.8187,-2.9212,-2.956,-3.0007,-3.0372,0.0,-3.0089,-3.0324,-3.0572,-3.0984,-3.1409,-3.1467,-3.1409,0.0,-3.0018,-2.9456,-2.9213,-2.8435,-2.7904,-2.7625,-2.7625,-2.7625,-2.7625,-2.7625,-2.8271,-2.8995,-2.8949,-2.9606,-3.0325,-3.0256,-3.0226,-3.0412,-3.1038,-3.1223,-3.1493,-3.2579,-3.2594,-3.2507,-3.2913,-3.2781,-3.2598,-3.2655,-3.3861,-3.5304,-3.6791,-3.7566,-3.7734,-3.7053,-3.6676,-3.6214,-3.5558,-3.5013,-3.4952,-3.5552,-3.4554,-3.468,-3.6615,-3.559,-3.5586,-3.7268,-3.7983,-3.7868,-3.6857,-3.7478,-3.7084,-3.5526,-3.4141,-3.3045,-3.2218,-3.0602,-2.9333,-2.839,-2.7659,-2.6794,-2.5851,-2.5457,-2.5514,-2.5909,-2.6313,-2.7255,-2.8506,-2.9375,-3.1036,-3.3016,-3.3539,-3.4137,-3.4845,-1.9521,0.0,0.0,0.0,0.0,-2.0439,-2.0059,-2.0322,-2.0566,-2.0566,-2.0518,-2.0176,-1.9375,-1.9238,-1.8877,-1.8076,-1.9497,-2.0575,-2.0997,-2.2241,-2.3169,-2.3592,-2.328,-2.3078,-2.3078,-2.3849,-2.4779,0.0,-2.6641,-2.7773,-2.9184,-2.9247,-2.956,0.0,0.0,0.0,0.0,-3.0571,-3.0955,-3.1336,-3.1377,-3.1405,-3.1255,-2.9953,-2.946,-2.928,-2.8075,-2.7625,-2.7625,-2.7625,-2.7625,-2.7625,-2.7625,-2.7981,-2.8436,-2.8351,-2.8777,-2.9258,-2.905,-2.9096,-2.9262,-2.982,-2.9973,-3.0328,-3.1681,-3.2083,-3.2196,-3.2161,-3.2213,-3.1781,-3.011,-3.2319,-3.5102,-3.7422,-3.8123,-3.8095,-3.7245,-3.6693,-3.6122,-3.5306,-3.5136,0.0,-3.5627,-3.4288,-3.445,-3.699,-3.5821,-3.5456,-3.6533,-3.8057,-3.7866,-3.5611,-3.7728,-3.7901,-3.5792,-3.4677,-3.3801,-3.3045,-3.0602,-2.9313,-2.9044,-2.7582,-2.6871,-2.6736,-2.5967,-2.6082,-2.6832,-2.7582,-2.8429,-2.9448,-3.1244,-3.291,-3.4295,-3.4288,-3.4466,-3.4841,-2.0283,0.0,0.0,0.0,0.0,-2.0537,-2.0469,-2.0518,-2.0566,-2.0566,-2.0254,-1.9834,-1.9336,-1.8965,-1.8545,-1.8057,-1.8911,-1.9857,-2.0649,0.0,0.0,-2.3155,-2.3128,-2.3078,-2.3078,-2.3849,-2.4779,-2.5887,-2.6641,-2.7595,-2.8716,-2.9135,-2.9373,0.0,0.0,0.0,-3.0086,-3.0294,-3.0787,-3.1422,-3.0911,-3.0687,-3.0552,-2.9265,-2.8771,-2.8667,-2.7859,-2.7625,-2.7625,-2.7625,-2.7625,-2.7625,-2.7625,-2.7919,-2.8319,-2.8295,-2.9083,-2.9808,-2.9178,-2.9431,-2.9786,-2.9296,-2.9178,-2.9414,-3.0294,-3.048,-3.0705,-3.1258,-3.0942,-3.0721,-3.1355,-3.257,-3.4078,-3.586,-3.6462,-3.6203,-3.476,-3.5625,-3.5855,-3.4404,-3.3672,-3.4086,-3.62,-3.5558,-3.5553,-3.6948,-3.6714,-3.6671,-3.7064,-3.8175,-3.8175,-3.6833,-3.6805,-3.6929,-3.7142,-3.4964,-3.3891,-3.3949,-3.2122,-3.0487,-2.9083,-2.8794,-2.8294,-2.7659,-2.7505,-2.7525,-2.7678,-2.7832,-2.8794,-3.0352,-3.2045,-3.3333,-3.4218,-3.4218,-3.4737,-3.5553,-2.0527,0.0,0.0,0.0,-2.0762,-2.083,-2.0596,-2.0762,-2.0752,-2.0283,-2.0049,-1.9668,-1.9023,-1.876,-1.8467,-1.8047,-1.9233,-2.0139,-2.059,-2.1803,-2.2702,-2.3065,-2.3078,-2.3078,-2.3078,-2.345,-2.4374,-2.5887,-2.6288,-2.7187,-2.8587,-2.883,-2.8944,-2.8931,0.0,-2.919,0.0,-2.9988,-3.0362,-3.0872,-3.0586,-3.0313,-2.9924,-2.8966,-2.8607,-2.8502,-2.7814,-2.7625,-2.7625,-2.7625,-2.735,-2.7066,-2.7066,-2.7178,-2.7312,-2.7248,-2.7793,-2.8352,-2.7923,-2.8061,-2.8349,-2.8366,-2.8383,-2.8586,-2.9347,-2.9837,-3.0091,-3.0057,-2.977,-2.9858,-3.0868,-3.2427,-3.3824,-3.4608,-3.5601,-3.5862,-3.4623,-3.4816,-3.4788,-3.4039,-3.3615,-3.4028,-3.575,-3.5954,-3.6419,-3.7504,-3.7044,-3.6827,-3.6967,-3.8331,-3.8463,-3.7042,-3.7251,-3.7165,-3.6671,-3.5207,-3.4085,-3.3298,-3.2086,-3.0881,-2.9756,-2.9193,-2.8802,-2.8486,-2.8082,-2.814,-2.8563,-2.9006,-3.0179,-3.1775,-3.2583,-3.3718,-3.4872,-3.4872,-3.5161,-3.5617,0.0,-2.0566,0.0,0.0,-2.0859,-2.0937,-2.0498,-2.0723,-2.0703,-2.001,-1.9834,-1.9482,-1.8721,-1.8484,-1.8438,-1.8299,-1.9683,-2.0655,-2.0846,-2.2249,-2.3078,-2.3078,-2.3078,-2.3078,-2.3078,-2.3078,-2.392,-2.5628,-2.5821,-2.6728,-2.8333,-2.8532,-2.8583,-2.8561,-2.8552,-2.8951,-2.9565,-2.9653,-2.9864,-3.0145,-3.0108,-2.9804,-2.9295,-2.8637,-2.8382,-2.8293,-2.7604,-2.7415,-2.7385,-2.72,-2.6901,-2.6621,-2.6567,-2.6459,-2.6358,-2.6349,-2.6688,-2.7015,-2.6775,-2.681,-2.7046,-2.7469,-2.7588,-2.7774,-2.8552,-2.9194,-2.9499,-2.9059,-2.9019,-2.9282,-3.015,-3.1673,-3.2999,-3.3697,-3.4614,-3.5073,-3.455,-3.4247,-3.3889,-3.3427,-3.4152,-3.4694,-3.4755,-3.6288,-3.7313,-3.7504,-3.7087,-3.6949,-3.7243,-3.8446,-3.8583,-3.7336,-3.7962,-3.7683,-3.6362,-3.557,-3.4432,-3.2963,-3.2145,-3.1386,-3.0726,-2.9961,-2.9664,-2.9786,-2.9206,-2.9313,-2.9967,-3.0852,-3.1987,-3.3179,-3.3179,-3.4141,-3.5488,-3.5295,-3.5353,-3.5493,0.0,0.0,-2.0566,-2.0566,-2.0596,-2.0478,-2.0049,-2.001,-2.001,-1.9922,-1.958,-1.917,-1.8691,-1.8291,-1.8377,-1.911,-2.0074,-2.091,-2.1753,-2.2628,-2.3078,-2.3078,-2.3078,-2.3078,-2.3078,-2.3078,-2.3609,-2.46,-2.5488,-2.639,-2.733,-2.8201,-2.8479,-2.8352,-2.9154,-2.9262,-2.8924,-2.9215,-2.9491,-2.9624,-2.9026,-2.8742,-2.8622,-2.7934,-2.7715,-2.7625,-2.6916,-2.6677,-2.6587,-2.5989,-2.6153,-2.6579,-2.6459,-2.6354,-2.631,-2.6688,-2.7254,-2.7585,-2.6894,-2.7199,-2.7571,-2.6945,-2.6793,-2.6996,-2.7757,-2.7958,-2.8213,-2.8839,-2.9003,-2.9276,-3.0135,-2.9827,-3.0411,-3.333,-3.2706,-3.2082,-3.2742,-3.4,-3.4082,-3.1905,-3.4972,-3.6104,-3.322,-3.7091,-3.8596,-3.5769,-3.6833,-3.7923,-3.8644,-3.8462,-3.8406,-3.8623,-3.8234,-3.7966,-3.7817,-3.6235,-3.5136,-3.4489,-3.3619,-3.2751,-3.1939,-3.2074,-3.2152,-3.2184,-3.2352,-3.2468,-3.2602,-3.3468,-3.393,-3.4083,-3.4083,-3.4661,-3.5411,-3.4603,-3.4814,-3.5493,-2.0176,-1.9971,-1.9795,-1.9795,-1.9795,-1.9736,-1.9561,-1.9541,-1.9443,-1.918,-1.9004,-1.874,-1.8311,-1.8115,-1.8035,-1.8167,-1.9318,-2.0132,-2.0217,-2.1411,-2.2146,-2.2146,-2.2472,-2.2636,-2.2636,-2.2962,-2.3583,-2.4523,-2.5475,-2.6351,-2.7237,-2.8034,-2.8324,-2.8203,-2.8397,-2.8633,-2.8776,-2.8862,-2.8928,-2.8966,-2.8712,-2.8353,-2.7949,-2.773,-2.732,-2.6946,-2.6692,-2.6333,-2.5899,-2.5241,-2.5196,-2.5407,-2.5364,-2.5466,-2.5654,-2.5831,-2.6498,-2.708,-2.6776,-2.6911,-2.7063,-2.6776,-2.6691,-2.6776,-2.708,-2.7503,-2.7791,-2.7638,-2.7993,-2.8504,-2.906,-2.9875,-3.0558,-3.087,-3.1182,-3.1329,-3.1182,-3.1715,-3.177,-3.0797,-3.2566,-3.3364,-3.204,-3.5506,-3.7301,-3.6067,-3.8383,-3.939,-3.8245,-3.8868,-3.9338,-3.951,-3.7876,-3.7452,-3.8403,-3.5962,-3.4601,-3.4375,-3.3556,-3.2797,-3.209,-3.209,-3.224,-3.2511,-3.2774,-3.2891,-3.2929,-3.3276,-3.3718,-3.4199,-3.4199,-3.4737,-3.5468,-3.5122,-3.5199,-3.5493,-1.9268,-1.9104,-1.8985,-1.9287,-1.9287,-1.9248,-1.9121,-1.9092,-1.8936,-1.8506,-1.8457,-1.834,-1.8047,-1.8008,-1.7899,-1.7795,-1.8976,-1.9627,-1.9502,-2.0767,-2.1493,-2.1493,-2.1857,-2.2071,-2.2071,-2.2447,-2.3043,-2.3841,-2.4771,-2.5774,-2.6765,-2.7908,-2.8278,-2.801,-2.8006,-2.8165,-2.8439,-2.833,-2.8308,-2.8308,-2.8308,-2.8008,-2.7595,-2.74,-2.6991,-2.6542,-2.6153,-2.5719,-2.5211,-2.4552,-2.4402,-2.4563,-2.4737,-2.4957,-2.5259,-2.5561,-2.6123,-2.6691,-2.6691,-2.6691,-2.6691,-2.6691,-2.6691,-2.6691,-2.6691,-2.7114,-2.7368,-2.696,-2.75,-2.8129,-2.8368,-2.966,-3.0485,-2.9824,-3.0467,-3.0999,-3.0925,-3.0907,-3.0907,-3.0907,-3.2265,-3.2706,-3.1513,-3.4798,-3.6442,-3.5073,-3.8435,-3.981,-3.8124,-3.9061,-3.9657,-3.9657,-3.7941,-3.7452,-3.837,-3.6001,-3.468,-3.4432,-3.3605,-3.2999,-3.2598,-3.2527,-3.2784,-3.3293,-3.3451,-3.3588,-3.366,-3.366,-3.4026,-3.4584,-3.4584,-3.4968,-3.5493,-3.5493,-3.5493,-3.5493,-1.7701,-1.7933,-1.8239,-1.9141,-1.9287,-1.9141,-1.8711,-1.8643,-1.8496,-1.8076,-1.8018,-1.8018,-1.8008,-1.8008,-1.8148,-1.852,-1.9269,-1.986,-2.0344,-2.1075,-2.1493,-2.1493,-2.1493,-2.1493,-2.1493,-2.1506,-2.1782,-2.2334,-2.3242,-2.4387,-2.5638,-2.7812,-2.8414,-2.7817,-2.8367,-2.8233,-2.759,-2.759,-2.7625,-2.7625,-2.7625,-2.7625,-2.755,-2.6841,-2.6602,-2.6422,-2.5121,-2.4612,-2.4492,-2.3849,-2.3964,-2.4486,-2.5044,-2.5182,-2.5411,-2.6385,-2.6691,-2.6691,-2.6691,-2.6691,-2.6691,-2.6691,-2.6691,-2.6691,-2.6691,-2.6708,-2.6825,-2.721,-2.7872,-2.8394,-2.8394,-2.8725,-2.9549,-3.1109,-3.0723,-3.0779,-3.2357,-3.2577,-3.2577,-3.2577,-3.544,-3.5854,-3.1788,-3.5807,-3.6681,-3.1906,-3.6029,-3.8738,-3.8773,-3.8792,-3.8792,-3.8792,-3.8773,-3.8387,-3.7614,-3.6728,-3.5844,-3.5,-3.4174,-3.3788,-3.3797,-3.4056,-3.4494,-3.5066,-3.5066,-3.5219,-3.5468,-3.5468,-3.5455,-3.5488,-3.5488,-3.5474,-3.5493,-3.5493,-3.5493,-3.5493,-1.616,-1.6448,-1.6839,-1.7404,-1.797,-1.8369,-1.8232,-1.8213,-1.8057,-1.7637,-1.7578,-1.7471,-1.7178,-1.7402,-1.772,-1.8051,-1.8496,-1.8919,-1.9195,-1.9941,-2.0338,-2.0338,-2.0715,-2.0928,-2.0928,-2.1292,-2.1568,-2.1744,-2.3038,-2.4582,-2.6367,-2.7537,-2.7974,-2.7669,-2.7838,-2.7784,-2.7625,-2.7625,-2.7625,-2.7625,-2.7625,-2.7355,-2.6871,-2.6662,-2.6033,-2.5196,-2.4731,-2.4519,-2.4407,-2.4234,-2.4511,-2.5028,-2.5577,-2.5742,-2.5815,-2.612,-2.6436,-2.6691,-2.6691,-2.6691,-2.6691,-2.6691,-2.6691,-2.6691,-2.6691,-2.6691,-2.6808,-2.721,-2.7707,-2.8129,-2.8368,-2.8725,-2.9342,-3.0411,-3.0375,-3.0577,-3.1623,-3.177,-3.1586,-3.1035,-3.1898,-3.1806,-2.9953,-3.2669,-3.4164,-3.3269,-3.6646,-3.8313,-3.7294,-3.8718,-3.9559,-3.962,-3.8523,-3.8327,-3.9142,-3.667,-3.5587,-3.5881,-3.4468,-3.3807,-3.3807,-3.4093,-3.4292,-3.4513,-3.4925,-3.5138,-3.5239,-3.5432,-3.5493,-3.5493,-3.5493,-3.5493,-3.5493,-3.5493,-3.5853,-3.6334,-1.4828,-1.5495,-1.6133,-1.6596,-1.7245,-1.7715,-1.7559,-1.7529,-1.7432,-1.7178,-1.7139,-1.7031,-1.6758,-1.6826,-1.6957,-1.7144,-1.7862,-1.8272,-1.8309,-1.9254,-1.9798,-1.9798,-2.015,-2.0338,-2.0338,-2.0677,-2.0953,-2.1179,-2.257,-2.403,-2.5562,-2.6504,-2.7049,-2.7215,-2.7505,-2.749,-2.72,-2.72,-2.7066,-2.6841,-2.6841,-2.6587,-2.6198,-2.5944,-2.5345,-2.4552,-2.4328,-2.4286,-2.4389,-2.4389,-2.491,-2.5577,-2.5888,-2.612,-2.6212,-2.5946,-2.6067,-2.6234,-2.5947,-2.6065,-2.6285,-2.6285,-2.6488,-2.6758,-2.6906,-2.7019,-2.7255,-2.7631,-2.8047,-2.8378,-2.8608,-2.8839,-2.925,-3.0081,-3.0448,-3.0834,-3.1329,-3.1384,-3.1329,-3.1127,-3.0834,-3.0448,-2.9953,-3.1549,-3.2603,-3.258,-3.5561,-3.694,-3.5984,-3.8486,-3.9816,-3.9522,-3.8499,-3.8432,-3.9441,-3.711,-3.6064,-3.6266,-3.4596,-3.3807,-3.3807,-3.3986,-3.4099,-3.4223,-3.4615,-3.4889,-3.5105,-3.5289,-3.5417,-3.5493,-3.5493,-3.568,-3.5949,-3.5949,-3.6488,-3.7199,-1.3818,-1.4947,-1.596,-1.6571,-1.7045,-1.7236,-1.6797,-1.6665,-1.6719,-1.6689,-1.6689,-1.668,-1.6578,-1.6269,-1.6076,-1.6076,-1.7403,-1.8126,-1.7765,-1.9044,-1.9798,-1.9798,-1.9798,-1.9798,-1.9798,-1.9798,-2.0087,-2.0718,-2.1995,-2.2962,-2.3616,-2.4983,-2.5927,-2.6557,-2.7156,-2.7096,-2.6512,-2.6512,-2.6168,-2.5615,-2.5615,-2.5585,-2.548,-2.4821,-2.4552,-2.4477,-2.3819,-2.3948,-2.4389,-2.4368,-2.5064,-2.5914,-2.59,-2.6182,-2.642,-2.5845,-2.5642,-2.5456,-2.4746,-2.5033,-2.5541,-2.5592,-2.615,-2.6825,-2.721,-2.7589,-2.7936,-2.829,-2.8682,-2.8952,-2.8952,-2.903,-2.9342,-3.0155,-3.0962,-3.1476,-3.1476,-3.1513,-3.177,-3.2375,-3.1825,-3.1347,-3.1237,-3.1916,-3.1806,-3.0467,-3.3146,-3.4945,-3.5183,-3.8125,-3.9467,-3.8726,-3.8707,-3.8707,-3.8707,-3.79,-3.7092,-3.6266,-3.4651,-3.3917,-3.3972,-3.3972,-3.412,-3.4338,-3.4409,-3.4703,-3.5223,-3.5276,-3.5461,-3.568,-3.568,-3.6142,-3.6796,-3.6796,-3.7334,-3.8084,-1.2922,-1.4023,-1.4993,-1.5933,-1.6816,-1.7236,-1.6797,-1.6665,-1.6611,-1.626,-1.6221,-1.6094,-1.5762,-1.5625,-1.5566,-1.5566,-1.6914,-1.8196,-1.9214,-1.9592,-1.9798,-1.9798,-1.9798,-1.9798,-1.9798,-1.9798,-2.0087,-2.0718,-2.2043,-2.3018,-2.3602,-2.495,-2.5682,-2.5839,-2.6004,-2.5989,-2.5839,-2.5839,-2.5749,-2.5615,-2.5615,-2.53,-2.4806,-2.4642,-2.4298,-2.3819,-2.3655,-2.3948,-2.4393,-2.4232,-2.4567,-2.5056,-2.4895,-2.4936,-2.5203,-2.615,-2.6048,-2.5575,-2.5389,-2.505,-2.4881,-2.5456,-2.615,-2.6825,-2.721,-2.7378,-2.756,-2.7936,-2.829,-2.854,-2.854,-2.929,-3.0173,-3.098,-3.1788,-3.232,-3.232,-3.2834,-3.2614,-3.0962,-3.1127,-3.0907,-2.9696,-2.9751,-3.0491,-3.1998,-3.2827,-3.4328,-3.6849,-3.7742,-3.8339,-3.8689,-3.8707,-3.8707,-3.8707,-3.79,-3.7092,-3.6285,-3.5238,-3.5073,-3.5716,-3.5716,-3.5754,-3.5846,-3.625,-3.6484,-3.6649,-3.7113,-3.7348,-3.7411,-3.7411,-3.7526,-3.77,-3.77,-3.8238,-3.8988,-1.2409,-1.3314,-1.4281,-1.5201,-1.5845,-1.6243,-1.613,-1.6133,-1.6045,-1.5791,-1.5762,-1.5674,-1.5439,-1.541,-1.5526,-1.5864,-1.6912,-1.795,-1.8715,-1.9423,-1.9798,-1.9798,-1.9798,-1.9798,-1.9798,-1.9798,-1.9962,-2.0275,-2.1003,-2.172,-2.2359,-2.3666,-2.4451,-2.4764,-2.5325,-2.5435,-2.5151,-2.5151,-2.4986,-2.4687,-2.4687,-2.4477,-2.4163,-2.4163,-2.3924,-2.3595,-2.3595,-2.3948,-2.4409,-2.456,-2.4956,-2.5306,-2.5092,-2.5,-2.5084,-2.5541,-2.5169,-2.4526,-2.4188,-2.4289,-2.4746,-2.5828,-2.6404,-2.6841,-2.7439,-2.756,-2.7736,-2.8281,-2.8558,-2.8791,-2.9155,-2.9759,-3.0577,-3.1751,-3.2346,-3.264,-3.2614,-3.3007,-3.2529,-3.0448,-3.0595,-3.0356,-2.9104,-2.9677,-3.0674,-3.201,-3.35,-3.5138,-3.6893,-3.7702,-3.8279,-3.8689,-3.8707,-3.8707,-3.8707,-3.79,-3.7276,-3.6835,-3.6009,-3.5844,-3.6303,-3.6303,-3.6303,-3.6313,-3.6727,-3.6998,-3.7133,-3.7618,-3.7894,-3.8007,-3.8007,-3.8238,-3.8584,-3.8584,-3.9123,-3.9835,-1.2126,-1.294,-1.3747,-1.4451,-1.4765,-1.501,-1.5271,-1.5332,-1.541,-1.541,-1.541,-1.541,-1.541,-1.541,-1.5642,-1.6265,-1.7034,-1.7523,-1.7743,-1.9044,-1.9798,-1.9798,-1.9798,-1.9798,-1.9798,-1.9798,-1.9798,-1.9798,-1.9991,-2.0383,-2.0944,-2.2214,-2.3141,-2.3717,-2.4815,-2.5001,-2.4477,-2.4477,-2.4133,-2.3595,-2.3595,-2.3595,-2.3595,-2.3595,-2.3535,-2.3475,-2.3565,-2.3819,-2.425,-2.483,-2.5341,-2.5681,-2.5496,-2.5439,-2.5321,-2.4661,-2.4052,-2.341,-2.2682,-2.3376,-2.4675,-2.6015,-2.6437,-2.677,-2.7601,-2.7869,-2.8093,-2.8767,-2.8952,-2.9195,-2.9898,-3.0118,-3.0742,-3.2357,-3.2665,-3.2702,-3.2779,-3.2831,-3.2187,-3.0411,-3.032,-3.0026,-2.9085,-3.0356,-3.1256,-3.1384,-3.41,-3.5844,-3.6083,-3.7514,-3.8395,-3.8524,-3.8634,-3.8707,-3.8707,-3.79,-3.7551,-3.7661,-3.6853,-3.6541,-3.6652,-3.6652,-3.6652,-3.6681,-3.701,-3.7258,-3.7511,-3.789,-3.8175,-3.8373,-3.8373,-3.8834,-3.9469,-3.9469,-3.9912,-4.0489,-1.2149,-1.2702,-1.329,-1.4065,-1.478,-1.516,-1.4834,-1.516,-1.541,-1.541,-1.541,-1.541,-1.541,-1.541,-1.5468,-1.5584,-1.6255,-1.7191,-1.8447,-1.9307,-1.9798,-1.9798,-1.9798,-1.9798,-1.9798,-1.9798,-1.9798,-1.9798,-2.089,-2.1472,-2.1568,-2.2843,-2.3526,-2.3613,-2.382,-2.3849,-2.3759,-2.3759,-2.3699,-2.3595,-2.3595,-2.3595,-2.3595,-2.3595,-2.3266,-2.2933,-2.3415,-2.3351,-2.3091,-2.398,-2.4319,-2.441,-2.461,-2.4661,-2.4659,-2.454,-2.4438,-2.4154,-2.3427,-2.3393,-2.3765,-2.4642,-2.5304,-2.606,-2.7165,-2.7666,-2.7992,-2.8394,-2.8773,-2.903,-2.914,-2.9751,-3.0742,-3.2357,-3.2614,-3.2852,-3.3513,-3.3605,-3.2787,-3.0467,-3.0797,-3.0632,-2.9122,-2.9843,-3.0668,-3.1347,-3.2504,-3.377,-3.5119,-3.6138,-3.6982,-3.7643,-3.834,-3.8707,-3.8707,-3.79,-3.7826,-3.8505,-3.7698,-3.7661,-3.834,-3.834,-3.834,-3.8352,-3.8901,-3.9157,-3.9248,-3.9811,-4.0069,-4.0104,-4.0104,-4.0181,-4.0296,-4.0296,-4.0392,-4.0489,-1.1696,-1.1871,-1.2173,-1.3138,-1.3372,-1.3618,-1.4328,-1.463,-1.4932,-1.5352,-1.541,-1.541,-1.541,-1.541,-1.541,-1.541,-1.6093,-1.6821,-1.7468,-1.8555,-1.9202,-1.9202,-1.9579,-1.9798,-1.9798,-1.9798,-1.9798,-1.9798,-2.037,-2.0855,-2.1259,-2.2132,-2.2756,-2.3143,-2.3465,-2.3415,-2.3101,-2.3101,-2.3101,-2.3071,-2.2712,-2.2787,-2.3071,-2.2712,-2.2398,-2.2188,-2.2473,-2.2622,-2.2858,-2.3822,-2.4399,-2.474,-2.4996,-2.5084,-2.5,-2.4625,-2.4506,-2.4438,-2.4069,-2.3985,-2.4154,-2.4898,-2.5355,-2.5924,-2.7037,-2.7439,-2.7736,-2.829,-2.854,-2.8877,-2.952,-2.9953,-3.0577,-3.1751,-3.2346,-3.2768,-3.3109,-3.3558,-3.3125,-3.1091,-3.1164,-3.076,-2.914,-3.0118,-3.0999,-3.1366,-3.2963,-3.4202,-3.4954,-3.5826,-3.6468,-3.6835,-3.8046,-3.8707,-3.8707,-3.8322,-3.8322,-3.8707,-3.8322,-3.834,-3.8707,-3.8707,-3.8707,-3.8719,-3.9327,-3.9599,-3.9645,-4.0248,-4.0489,-4.0489,-4.0489,-4.0489,-4.0489,-4.0489,-4.0489,-4.0489,-1.1196,-1.1209,-1.1424,-1.2186,-1.2173,-1.2476,-1.3813,-1.4148,-1.451,-1.5294,-1.541,-1.541,-1.541,-1.541,-1.541,-1.541,-1.5921,-1.6255,-1.6255,-1.7457,-1.8328,-1.8715,-1.9423,-1.9798,-1.9798,-1.9798,-1.9748,-1.9623,-1.9889,-2.0231,-2.0647,-2.1513,-2.2193,-2.274,-2.3186,-2.3116,-2.2709,-2.2517,-2.2484,-2.2398,-2.1904,-2.1994,-2.2398,-2.1889,-2.1605,-2.1485,-2.1635,-2.1919,-2.245,-2.3771,-2.4532,-2.5051,-2.5681,-2.5862,-2.5744,-2.5169,-2.5031,-2.4946,-2.4608,-2.4506,-2.4692,-2.5423,-2.5609,-2.5875,-2.6911,-2.7224,-2.75,-2.8139,-2.8342,-2.8721,-2.9716,-2.9934,-3.0246,-3.1237,-3.1801,-3.2224,-3.2559,-3.3015,-3.2783,-3.1317,-3.1109,-3.0558,-2.9122,-3.0467,-3.1384,-3.1384,-3.3458,-3.4715,-3.4715,-3.5532,-3.6083,-3.6285,-3.7496,-3.8322,-3.8707,-3.8505,-3.8505,-3.8707,-3.8707,-3.8707,-3.8707,-3.8707,-3.8707,-3.8719,-3.9327,-3.9599,-3.9645,-4.0248,-4.0489,-4.0489,-4.0489,-4.0489,-4.0489,-4.0489,-4.0489,-4.0489,-1.0675,-1.1263,-1.1706,-1.1182,-1.1945,-1.2793,-1.3363,-1.3891,-1.451,-1.5294,-1.541,-1.541,-1.541,-1.541,-1.541,-1.541,-1.5468,-1.5468,-1.5468,-1.6197,-1.7246,-1.8661,-1.9423,-1.9798,-1.9798,-1.9798,-1.9572,-1.9033,-2.0163,-2.0483,-2.0112,-2.1815,-2.2649,-2.2725,-2.2742,-2.2727,-2.2679,-2.2024,-2.1769,-2.1769,-2.1724,-2.1724,-2.1754,-2.1724,-2.1321,-2.0872,-2.1485,-2.1335,-2.1174,-2.3438,-2.4232,-2.4539,-2.6117,-2.6623,-2.6607,-2.6539,-2.6522,-2.6234,-2.4879,-2.4506,-2.4692,-2.5423,-2.5609,-2.5795,-2.6555,-2.7019,-2.7409,-2.7869,-2.8183,-2.8558,-2.9002,-2.9085,-2.9604,-3.1146,-3.0815,-3.0889,-3.2394,-3.2008,-3.1256,-3.0393,-3.0283,-2.9953,-2.9067,-3.0467,-3.1384,-3.1384,-3.2944,-3.3899,-3.3899,-3.4669,-3.5477,-3.6266,-3.6413,-3.7184,-3.8689,-3.7955,-3.7955,-3.8707,-3.8707,-3.8707,-3.8707,-3.8707,-3.8707,-3.8719,-3.9327,-3.9599,-3.9645,-4.0248,-4.0489,-4.0489,-4.0489,-4.0489,-4.0489,-4.0489,-4.0489,-4.0489,-1.1082,-1.1363,-1.1523,-1.1303,-1.1471,-1.184,-1.2319,-1.3022,-1.3726,-1.4569,-1.5108,-1.541,-1.541,-1.541,-1.541,-1.541,-1.541,-1.541,-1.541,-1.6093,-1.7146,-1.8661,-1.9423,-1.9798,-1.9798,-1.9484,-1.9221,-1.8983,-1.9126,-1.9244,-1.9476,-2.0148,-2.0709,-2.1122,-2.1425,-2.1354,-2.0973,-2.1069,-2.1081,-2.1051,-2.0617,-2.0707,-2.1036,-2.0617,-2.0288,-2.0109,-2.0363,-2.0557,-2.0896,-2.2098,-2.3279,-2.4358,-2.5342,-2.6152,-2.6607,-2.615,-2.6031,-2.5896,-2.5321,-2.5169,-2.5253,-2.5541,-2.5609,-2.5795,-2.6522,-2.6808,-2.6899,-2.6847,-2.7116,-2.7468,-2.7888,-2.7712,-2.8044,-2.9659,-2.9659,-2.9843,-3.0962,-3.1274,-3.1091,-3.0301,-3.021,-2.9879,-2.9067,-3.0467,-3.1384,-3.1384,-3.2889,-3.3807,-3.3807,-3.41,-3.4651,-3.5477,-3.5018,-3.5532,-3.7202,-3.7386,-3.7386,-3.7221,-3.7716,-3.7955,-3.7955,-3.7955,-3.823,-3.8719,-3.9327,-3.9599,-3.9645,-4.0248,-4.0489,-4.0489,-4.0489,-4.0489,-4.0489,-4.0489,-4.0489,-4.0489,-1.1149,-1.145,-1.1583,-1.1216,-1.1142,-1.1252,-1.1714,-1.2451,-1.3312,-1.4085,-1.4874,-1.541,-1.541,-1.541,-1.541,-1.541,-1.541,-1.541,-1.541,-1.6093,-1.7146,-1.8661,-1.9044,-1.9331,-1.956,-1.9045,-1.8681,-1.8505,-1.8304,-1.8325,-1.8565,-1.8948,-1.9356,-1.9798,-2.0357,-2.033,-1.9912,-2.0241,-2.0393,-2.0348,-1.9884,-1.9974,-2.0348,-1.9869,-1.969,-1.969,-1.969,-1.9989,-2.0497,-2.1265,-2.233,-2.3483,-2.4375,-2.528,-2.5896,-2.5406,-2.5253,-2.5304,-2.5541,-2.5439,-2.5372,-2.5828,-2.5947,-2.6082,-2.6573,-2.6691,-2.6604,-2.629,-2.6382,-2.6702,-2.7204,-2.7027,-2.7313,-2.8755,-2.8994,-2.92,-2.9751,-3.0301,-3.0448,-2.9898,-2.9824,-2.9622,-2.9049,-3.0467,-3.1384,-3.1384,-3.2889,-3.3807,-3.3807,-3.4045,-3.4431,-3.4972,-3.4468,-3.4743,-3.5881,-3.6431,-3.6578,-3.6303,-3.711,-3.7507,-3.7507,-3.7507,-3.7936,-3.8701,-3.8962,-3.926,-3.9645,-4.0157,-4.0422,-4.0489,-4.0489,-4.0489,-4.0489,-4.0489,-4.0489,-4.0489,-1.0739,-1.1496,-1.1924,-1.0833,-1.1042,-1.1484,-1.1744,-1.2451,-1.3312,-1.4094,-1.4874,-1.541,-1.541,-1.541,-1.541,-1.541,-1.541,-1.541,-1.541,-1.6093,-1.7135,-1.8596,-1.8163,-1.8258,-1.8983,-1.848,-1.7928,-1.7388,-1.7928,-1.7903,-1.7433,-1.8552,-1.9059,-1.9078,-1.9627,-1.9872,-1.9868,-1.9738,-1.969,-1.969,-1.969,-1.969,-1.969,-1.969,-1.969,-1.969,-1.969,-1.969,-1.9888,-2.1095,-2.1506,-2.1772,-2.339,-2.4161,-2.4506,-2.4506,-2.4506,-2.4661,-2.5389,-2.505,-2.4879,-2.6319,-2.6691,-2.6691,-2.6691,-2.6691,-2.6604,-2.6243,-2.6177,-2.6422,-2.7155,-2.7302,-2.7671,-2.8824,-2.8975,-2.8975,-2.8994,-2.8994,-2.8994,-2.8994,-2.8994,-2.8994,-2.8994,-3.0467,-3.1384,-3.1384,-3.2889,-3.3807,-3.3807,-3.4578,-3.499,-3.499,-3.499,-3.499,-3.499,-3.499,-3.544,-3.6285,-3.7092,-3.7477,-3.7477,-3.7507,-3.7936,-3.8683,-3.8136,-3.854,-3.9622,-3.9943,-4.0269,-4.0489,-4.0489,-4.0489,-4.0489,-4.0489,-4.0489,-4.0489,-1.0862,-1.1142,-1.1276,-1.0922,-1.1009,-1.1061,-1.0982,-1.2089,-1.307,-1.3312,-1.4569,-1.541,-1.541,-1.541,-1.541,-1.541,-1.541,-1.541,-1.541,-1.5355,-1.5725,-1.6677,-1.7485,-1.7993,-1.8208,-1.7842,-1.7551,-1.7388,-1.7137,-1.6936,-1.6785,-1.7142,-1.7293,-1.7281,-1.7851,-1.8302,-1.8647,-1.9017,-1.9369,-1.969,-1.969,-1.969,-1.969,-1.969,-1.969,-1.969,-1.969,-1.969,-1.9756,-2.0131,-2.0799,-2.1772,-2.339,-2.4161,-2.4404,-2.3866,-2.4458,-2.5084,-2.4272,-2.4644,-2.5507,-2.6454,-2.6302,-2.6065,-2.6573,-2.6302,-2.5895,-2.5802,-2.5554,-2.5594,-2.6384,-2.6435,-2.6874,-2.8347,-2.8346,-2.8356,-2.892,-2.8994,-2.8994,-2.8994,-2.8994,-2.8994,-2.8994,-3.0467,-3.1384,-3.1384,-3.2889,-3.3807,-3.3807,-3.4027,-3.4174,-3.4174,-3.4174,-3.4174,-3.4174,-3.4715,-3.4853,-3.4559,-3.5973,-3.6652,-3.667,-3.7221,-3.7936,-3.8719,-3.873,-3.9064,-3.9622,-3.9943,-4.0269,-4.0489,-4.0489,-4.0489,-4.0489,-4.0489,-4.0489,-4.0489,-1.0808,-1.1009,-1.1089,-1.0862,-1.0915,-1.0895,-1.0665,-1.1725,-1.2634,-1.2948,-1.4145,-1.505,-1.5352,-1.541,-1.541,-1.541,-1.541,-1.5342,-1.5176,-1.4932,-1.4919,-1.5208,-1.6041,-1.6754,-1.7312,-1.7143,-1.7036,-1.7036,-1.6685,-1.6522,-1.6522,-1.6522,-1.6522,-1.6522,-1.7076,-1.7585,-1.8145,-1.865,-1.9207,-1.969,-1.969,-1.969,-1.969,-1.969,-1.969,-1.969,-1.969,-1.969,-1.969,-1.969,-2.0289,-2.1183,-2.2176,-2.2866,-2.3284,-2.2819,-2.3459,-2.4171,-2.3562,-2.3849,-2.4543,-2.5558,-2.549,-2.527,-2.5727,-2.571,-2.5524,-2.522,-2.5203,-2.5433,-2.6061,-2.6121,-2.6595,-2.8152,-2.8191,-2.8273,-2.892,-2.8994,-2.8994,-2.8994,-2.8994,-2.8994,-2.8994,-3.0467,-3.1659,-3.2302,-3.3238,-3.3807,-3.3807,-3.41,-3.4284,-3.4284,-3.4614,-3.4798,-3.4798,-3.5275,-3.511,-3.4302,-3.5973,-3.6762,-3.678,-3.7276,-3.7936,-3.867,-3.8533,-3.8819,-3.9414,-3.9775,-4.0081,-4.0356,-4.0457,-4.0489,-4.0489,-4.0489,-4.0489,-4.0489,-1.0615,-1.0982,-1.1182,-1.0719,-1.0782,-1.0868,-1.0665,-1.1288,-1.2081,-1.2879,-1.37,-1.4473,-1.5294,-1.5381,-1.5371,-1.541,-1.5381,-1.5195,-1.4805,-1.4717,-1.4492,-1.4092,-1.4246,-1.4903,-1.615,-1.6352,-1.6436,-1.6522,-1.6522,-1.6522,-1.6522,-1.6522,-1.6522,-1.6522,-1.6993,-1.7544,-1.8145,-1.8612,-1.9169,-1.969,-1.969,-1.969,-1.969,-1.969,-1.969,-1.969,-1.969,-1.969,-1.969,-1.969,-1.9965,-2.0314,-2.0314,-2.091,-2.1634,-2.1615,-2.1999,-2.2558,-2.3156,-2.2868,-2.2699,-2.3968,-2.432,-2.4371,-2.4543,-2.5118,-2.5439,-2.4814,-2.5169,-2.5737,-2.6161,-2.6281,-2.6755,-2.8067,-2.835,-2.854,-2.8887,-2.8994,-2.8994,-2.8994,-2.9049,-2.9104,-2.9104,-3.0558,-3.2137,-3.3678,-3.3807,-3.3807,-3.3807,-3.4504,-3.488,-3.488,-3.5661,-3.6101,-3.6174,-3.6266,-3.5899,-3.5137,-3.6743,-3.7507,-3.7507,-3.7551,-3.801,-3.867,-3.7918,-3.8172,-3.9107,-3.9414,-3.9775,-4.012,-4.0372,-4.0473,-4.0489,-4.0489,-4.0489,-4.0489,-1.0511,-1.0661,-1.0708,-1.0645,-1.0672,-1.0698,-1.0631,-1.1288,-1.2081,-1.2879,-1.3414,-1.4169,-1.5255,-1.5117,-1.5049,-1.5381,-1.5107,-1.4883,-1.4795,-1.416,-1.374,-1.3652,-1.3836,-1.4058,-1.4378,-1.5277,-1.6008,-1.6522,-1.6522,-1.6522,-1.6522,-1.6522,-1.6522,-1.6522,-1.6637,-1.7188,-1.8106,-1.8224,-1.8817,-1.969,-1.969,-1.969,-1.969,-1.969,-1.969,-1.969,-1.969,-1.969,-1.969,-1.969,-1.9965,-2.0314,-2.0314,-2.1079,-2.1956,-2.1685,-2.2514,-2.3383,-2.2714,-2.2852,-2.3105,-2.2852,-2.2784,-2.3241,-2.4966,-2.549,-2.5727,-2.6133,-2.5896,-2.581,-2.6468,-2.6842,-2.7157,-2.7495,-2.8012,-2.842,-2.8515,-2.8797,-2.8994,-2.8994,-2.9567,-2.9953,-2.9953,-3.1403,-3.2761,-3.3733,-3.3807,-3.3807,-3.3807,-3.3972,-3.4064,-3.4064,-3.4247,-3.4651,-3.5293,-3.5973,-3.6211,-3.6028,-3.7019,-3.7507,-3.7514,-3.8138,-3.8542,-3.8689,-3.8524,-3.8707,-3.9125,-3.916,-3.9576,-4.0101,-4.0158,-4.0321,-4.0489,-4.0489,-4.0489,-4.0489,-0.9913,-1.0301,-1.0624,-1.0624,-1.0624,-1.0624,-1.0624,-1.0989,-1.1531,-1.2328,-1.2805,-1.342,-1.4438,-1.4503,-1.4648,-1.5078,-1.4912,-1.4697,-1.4492,-1.3867,-1.3418,-1.3213,-1.331,-1.3505,-1.3768,-1.4687,-1.5466,-1.6051,-1.638,-1.6522,-1.6522,-1.6522,-1.6522,-1.6522,-1.6522,-1.6951,-1.7747,-1.7987,-1.8574,-1.9332,-1.9603,-1.969,-1.969,-1.969,-1.969,-1.969,-1.969,-1.969,-1.969,-1.969,-1.9839,-2.0,-2.0,-2.0562,-2.124,-2.1278,-2.2017,-2.2727,-2.2382,-2.2581,-2.2784,-2.2412,-2.2564,-2.3139,-2.4289,-2.4814,-2.527,-2.6015,-2.615,-2.6234,-2.6623,-2.6873,-2.7083,-2.7272,-2.7631,-2.7946,-2.8129,-2.8334,-2.8533,-2.8682,-2.9089,-2.971,-3.0687,-3.188,-3.2944,-3.3733,-3.3807,-3.3807,-3.3807,-3.3807,-3.3972,-3.4376,-3.478,-3.5385,-3.6193,-3.7037,-3.7441,-3.7441,-3.7863,-3.8065,-3.8083,-3.8505,-3.8707,-3.8707,-3.8707,-3.8773,-3.8923,-3.9063,-3.9289,-3.9645,-3.9797,-3.9944,-4.0082,-4.025,-4.0389,-4.0489,-0.9268,-0.9849,-1.0428,-1.0561,-1.0624,-1.0624,-1.0624,-1.0624,-1.085,-1.1636,-1.1944,-1.2439,-1.3243,-1.3681,-1.4115,-1.4639,-1.4609,-1.4414,-1.4,-1.3633,-1.3242,-1.29,-1.2881,-1.3152,-1.3647,-1.4236,-1.4869,-1.5588,-1.6194,-1.6522,-1.6522,-1.6522,-1.6522,-1.6522,-1.6522,-1.6795,-1.7353,-1.7787,-1.8341,-1.893,-1.9369,-1.9603,-1.969,-1.969,-1.969,-1.969,-1.969,-1.969,-1.969,-1.969,-1.969,-1.969,-1.969,-1.9945,-2.028,-2.0829,-2.1244,-2.1628,-2.2135,-2.231,-2.231,-2.231,-2.2767,-2.3274,-2.3528,-2.4154,-2.4881,-2.5642,-2.6268,-2.6691,-2.6691,-2.6691,-2.6808,-2.7147,-2.7272,-2.7426,-2.7754,-2.7869,-2.802,-2.8368,-2.8706,-2.9675,-3.1616,-3.2412,-3.3091,-3.3752,-3.3807,-3.3807,-3.3807,-3.3807,-3.4174,-3.4954,-3.5716,-3.6541,-3.7477,-3.8157,-3.856,-3.8707,-3.8707,-3.8707,-3.8707,-3.8707,-3.8707,-3.8707,-3.8707,-3.8707,-3.8719,-3.8933,-3.9063,-3.9125,-3.9408,-3.9552,-3.9622,-3.9901,-4.0157,-4.0353,-0.9011,-0.9402,-0.9722,-1.0498,-1.0624,-1.0624,-1.0624,-1.0624,-1.0767,-1.1323,-1.112,-1.1259,-1.2226,-1.2848,-1.3495,-1.4165,-1.3896,-1.3662,-1.3603,-1.3203,-1.2939,-1.2881,-1.2881,-1.2929,-1.3017,-1.36,-1.4457,-1.5588,-1.6194,-1.6522,-1.6522,-1.6522,-1.6522,-1.6522,-1.6522,-1.6795,-1.7312,-1.7394,-1.7987,-1.8893,-1.8968,-1.9281,-1.969,-1.969,-1.969,-1.969,-1.969,-1.969,-1.969,-1.969,-1.969,-1.969,-1.969,-1.9747,-1.9945,-2.0764,-2.1023,-2.126,-2.2077,-2.231,-2.231,-2.231,-2.2378,-2.2784,-2.4052,-2.4915,-2.5659,-2.6387,-2.6623,-2.6691,-2.6691,-2.6691,-2.6725,-2.6791,-2.7083,-2.7334,-2.7378,-2.7678,-2.802,-2.8368,-2.9951,-3.1646,-3.3311,-3.3568,-3.3678,-3.3788,-3.3807,-3.3807,-3.3807,-3.3807,-3.4174,-3.4954,-3.51,-3.5917,-3.7459,-3.7617,-3.801,-3.8707,-3.8707,-3.8707,-3.8707,-3.8707,-3.8707,-3.8707,-3.8707,-3.8707,-3.8707,-3.875,-3.8894,-3.9107,-3.9133,-3.9339,-3.9599,-3.9645,-3.969,-3.9735,-0.835,-0.8947,-0.9594,-1.0434,-1.0624,-1.0624,-1.0624,-1.0421,-1.0383,-1.0597,-1.0559,-1.0635,-1.1076,-1.2109,-1.3026,-1.3727,-1.3613,-1.3506,-1.3506,-1.3115,-1.2881,-1.2881,-1.2881,-1.2881,-1.2881,-1.3505,-1.4236,-1.5096,-1.5688,-1.6194,-1.6522,-1.6522,-1.6522,-1.6522,-1.6522,-1.6637,-1.6879,-1.7146,-1.7585,-1.8066,-1.865,-1.9043,-1.9281,-1.9603,-1.969,-1.969,-1.969,-1.969,-1.969,-1.969,-1.969,-1.969,-1.969,-1.969,-1.9818,-2.0431,-2.0781,-2.1118,-2.1735,-2.2106,-2.231,-2.231,-2.2615,-2.319,-2.4269,-2.4729,-2.5304,-2.6454,-2.6691,-2.6691,-2.6691,-2.6691,-2.6691,-2.6691,-2.6841,-2.6954,-2.6954,-2.7303,-2.7935,-2.8945,-3.0458,-3.1861,-3.3018,-3.3532,-3.3807,-3.3807,-3.3807,-3.3807,-3.3807,-3.3807,-3.4174,-3.4954,-3.5477,-3.6303,-3.7477,-3.7936,-3.834,-3.8707,-3.8707,-3.8707,-3.8707,-3.8707,-3.8707,-3.8707,-3.8707,-3.8707,-3.8707,-3.8707,-3.8762,-3.8884,-3.8884,-3.9054,-3.9314,-3.9314,-3.9438,-3.9599]}]]